<?xml version="1.0" encoding="UTF-8" standalone="no" ?>
<gpx xmlns="http://www.topografix.com/GPX/1/1" xmlns:xsi="http://www.w3.org/2001/XMLSchema-instance" xsi:schemaLocation="http://www.topografix.com/GPX/1/1 http://www.topografix.com/GPX/1/1/gpx.xsd" version="1.1" creator="VisuGPX - https://www.visugpx.com">
  <metadata>
    <name>2016-03-30 Pointe d'Emy</name>
    <desc><![CDATA[Ca y est, c'est le ski de rpintemps, grosses chaleurs à la montée, moquette impeccable à la descente]]></desc>
  </metadata>
  <trk>
    <name><![CDATA[2016-03-30 Pointe d'Emy]]></name>
    <trkseg>
      <trkpt lat="45.21056" lon="6.41922">
        <ele>1699</ele>
        <time>2016-03-30T08:51:18Z</time>
      </trkpt>
      <trkpt lat="45.21061" lon="6.41919">
        <ele>1699</ele>
        <time>2016-03-30T08:51:23Z</time>
      </trkpt>
      <trkpt lat="45.21062" lon="6.41916">
        <ele>1699</ele>
        <time>2016-03-30T08:51:28Z</time>
      </trkpt>
      <trkpt lat="45.21065" lon="6.4191">
        <ele>1689.595723032</ele>
        <time>2016-03-30T08:51:36Z</time>
      </trkpt>
      <trkpt lat="45.21069" lon="6.41897">
        <ele>1696.5101993</ele>
        <time>2016-03-30T08:51:45Z</time>
      </trkpt>
      <trkpt lat="45.2107" lon="6.4189">
        <ele>1696.5101993</ele>
        <time>2016-03-30T08:51:49Z</time>
      </trkpt>
      <trkpt lat="45.21069" lon="6.41876">
        <ele>1703.519493236</ele>
        <time>2016-03-30T08:51:59Z</time>
      </trkpt>
      <trkpt lat="45.2107" lon="6.41867">
        <ele>1703.519493236</ele>
        <time>2016-03-30T08:52:05Z</time>
      </trkpt>
      <trkpt lat="45.21064" lon="6.41856">
        <ele>1711.887256685</ele>
        <time>2016-03-30T08:52:15Z</time>
      </trkpt>
      <trkpt lat="45.21062" lon="6.41851">
        <ele>1711.887256685</ele>
        <time>2016-03-30T08:52:19Z</time>
      </trkpt>
      <trkpt lat="45.21026" lon="6.41834">
        <ele>1720.519539448</ele>
        <time>2016-03-30T08:52:58Z</time>
      </trkpt>
      <trkpt lat="45.21006" lon="6.41831">
        <ele>1728.710123197</ele>
        <time>2016-03-30T08:53:18Z</time>
      </trkpt>
      <trkpt lat="45.20989" lon="6.41828">
        <ele>1737.070241192</ele>
        <time>2016-03-30T08:53:33Z</time>
      </trkpt>
      <trkpt lat="45.20985" lon="6.41824">
        <ele>1737.070241192</ele>
        <time>2016-03-30T08:53:34Z</time>
      </trkpt>
      <trkpt lat="45.20974" lon="6.4182">
        <ele>1743.845081188</ele>
        <time>2016-03-30T08:53:48Z</time>
      </trkpt>
      <trkpt lat="45.20969" lon="6.41822">
        <ele>1743.845081188</ele>
        <time>2016-03-30T08:53:49Z</time>
      </trkpt>
      <trkpt lat="45.20969" lon="6.41822">
        <ele>1743.845081188</ele>
        <time>2016-03-30T08:53:50Z</time>
      </trkpt>
      <trkpt lat="45.20954" lon="6.41816">
        <ele>1748.68914815</ele>
        <time>2016-03-30T08:54:06Z</time>
      </trkpt>
      <trkpt lat="45.20951" lon="6.41815">
        <ele>1748.68914815</ele>
        <time>2016-03-30T08:54:06Z</time>
      </trkpt>
      <trkpt lat="45.20944" lon="6.41812">
        <ele>1752.328160705</ele>
        <time>2016-03-30T08:54:14Z</time>
      </trkpt>
      <trkpt lat="45.20938" lon="6.41808">
        <ele>1752.328160705</ele>
        <time>2016-03-30T08:54:19Z</time>
      </trkpt>
      <trkpt lat="45.20923" lon="6.41797">
        <ele>1755.480318802</ele>
        <time>2016-03-30T08:54:39Z</time>
      </trkpt>
      <trkpt lat="45.20863" lon="6.41782">
        <ele>1757.542730464</ele>
        <time>2016-03-30T08:55:25Z</time>
      </trkpt>
      <trkpt lat="45.20819" lon="6.41774">
        <ele>1758.346426793</ele>
        <time>2016-03-30T08:56:09Z</time>
      </trkpt>
      <trkpt lat="45.20814" lon="6.41771">
        <ele>1758.346426793</ele>
        <time>2016-03-30T08:56:14Z</time>
      </trkpt>
      <trkpt lat="45.20787" lon="6.41742">
        <ele>1759.437016318</ele>
        <time>2016-03-30T08:56:52Z</time>
      </trkpt>
      <trkpt lat="45.20787" lon="6.41742">
        <ele>1759.437016318</ele>
        <time>2016-03-30T08:56:54Z</time>
      </trkpt>
      <trkpt lat="45.20786" lon="6.41741">
        <ele>1759.437016318</ele>
        <time>2016-03-30T08:56:55Z</time>
      </trkpt>
      <trkpt lat="45.20786" lon="6.41741">
        <ele>1759.437016318</ele>
        <time>2016-03-30T08:56:56Z</time>
      </trkpt>
      <trkpt lat="45.20785" lon="6.41741">
        <ele>1759.437016318</ele>
        <time>2016-03-30T08:56:57Z</time>
      </trkpt>
      <trkpt lat="45.20785" lon="6.41741">
        <ele>1759.437016318</ele>
        <time>2016-03-30T08:57:06Z</time>
      </trkpt>
      <trkpt lat="45.20785" lon="6.41741">
        <ele>1759.437016318</ele>
        <time>2016-03-30T08:57:09Z</time>
      </trkpt>
      <trkpt lat="45.20783" lon="6.41731">
        <ele>1759.729952733</ele>
        <time>2016-03-30T08:57:20Z</time>
      </trkpt>
      <trkpt lat="45.2078" lon="6.41724">
        <ele>1759.729952733</ele>
        <time>2016-03-30T08:57:25Z</time>
      </trkpt>
      <trkpt lat="45.2077" lon="6.41706">
        <ele>1759.895663723</ele>
        <time>2016-03-30T08:57:39Z</time>
      </trkpt>
      <trkpt lat="45.20767" lon="6.41701">
        <ele>1759.895663723</ele>
        <time>2016-03-30T08:57:44Z</time>
      </trkpt>
      <trkpt lat="45.20756" lon="6.41687">
        <ele>1759.215905089</ele>
        <time>2016-03-30T08:57:54Z</time>
      </trkpt>
      <trkpt lat="45.20754" lon="6.41683">
        <ele>1759.215905089</ele>
        <time>2016-03-30T08:57:59Z</time>
      </trkpt>
      <trkpt lat="45.20749" lon="6.41676">
        <ele>1758.179692607</ele>
        <time>2016-03-30T08:58:10Z</time>
      </trkpt>
      <trkpt lat="45.20745" lon="6.41669">
        <ele>1758.179692607</ele>
        <time>2016-03-30T08:58:14Z</time>
      </trkpt>
      <trkpt lat="45.2073" lon="6.41646">
        <ele>1756.88894304</ele>
        <time>2016-03-30T08:58:39Z</time>
      </trkpt>
      <trkpt lat="45.20705" lon="6.41589">
        <ele>1756.677005876</ele>
        <time>2016-03-30T08:59:22Z</time>
      </trkpt>
      <trkpt lat="45.20697" lon="6.41569">
        <ele>1755.90715838</ele>
        <time>2016-03-30T08:59:42Z</time>
      </trkpt>
      <trkpt lat="45.20697" lon="6.41567">
        <ele>1755.90715838</ele>
        <time>2016-03-30T08:59:44Z</time>
      </trkpt>
      <trkpt lat="45.20697" lon="6.41567">
        <ele>1755.90715838</ele>
        <time>2016-03-30T08:59:45Z</time>
      </trkpt>
      <trkpt lat="45.20694" lon="6.41561">
        <ele>1755.90715838</ele>
        <time>2016-03-30T09:00:01Z</time>
      </trkpt>
      <trkpt lat="45.20694" lon="6.41559">
        <ele>1755.90715838</ele>
        <time>2016-03-30T09:00:01Z</time>
      </trkpt>
      <trkpt lat="45.20692" lon="6.41549">
        <ele>1755.276906197</ele>
        <time>2016-03-30T09:00:13Z</time>
      </trkpt>
      <trkpt lat="45.20692" lon="6.41548">
        <ele>1755.276906197</ele>
        <time>2016-03-30T09:00:14Z</time>
      </trkpt>
      <trkpt lat="45.20688" lon="6.41539">
        <ele>1755.276906197</ele>
        <time>2016-03-30T09:00:28Z</time>
      </trkpt>
      <trkpt lat="45.20681" lon="6.41499">
        <ele>1756.135856416</ele>
        <time>2016-03-30T09:01:02Z</time>
      </trkpt>
      <trkpt lat="45.2068" lon="6.41491">
        <ele>1756.135856416</ele>
        <time>2016-03-30T09:01:08Z</time>
      </trkpt>
      <trkpt lat="45.20677" lon="6.41485">
        <ele>1756.996202101</ele>
        <time>2016-03-30T09:01:19Z</time>
      </trkpt>
      <trkpt lat="45.20677" lon="6.41482">
        <ele>1756.996202101</ele>
        <time>2016-03-30T09:01:24Z</time>
      </trkpt>
      <trkpt lat="45.20677" lon="6.41468">
        <ele>1757.424398738</ele>
        <time>2016-03-30T09:01:35Z</time>
      </trkpt>
      <trkpt lat="45.20677" lon="6.41467">
        <ele>1757.424398738</ele>
        <time>2016-03-30T09:01:39Z</time>
      </trkpt>
      <trkpt lat="45.20679" lon="6.41461">
        <ele>1757.424398738</ele>
        <time>2016-03-30T09:01:49Z</time>
      </trkpt>
      <trkpt lat="45.2068" lon="6.41454">
        <ele>1758.186965238</ele>
        <time>2016-03-30T09:01:54Z</time>
      </trkpt>
      <trkpt lat="45.20683" lon="6.41434">
        <ele>1758.821581922</ele>
        <time>2016-03-30T09:02:05Z</time>
      </trkpt>
      <trkpt lat="45.20682" lon="6.41429">
        <ele>1758.821581922</ele>
        <time>2016-03-30T09:02:09Z</time>
      </trkpt>
      <trkpt lat="45.20674" lon="6.41419">
        <ele>1759.196833215</ele>
        <time>2016-03-30T09:02:19Z</time>
      </trkpt>
      <trkpt lat="45.20624" lon="6.41398">
        <ele>1759.893760796</ele>
        <time>2016-03-30T09:03:14Z</time>
      </trkpt>
      <trkpt lat="45.2061" lon="6.41403">
        <ele>1760.601869789</ele>
        <time>2016-03-30T09:03:29Z</time>
      </trkpt>
      <trkpt lat="45.20595" lon="6.41396">
        <ele>1761.872834963</ele>
        <time>2016-03-30T09:03:45Z</time>
      </trkpt>
      <trkpt lat="45.20593" lon="6.41395">
        <ele>1761.872834963</ele>
        <time>2016-03-30T09:03:48Z</time>
      </trkpt>
      <trkpt lat="45.20581" lon="6.41396">
        <ele>1763.244277442</ele>
        <time>2016-03-30T09:03:59Z</time>
      </trkpt>
      <trkpt lat="45.20578" lon="6.41393">
        <ele>1763.244277442</ele>
        <time>2016-03-30T09:04:04Z</time>
      </trkpt>
      <trkpt lat="45.20571" lon="6.41389">
        <ele>1764.984866669</ele>
        <time>2016-03-30T09:04:15Z</time>
      </trkpt>
      <trkpt lat="45.20568" lon="6.41387">
        <ele>1764.984866669</ele>
        <time>2016-03-30T09:04:19Z</time>
      </trkpt>
      <trkpt lat="45.20555" lon="6.41373">
        <ele>1766.373138172</ele>
        <time>2016-03-30T09:04:36Z</time>
      </trkpt>
      <trkpt lat="45.20553" lon="6.41371">
        <ele>1766.373138172</ele>
        <time>2016-03-30T09:04:37Z</time>
      </trkpt>
      <trkpt lat="45.20531" lon="6.41363">
        <ele>1767.990703862</ele>
        <time>2016-03-30T09:05:02Z</time>
      </trkpt>
      <trkpt lat="45.20528" lon="6.41362">
        <ele>1767.990703862</ele>
        <time>2016-03-30T09:05:04Z</time>
      </trkpt>
      <trkpt lat="45.20527" lon="6.41361">
        <ele>1767.990703862</ele>
        <time>2016-03-30T09:05:05Z</time>
      </trkpt>
      <trkpt lat="45.20526" lon="6.41361">
        <ele>1767.990703862</ele>
        <time>2016-03-30T09:05:06Z</time>
      </trkpt>
      <trkpt lat="45.20525" lon="6.41361">
        <ele>1767.990703862</ele>
        <time>2016-03-30T09:05:07Z</time>
      </trkpt>
      <trkpt lat="45.2051" lon="6.41359">
        <ele>1769.684606952</ele>
        <time>2016-03-30T09:05:25Z</time>
      </trkpt>
      <trkpt lat="45.20502" lon="6.41356">
        <ele>1769.684606952</ele>
        <time>2016-03-30T09:05:34Z</time>
      </trkpt>
      <trkpt lat="45.205" lon="6.41354">
        <ele>1770.888924846</ele>
        <time>2016-03-30T09:05:39Z</time>
      </trkpt>
      <trkpt lat="45.20486" lon="6.41351">
        <ele>1771.778130824</ele>
        <time>2016-03-30T09:05:54Z</time>
      </trkpt>
      <trkpt lat="45.20485" lon="6.41353">
        <ele>1771.778130824</ele>
        <time>2016-03-30T09:05:59Z</time>
      </trkpt>
      <trkpt lat="45.20479" lon="6.41349">
        <ele>1771.778130824</ele>
        <time>2016-03-30T09:06:10Z</time>
      </trkpt>
      <trkpt lat="45.20479" lon="6.41349">
        <ele>1772.519112921</ele>
        <time>2016-03-30T09:06:14Z</time>
      </trkpt>
      <trkpt lat="45.20477" lon="6.4135">
        <ele>1772.519112921</ele>
        <time>2016-03-30T09:06:25Z</time>
      </trkpt>
      <trkpt lat="45.20478" lon="6.4135">
        <ele>1772.519112921</ele>
        <time>2016-03-30T09:06:28Z</time>
      </trkpt>
      <trkpt lat="45.20478" lon="6.4135">
        <ele>1772.519112921</ele>
        <time>2016-03-30T09:06:39Z</time>
      </trkpt>
      <trkpt lat="45.20478" lon="6.4135">
        <ele>1772.519112921</ele>
        <time>2016-03-30T09:06:45Z</time>
      </trkpt>
      <trkpt lat="45.20478" lon="6.4135">
        <ele>1772.519112921</ele>
        <time>2016-03-30T09:06:54Z</time>
      </trkpt>
      <trkpt lat="45.20478" lon="6.4135">
        <ele>1772.519112921</ele>
        <time>2016-03-30T09:06:59Z</time>
      </trkpt>
      <trkpt lat="45.20478" lon="6.4135">
        <ele>1772.519112921</ele>
        <time>2016-03-30T09:07:09Z</time>
      </trkpt>
      <trkpt lat="45.20478" lon="6.4135">
        <ele>1772.519112921</ele>
        <time>2016-03-30T09:07:15Z</time>
      </trkpt>
      <trkpt lat="45.20469" lon="6.41351">
        <ele>1772.696738852</ele>
        <time>2016-03-30T09:07:24Z</time>
      </trkpt>
      <trkpt lat="45.20468" lon="6.41351">
        <ele>1772.696738852</ele>
        <time>2016-03-30T09:07:29Z</time>
      </trkpt>
      <trkpt lat="45.20467" lon="6.41354">
        <ele>1772.696738852</ele>
        <time>2016-03-30T09:07:39Z</time>
      </trkpt>
      <trkpt lat="45.20471" lon="6.41352">
        <ele>1772.696738852</ele>
        <time>2016-03-30T09:07:45Z</time>
      </trkpt>
      <trkpt lat="45.20471" lon="6.41348">
        <ele>1773.80054018</ele>
        <time>2016-03-30T09:07:54Z</time>
      </trkpt>
      <trkpt lat="45.20471" lon="6.41348">
        <ele>1773.80054018</ele>
        <time>2016-03-30T09:07:59Z</time>
      </trkpt>
      <trkpt lat="45.20471" lon="6.41347">
        <ele>1773.80054018</ele>
        <time>2016-03-30T09:08:09Z</time>
      </trkpt>
      <trkpt lat="45.20471" lon="6.41347">
        <ele>1773.80054018</ele>
        <time>2016-03-30T09:08:14Z</time>
      </trkpt>
      <trkpt lat="45.20471" lon="6.41347">
        <ele>1773.80054018</ele>
        <time>2016-03-30T09:08:30Z</time>
      </trkpt>
      <trkpt lat="45.20472" lon="6.41345">
        <ele>1773.80054018</ele>
        <time>2016-03-30T09:08:34Z</time>
      </trkpt>
      <trkpt lat="45.20474" lon="6.41342">
        <ele>1773.80054018</ele>
        <time>2016-03-30T09:08:44Z</time>
      </trkpt>
      <trkpt lat="45.20475" lon="6.41342">
        <ele>1773.80054018</ele>
        <time>2016-03-30T09:08:49Z</time>
      </trkpt>
      <trkpt lat="45.20475" lon="6.41342">
        <ele>1773.80054018</ele>
        <time>2016-03-30T09:09:00Z</time>
      </trkpt>
      <trkpt lat="45.20474" lon="6.41343">
        <ele>1773.80054018</ele>
        <time>2016-03-30T09:09:04Z</time>
      </trkpt>
      <trkpt lat="45.20471" lon="6.41336">
        <ele>1774.619737426</ele>
        <time>2016-03-30T09:09:14Z</time>
      </trkpt>
      <trkpt lat="45.20467" lon="6.41331">
        <ele>1774.619737426</ele>
        <time>2016-03-30T09:09:19Z</time>
      </trkpt>
      <trkpt lat="45.20463" lon="6.4133">
        <ele>1774.886419324</ele>
        <time>2016-03-30T09:09:30Z</time>
      </trkpt>
      <trkpt lat="45.20463" lon="6.41329">
        <ele>1774.886419324</ele>
        <time>2016-03-30T09:09:34Z</time>
      </trkpt>
      <trkpt lat="45.20457" lon="6.41321">
        <ele>1774.886419324</ele>
        <time>2016-03-30T09:09:45Z</time>
      </trkpt>
      <trkpt lat="45.2045" lon="6.41315">
        <ele>1774.939768016</ele>
        <time>2016-03-30T09:09:49Z</time>
      </trkpt>
      <trkpt lat="45.20443" lon="6.41308">
        <ele>1774.939768016</ele>
        <time>2016-03-30T09:10:00Z</time>
      </trkpt>
      <trkpt lat="45.20441" lon="6.41306">
        <ele>1775.546508873</ele>
        <time>2016-03-30T09:10:04Z</time>
      </trkpt>
      <trkpt lat="45.20431" lon="6.41286">
        <ele>1776.532163955</ele>
        <time>2016-03-30T09:10:24Z</time>
      </trkpt>
      <trkpt lat="45.20417" lon="6.41261">
        <ele>1778.62714331</ele>
        <time>2016-03-30T09:10:53Z</time>
      </trkpt>
      <trkpt lat="45.20414" lon="6.4126">
        <ele>1778.62714331</ele>
        <time>2016-03-30T09:11:05Z</time>
      </trkpt>
      <trkpt lat="45.20414" lon="6.4126">
        <ele>1778.62714331</ele>
        <time>2016-03-30T09:11:05Z</time>
      </trkpt>
      <trkpt lat="45.20402" lon="6.41246">
        <ele>1780.858310439</ele>
        <time>2016-03-30T09:11:19Z</time>
      </trkpt>
      <trkpt lat="45.20392" lon="6.41237">
        <ele>1783.818724036</ele>
        <time>2016-03-30T09:11:34Z</time>
      </trkpt>
      <trkpt lat="45.20386" lon="6.41227">
        <ele>1786.398899355</ele>
        <time>2016-03-30T09:11:59Z</time>
      </trkpt>
      <trkpt lat="45.20372" lon="6.41211">
        <ele>1789.530836452</ele>
        <time>2016-03-30T09:12:25Z</time>
      </trkpt>
      <trkpt lat="45.20372" lon="6.41211">
        <ele>1789.530836452</ele>
        <time>2016-03-30T09:12:26Z</time>
      </trkpt>
      <trkpt lat="45.20372" lon="6.41211">
        <ele>1789.530836452</ele>
        <time>2016-03-30T09:12:27Z</time>
      </trkpt>
      <trkpt lat="45.20372" lon="6.41211">
        <ele>1789.530836452</ele>
        <time>2016-03-30T09:12:28Z</time>
      </trkpt>
      <trkpt lat="45.20372" lon="6.41211">
        <ele>1789.530836452</ele>
        <time>2016-03-30T09:12:31Z</time>
      </trkpt>
      <trkpt lat="45.20363" lon="6.41205">
        <ele>1792.717168202</ele>
        <time>2016-03-30T09:12:40Z</time>
      </trkpt>
      <trkpt lat="45.20363" lon="6.41201">
        <ele>1792.717168202</ele>
        <time>2016-03-30T09:12:59Z</time>
      </trkpt>
      <trkpt lat="45.20367" lon="6.41202">
        <ele>1792.717168202</ele>
        <time>2016-03-30T09:13:05Z</time>
      </trkpt>
      <trkpt lat="45.20375" lon="6.412">
        <ele>1796.403229602</ele>
        <time>2016-03-30T09:13:14Z</time>
      </trkpt>
      <trkpt lat="45.20379" lon="6.41197">
        <ele>1796.403229602</ele>
        <time>2016-03-30T09:13:19Z</time>
      </trkpt>
      <trkpt lat="45.2038" lon="6.4119">
        <ele>1800.394263503</ele>
        <time>2016-03-30T09:13:29Z</time>
      </trkpt>
      <trkpt lat="45.20375" lon="6.41187">
        <ele>1800.394263503</ele>
        <time>2016-03-30T09:13:35Z</time>
      </trkpt>
      <trkpt lat="45.20375" lon="6.41185">
        <ele>1800.394263503</ele>
        <time>2016-03-30T09:13:44Z</time>
      </trkpt>
      <trkpt lat="45.20375" lon="6.41184">
        <ele>1800.394263503</ele>
        <time>2016-03-30T09:13:49Z</time>
      </trkpt>
      <trkpt lat="45.20373" lon="6.41177">
        <ele>1804.66025596</ele>
        <time>2016-03-30T09:13:59Z</time>
      </trkpt>
      <trkpt lat="45.2037" lon="6.41171">
        <ele>1804.66025596</ele>
        <time>2016-03-30T09:14:05Z</time>
      </trkpt>
      <trkpt lat="45.20365" lon="6.41151">
        <ele>1809.022113842</ele>
        <time>2016-03-30T09:14:37Z</time>
      </trkpt>
      <trkpt lat="45.20365" lon="6.41148">
        <ele>1809.022113842</ele>
        <time>2016-03-30T09:14:38Z</time>
      </trkpt>
      <trkpt lat="45.20363" lon="6.41142">
        <ele>1809.022113842</ele>
        <time>2016-03-30T09:14:42Z</time>
      </trkpt>
      <trkpt lat="45.20356" lon="6.4113">
        <ele>1813.615759623</ele>
        <time>2016-03-30T09:15:14Z</time>
      </trkpt>
      <trkpt lat="45.20356" lon="6.4113">
        <ele>1813.615759623</ele>
        <time>2016-03-30T09:15:15Z</time>
      </trkpt>
      <trkpt lat="45.20364" lon="6.41127">
        <ele>1813.615759623</ele>
        <time>2016-03-30T09:15:31Z</time>
      </trkpt>
      <trkpt lat="45.20365" lon="6.41127">
        <ele>1819.165261976</ele>
        <time>2016-03-30T09:15:33Z</time>
      </trkpt>
      <trkpt lat="45.20365" lon="6.41127">
        <ele>1819.165261976</ele>
        <time>2016-03-30T09:15:34Z</time>
      </trkpt>
      <trkpt lat="45.2038" lon="6.41125">
        <ele>1823.936959754</ele>
        <time>2016-03-30T09:15:58Z</time>
      </trkpt>
      <trkpt lat="45.2038" lon="6.41126">
        <ele>1823.936959754</ele>
        <time>2016-03-30T09:15:58Z</time>
      </trkpt>
      <trkpt lat="45.20384" lon="6.41126">
        <ele>1823.936959754</ele>
        <time>2016-03-30T09:16:05Z</time>
      </trkpt>
      <trkpt lat="45.20385" lon="6.41128">
        <ele>1823.936959754</ele>
        <time>2016-03-30T09:16:18Z</time>
      </trkpt>
      <trkpt lat="45.20385" lon="6.41128">
        <ele>1823.936959754</ele>
        <time>2016-03-30T09:16:20Z</time>
      </trkpt>
      <trkpt lat="45.20385" lon="6.41128">
        <ele>1823.936959754</ele>
        <time>2016-03-30T09:16:21Z</time>
      </trkpt>
      <trkpt lat="45.20385" lon="6.41128">
        <ele>1823.936959754</ele>
        <time>2016-03-30T09:16:48Z</time>
      </trkpt>
      <trkpt lat="45.20385" lon="6.41128">
        <ele>1823.936959754</ele>
        <time>2016-03-30T09:16:49Z</time>
      </trkpt>
      <trkpt lat="45.20392" lon="6.41128">
        <ele>1828.286155008</ele>
        <time>2016-03-30T09:17:01Z</time>
      </trkpt>
      <trkpt lat="45.20395" lon="6.41127">
        <ele>1828.286155008</ele>
        <time>2016-03-30T09:17:04Z</time>
      </trkpt>
      <trkpt lat="45.204" lon="6.41125">
        <ele>1828.286155008</ele>
        <time>2016-03-30T09:17:09Z</time>
      </trkpt>
      <trkpt lat="45.20401" lon="6.41127">
        <ele>1832.540051515</ele>
        <time>2016-03-30T09:17:19Z</time>
      </trkpt>
      <trkpt lat="45.20404" lon="6.41124">
        <ele>1832.540051515</ele>
        <time>2016-03-30T09:17:25Z</time>
      </trkpt>
      <trkpt lat="45.20406" lon="6.41124">
        <ele>1832.540051515</ele>
        <time>2016-03-30T09:17:35Z</time>
      </trkpt>
      <trkpt lat="45.20407" lon="6.41124">
        <ele>1832.540051515</ele>
        <time>2016-03-30T09:17:39Z</time>
      </trkpt>
      <trkpt lat="45.20408" lon="6.41124">
        <ele>1832.540051515</ele>
        <time>2016-03-30T09:17:49Z</time>
      </trkpt>
      <trkpt lat="45.20417" lon="6.41121">
        <ele>1836.850271738</ele>
        <time>2016-03-30T09:17:55Z</time>
      </trkpt>
      <trkpt lat="45.20428" lon="6.41121">
        <ele>1840.614713587</ele>
        <time>2016-03-30T09:18:04Z</time>
      </trkpt>
      <trkpt lat="45.20434" lon="6.41124">
        <ele>1840.614713587</ele>
        <time>2016-03-30T09:18:09Z</time>
      </trkpt>
      <trkpt lat="45.20435" lon="6.41126">
        <ele>1840.614713587</ele>
        <time>2016-03-30T09:18:26Z</time>
      </trkpt>
      <trkpt lat="45.20435" lon="6.41126">
        <ele>1840.614713587</ele>
        <time>2016-03-30T09:18:42Z</time>
      </trkpt>
      <trkpt lat="45.20435" lon="6.41126">
        <ele>1840.614713587</ele>
        <time>2016-03-30T09:18:52Z</time>
      </trkpt>
      <trkpt lat="45.20435" lon="6.41126">
        <ele>1840.614713587</ele>
        <time>2016-03-30T09:18:57Z</time>
      </trkpt>
      <trkpt lat="45.20435" lon="6.41126">
        <ele>1840.614713587</ele>
        <time>2016-03-30T09:19:06Z</time>
      </trkpt>
      <trkpt lat="45.20435" lon="6.41126">
        <ele>1840.614713587</ele>
        <time>2016-03-30T09:19:08Z</time>
      </trkpt>
      <trkpt lat="45.20435" lon="6.41126">
        <ele>1840.614713587</ele>
        <time>2016-03-30T09:19:10Z</time>
      </trkpt>
      <trkpt lat="45.20436" lon="6.41126">
        <ele>1840.614713587</ele>
        <time>2016-03-30T09:19:26Z</time>
      </trkpt>
      <trkpt lat="45.20436" lon="6.41126">
        <ele>1840.614713587</ele>
        <time>2016-03-30T09:19:27Z</time>
      </trkpt>
      <trkpt lat="45.20436" lon="6.41126">
        <ele>1840.614713587</ele>
        <time>2016-03-30T09:19:29Z</time>
      </trkpt>
      <trkpt lat="45.20438" lon="6.41127">
        <ele>1844.318362053</ele>
        <time>2016-03-30T09:19:57Z</time>
      </trkpt>
      <trkpt lat="45.20439" lon="6.41127">
        <ele>1844.318362053</ele>
        <time>2016-03-30T09:19:58Z</time>
      </trkpt>
      <trkpt lat="45.20504" lon="6.41113">
        <ele>1849.143112912</ele>
        <time>2016-03-30T09:21:17Z</time>
      </trkpt>
      <trkpt lat="45.20506" lon="6.41113">
        <ele>1849.143112912</ele>
        <time>2016-03-30T09:21:18Z</time>
      </trkpt>
      <trkpt lat="45.20507" lon="6.41112">
        <ele>1849.143112912</ele>
        <time>2016-03-30T09:21:19Z</time>
      </trkpt>
      <trkpt lat="45.20528" lon="6.41112">
        <ele>1854.698246008</ele>
        <time>2016-03-30T09:21:54Z</time>
      </trkpt>
      <trkpt lat="45.20531" lon="6.41107">
        <ele>1854.698246008</ele>
        <time>2016-03-30T09:22:04Z</time>
      </trkpt>
      <trkpt lat="45.20535" lon="6.41105">
        <ele>1859.743226087</ele>
        <time>2016-03-30T09:22:10Z</time>
      </trkpt>
      <trkpt lat="45.20538" lon="6.41109">
        <ele>1859.743226087</ele>
        <time>2016-03-30T09:22:20Z</time>
      </trkpt>
      <trkpt lat="45.2054" lon="6.41108">
        <ele>1859.743226087</ele>
        <time>2016-03-30T09:22:24Z</time>
      </trkpt>
      <trkpt lat="45.20544" lon="6.41111">
        <ele>1864.752539232</ele>
        <time>2016-03-30T09:22:35Z</time>
      </trkpt>
      <trkpt lat="45.20548" lon="6.41113">
        <ele>1864.752539232</ele>
        <time>2016-03-30T09:22:39Z</time>
      </trkpt>
      <trkpt lat="45.20553" lon="6.41115">
        <ele>1869.577195955</ele>
        <time>2016-03-30T09:22:50Z</time>
      </trkpt>
      <trkpt lat="45.20557" lon="6.41114">
        <ele>1869.577195955</ele>
        <time>2016-03-30T09:22:54Z</time>
      </trkpt>
      <trkpt lat="45.20566" lon="6.41087">
        <ele>1874.810373996</ele>
        <time>2016-03-30T09:23:43Z</time>
      </trkpt>
      <trkpt lat="45.20566" lon="6.41087">
        <ele>1874.810373996</ele>
        <time>2016-03-30T09:23:44Z</time>
      </trkpt>
      <trkpt lat="45.20566" lon="6.41087">
        <ele>1874.810373996</ele>
        <time>2016-03-30T09:23:45Z</time>
      </trkpt>
      <trkpt lat="45.20566" lon="6.41087">
        <ele>1874.810373996</ele>
        <time>2016-03-30T09:23:59Z</time>
      </trkpt>
      <trkpt lat="45.20569" lon="6.41073">
        <ele>1879.539968707</ele>
        <time>2016-03-30T09:24:14Z</time>
      </trkpt>
      <trkpt lat="45.2057" lon="6.4107">
        <ele>1879.539968707</ele>
        <time>2016-03-30T09:24:19Z</time>
      </trkpt>
      <trkpt lat="45.20571" lon="6.41064">
        <ele>1879.539968707</ele>
        <time>2016-03-30T09:24:30Z</time>
      </trkpt>
      <trkpt lat="45.20572" lon="6.4106">
        <ele>1883.36452728</ele>
        <time>2016-03-30T09:24:34Z</time>
      </trkpt>
      <trkpt lat="45.20574" lon="6.41054">
        <ele>1883.36452728</ele>
        <time>2016-03-30T09:24:44Z</time>
      </trkpt>
      <trkpt lat="45.20575" lon="6.41052">
        <ele>1883.36452728</ele>
        <time>2016-03-30T09:24:49Z</time>
      </trkpt>
      <trkpt lat="45.2058" lon="6.41055">
        <ele>1887.949635773</ele>
        <time>2016-03-30T09:24:59Z</time>
      </trkpt>
      <trkpt lat="45.20586" lon="6.41054">
        <ele>1887.949635773</ele>
        <time>2016-03-30T09:25:04Z</time>
      </trkpt>
      <trkpt lat="45.20595" lon="6.41053">
        <ele>1892.652259565</ele>
        <time>2016-03-30T09:25:14Z</time>
      </trkpt>
      <trkpt lat="45.20594" lon="6.41052">
        <ele>1892.652259565</ele>
        <time>2016-03-30T09:25:19Z</time>
      </trkpt>
      <trkpt lat="45.20592" lon="6.41043">
        <ele>1892.652259565</ele>
        <time>2016-03-30T09:25:29Z</time>
      </trkpt>
      <trkpt lat="45.2059" lon="6.41028">
        <ele>1897.604014833</ele>
        <time>2016-03-30T09:25:46Z</time>
      </trkpt>
      <trkpt lat="45.20586" lon="6.41026">
        <ele>1897.604014833</ele>
        <time>2016-03-30T09:25:52Z</time>
      </trkpt>
      <trkpt lat="45.20576" lon="6.41008">
        <ele>1902.202179203</ele>
        <time>2016-03-30T09:26:17Z</time>
      </trkpt>
      <trkpt lat="45.20576" lon="6.41008">
        <ele>1902.202179203</ele>
        <time>2016-03-30T09:26:18Z</time>
      </trkpt>
      <trkpt lat="45.20576" lon="6.41008">
        <ele>1902.202179203</ele>
        <time>2016-03-30T09:26:19Z</time>
      </trkpt>
      <trkpt lat="45.2057" lon="6.41">
        <ele>1902.202179203</ele>
        <time>2016-03-30T09:26:33Z</time>
      </trkpt>
      <trkpt lat="45.2057" lon="6.41">
        <ele>1902.202179203</ele>
        <time>2016-03-30T09:26:34Z</time>
      </trkpt>
      <trkpt lat="45.20569" lon="6.40995">
        <ele>1907.192989386</ele>
        <time>2016-03-30T09:27:19Z</time>
      </trkpt>
      <trkpt lat="45.20569" lon="6.40995">
        <ele>1907.192989386</ele>
        <time>2016-03-30T09:27:19Z</time>
      </trkpt>
      <trkpt lat="45.20569" lon="6.40995">
        <ele>1907.192989386</ele>
        <time>2016-03-30T09:27:24Z</time>
      </trkpt>
      <trkpt lat="45.20569" lon="6.40996">
        <ele>1907.192989386</ele>
        <time>2016-03-30T09:27:34Z</time>
      </trkpt>
      <trkpt lat="45.20569" lon="6.40996">
        <ele>1907.192989386</ele>
        <time>2016-03-30T09:27:39Z</time>
      </trkpt>
      <trkpt lat="45.20569" lon="6.40995">
        <ele>1907.192989386</ele>
        <time>2016-03-30T09:27:55Z</time>
      </trkpt>
      <trkpt lat="45.20569" lon="6.40995">
        <ele>1907.192989386</ele>
        <time>2016-03-30T09:27:59Z</time>
      </trkpt>
      <trkpt lat="45.20569" lon="6.40995">
        <ele>1907.192989386</ele>
        <time>2016-03-30T09:28:09Z</time>
      </trkpt>
      <trkpt lat="45.20569" lon="6.40995">
        <ele>1907.192989386</ele>
        <time>2016-03-30T09:28:14Z</time>
      </trkpt>
      <trkpt lat="45.20569" lon="6.40995">
        <ele>1907.192989386</ele>
        <time>2016-03-30T09:28:24Z</time>
      </trkpt>
      <trkpt lat="45.20569" lon="6.40995">
        <ele>1907.192989386</ele>
        <time>2016-03-30T09:28:29Z</time>
      </trkpt>
      <trkpt lat="45.20569" lon="6.40995">
        <ele>1907.192989386</ele>
        <time>2016-03-30T09:28:40Z</time>
      </trkpt>
      <trkpt lat="45.20569" lon="6.40995">
        <ele>1907.192989386</ele>
        <time>2016-03-30T09:28:45Z</time>
      </trkpt>
      <trkpt lat="45.20569" lon="6.40995">
        <ele>1907.192989386</ele>
        <time>2016-03-30T09:28:54Z</time>
      </trkpt>
      <trkpt lat="45.20569" lon="6.40995">
        <ele>1907.192989386</ele>
        <time>2016-03-30T09:28:59Z</time>
      </trkpt>
      <trkpt lat="45.20569" lon="6.40995">
        <ele>1907.192989386</ele>
        <time>2016-03-30T09:29:09Z</time>
      </trkpt>
      <trkpt lat="45.20569" lon="6.40995">
        <ele>1907.192989386</ele>
        <time>2016-03-30T09:29:14Z</time>
      </trkpt>
      <trkpt lat="45.20569" lon="6.40995">
        <ele>1907.192989386</ele>
        <time>2016-03-30T09:29:24Z</time>
      </trkpt>
      <trkpt lat="45.20569" lon="6.40995">
        <ele>1907.192989386</ele>
        <time>2016-03-30T09:29:29Z</time>
      </trkpt>
      <trkpt lat="45.20569" lon="6.40994">
        <ele>1907.192989386</ele>
        <time>2016-03-30T09:29:39Z</time>
      </trkpt>
      <trkpt lat="45.20569" lon="6.40994">
        <ele>1907.192989386</ele>
        <time>2016-03-30T09:29:44Z</time>
      </trkpt>
      <trkpt lat="45.20569" lon="6.40994">
        <ele>1907.192989386</ele>
        <time>2016-03-30T09:29:54Z</time>
      </trkpt>
      <trkpt lat="45.20571" lon="6.40993">
        <ele>1907.192989386</ele>
        <time>2016-03-30T09:29:59Z</time>
      </trkpt>
      <trkpt lat="45.20573" lon="6.4098">
        <ele>1911.67506026</ele>
        <time>2016-03-30T09:30:09Z</time>
      </trkpt>
      <trkpt lat="45.20577" lon="6.40978">
        <ele>1911.67506026</ele>
        <time>2016-03-30T09:30:14Z</time>
      </trkpt>
      <trkpt lat="45.20582" lon="6.40976">
        <ele>1916.261240268</ele>
        <time>2016-03-30T09:30:25Z</time>
      </trkpt>
      <trkpt lat="45.20586" lon="6.40974">
        <ele>1916.261240268</ele>
        <time>2016-03-30T09:30:29Z</time>
      </trkpt>
      <trkpt lat="45.20594" lon="6.40966">
        <ele>1921.084773538</ele>
        <time>2016-03-30T09:30:44Z</time>
      </trkpt>
      <trkpt lat="45.20596" lon="6.40964">
        <ele>1921.084773538</ele>
        <time>2016-03-30T09:30:49Z</time>
      </trkpt>
      <trkpt lat="45.20604" lon="6.40957">
        <ele>1925.402633074</ele>
        <time>2016-03-30T09:31:04Z</time>
      </trkpt>
      <trkpt lat="45.20617" lon="6.40948">
        <ele>1928.961626156</ele>
        <time>2016-03-30T09:31:31Z</time>
      </trkpt>
      <trkpt lat="45.20617" lon="6.40949">
        <ele>1928.961626156</ele>
        <time>2016-03-30T09:31:34Z</time>
      </trkpt>
      <trkpt lat="45.20621" lon="6.40944">
        <ele>1928.961626156</ele>
        <time>2016-03-30T09:31:49Z</time>
      </trkpt>
      <trkpt lat="45.20624" lon="6.40939">
        <ele>1932.539051608</ele>
        <time>2016-03-30T09:31:55Z</time>
      </trkpt>
      <trkpt lat="45.20627" lon="6.40934">
        <ele>1932.539051608</ele>
        <time>2016-03-30T09:32:04Z</time>
      </trkpt>
      <trkpt lat="45.20628" lon="6.40929">
        <ele>1932.539051608</ele>
        <time>2016-03-30T09:32:09Z</time>
      </trkpt>
      <trkpt lat="45.20625" lon="6.40925">
        <ele>1936.421909549</ele>
        <time>2016-03-30T09:32:20Z</time>
      </trkpt>
      <trkpt lat="45.20625" lon="6.40925">
        <ele>1936.421909549</ele>
        <time>2016-03-30T09:32:25Z</time>
      </trkpt>
      <trkpt lat="45.20622" lon="6.40921">
        <ele>1936.421909549</ele>
        <time>2016-03-30T09:32:35Z</time>
      </trkpt>
      <trkpt lat="45.20621" lon="6.40921">
        <ele>1936.421909549</ele>
        <time>2016-03-30T09:32:39Z</time>
      </trkpt>
      <trkpt lat="45.2062" lon="6.4092">
        <ele>1936.421909549</ele>
        <time>2016-03-30T09:32:50Z</time>
      </trkpt>
      <trkpt lat="45.2062" lon="6.4092">
        <ele>1936.421909549</ele>
        <time>2016-03-30T09:32:54Z</time>
      </trkpt>
      <trkpt lat="45.20614" lon="6.40912">
        <ele>1940.298548079</ele>
        <time>2016-03-30T09:33:05Z</time>
      </trkpt>
      <trkpt lat="45.20613" lon="6.40909">
        <ele>1940.298548079</ele>
        <time>2016-03-30T09:33:10Z</time>
      </trkpt>
      <trkpt lat="45.2061" lon="6.40907">
        <ele>1940.298548079</ele>
        <time>2016-03-30T09:33:19Z</time>
      </trkpt>
      <trkpt lat="45.20609" lon="6.40907">
        <ele>1940.298548079</ele>
        <time>2016-03-30T09:33:24Z</time>
      </trkpt>
      <trkpt lat="45.20594" lon="6.40894">
        <ele>1944.168858816</ele>
        <time>2016-03-30T09:33:40Z</time>
      </trkpt>
      <trkpt lat="45.20591" lon="6.40892">
        <ele>1944.168858816</ele>
        <time>2016-03-30T09:33:44Z</time>
      </trkpt>
      <trkpt lat="45.20586" lon="6.40882">
        <ele>1948.032882441</ele>
        <time>2016-03-30T09:33:54Z</time>
      </trkpt>
      <trkpt lat="45.20585" lon="6.40875">
        <ele>1948.032882441</ele>
        <time>2016-03-30T09:33:59Z</time>
      </trkpt>
      <trkpt lat="45.20579" lon="6.40871">
        <ele>1951.458259561</ele>
        <time>2016-03-30T09:34:10Z</time>
      </trkpt>
      <trkpt lat="45.20578" lon="6.40869">
        <ele>1951.458259561</ele>
        <time>2016-03-30T09:34:15Z</time>
      </trkpt>
      <trkpt lat="45.20573" lon="6.40867">
        <ele>1951.458259561</ele>
        <time>2016-03-30T09:34:24Z</time>
      </trkpt>
      <trkpt lat="45.20573" lon="6.40843">
        <ele>1954.478245887</ele>
        <time>2016-03-30T09:34:41Z</time>
      </trkpt>
      <trkpt lat="45.20554" lon="6.40803">
        <ele>1958.27835928</ele>
        <time>2016-03-30T09:35:08Z</time>
      </trkpt>
      <trkpt lat="45.20547" lon="6.40793">
        <ele>1961.792160165</ele>
        <time>2016-03-30T09:35:18Z</time>
      </trkpt>
      <trkpt lat="45.20541" lon="6.40777">
        <ele>1964.609094969</ele>
        <time>2016-03-30T09:35:42Z</time>
      </trkpt>
      <trkpt lat="45.2051" lon="6.40753">
        <ele>1967.648625377</ele>
        <time>2016-03-30T09:36:12Z</time>
      </trkpt>
      <trkpt lat="45.20509" lon="6.40752">
        <ele>1967.648625377</ele>
        <time>2016-03-30T09:36:13Z</time>
      </trkpt>
      <trkpt lat="45.20501" lon="6.40748">
        <ele>1969.598945566</ele>
        <time>2016-03-30T09:36:19Z</time>
      </trkpt>
      <trkpt lat="45.20466" lon="6.40745">
        <ele>1971.266719885</ele>
        <time>2016-03-30T09:36:52Z</time>
      </trkpt>
      <trkpt lat="45.20463" lon="6.40745">
        <ele>1971.266719885</ele>
        <time>2016-03-30T09:36:55Z</time>
      </trkpt>
      <trkpt lat="45.20451" lon="6.40737">
        <ele>1972.67910792</ele>
        <time>2016-03-30T09:37:19Z</time>
      </trkpt>
      <trkpt lat="45.20445" lon="6.40733">
        <ele>1972.67910792</ele>
        <time>2016-03-30T09:37:25Z</time>
      </trkpt>
      <trkpt lat="45.20438" lon="6.40724">
        <ele>1973.86199773</ele>
        <time>2016-03-30T09:37:35Z</time>
      </trkpt>
      <trkpt lat="45.20435" lon="6.40721">
        <ele>1973.86199773</ele>
        <time>2016-03-30T09:37:39Z</time>
      </trkpt>
      <trkpt lat="45.20427" lon="6.40716">
        <ele>1974.840001731</ele>
        <time>2016-03-30T09:37:49Z</time>
      </trkpt>
      <trkpt lat="45.20423" lon="6.40713">
        <ele>1974.840001731</ele>
        <time>2016-03-30T09:37:54Z</time>
      </trkpt>
      <trkpt lat="45.20421" lon="6.40711">
        <ele>1974.840001731</ele>
        <time>2016-03-30T09:37:59Z</time>
      </trkpt>
      <trkpt lat="45.20417" lon="6.40706">
        <ele>1975.780699368</ele>
        <time>2016-03-30T09:38:05Z</time>
      </trkpt>
      <trkpt lat="45.20415" lon="6.40704">
        <ele>1975.780699368</ele>
        <time>2016-03-30T09:38:10Z</time>
      </trkpt>
      <trkpt lat="45.20407" lon="6.407">
        <ele>1976.695145484</ele>
        <time>2016-03-30T09:38:24Z</time>
      </trkpt>
      <trkpt lat="45.20391" lon="6.40685">
        <ele>1978.747509745</ele>
        <time>2016-03-30T09:39:01Z</time>
      </trkpt>
      <trkpt lat="45.20385" lon="6.40679">
        <ele>1978.747509745</ele>
        <time>2016-03-30T09:39:13Z</time>
      </trkpt>
      <trkpt lat="45.20381" lon="6.40676">
        <ele>1980.993625859</ele>
        <time>2016-03-30T09:39:24Z</time>
      </trkpt>
      <trkpt lat="45.2038" lon="6.40675">
        <ele>1980.993625859</ele>
        <time>2016-03-30T09:39:29Z</time>
      </trkpt>
      <trkpt lat="45.20376" lon="6.40671">
        <ele>1980.993625859</ele>
        <time>2016-03-30T09:39:40Z</time>
      </trkpt>
      <trkpt lat="45.20375" lon="6.4067">
        <ele>1980.993625859</ele>
        <time>2016-03-30T09:39:44Z</time>
      </trkpt>
      <trkpt lat="45.20372" lon="6.40663">
        <ele>1982.846591124</ele>
        <time>2016-03-30T09:39:55Z</time>
      </trkpt>
      <trkpt lat="45.20369" lon="6.40661">
        <ele>1982.846591124</ele>
        <time>2016-03-30T09:39:59Z</time>
      </trkpt>
      <trkpt lat="45.20366" lon="6.40659">
        <ele>1982.846591124</ele>
        <time>2016-03-30T09:40:04Z</time>
      </trkpt>
      <trkpt lat="45.20363" lon="6.40651">
        <ele>1985.206030864</ele>
        <time>2016-03-30T09:40:14Z</time>
      </trkpt>
      <trkpt lat="45.20362" lon="6.4065">
        <ele>1985.206030864</ele>
        <time>2016-03-30T09:40:20Z</time>
      </trkpt>
      <trkpt lat="45.20358" lon="6.40647">
        <ele>1985.206030864</ele>
        <time>2016-03-30T09:40:30Z</time>
      </trkpt>
      <trkpt lat="45.20356" lon="6.40645">
        <ele>1985.206030864</ele>
        <time>2016-03-30T09:40:43Z</time>
      </trkpt>
      <trkpt lat="45.20356" lon="6.40644">
        <ele>1985.206030864</ele>
        <time>2016-03-30T09:40:45Z</time>
      </trkpt>
      <trkpt lat="45.20355" lon="6.40645">
        <ele>1987.317259301</ele>
        <time>2016-03-30T09:40:59Z</time>
      </trkpt>
      <trkpt lat="45.20355" lon="6.40645">
        <ele>1987.317259301</ele>
        <time>2016-03-30T09:41:01Z</time>
      </trkpt>
      <trkpt lat="45.20355" lon="6.40645">
        <ele>1987.317259301</ele>
        <time>2016-03-30T09:41:02Z</time>
      </trkpt>
      <trkpt lat="45.20355" lon="6.40645">
        <ele>1987.317259301</ele>
        <time>2016-03-30T09:41:23Z</time>
      </trkpt>
      <trkpt lat="45.20355" lon="6.40645">
        <ele>1987.317259301</ele>
        <time>2016-03-30T09:41:30Z</time>
      </trkpt>
      <trkpt lat="45.20355" lon="6.40645">
        <ele>1987.317259301</ele>
        <time>2016-03-30T09:41:34Z</time>
      </trkpt>
      <trkpt lat="45.20355" lon="6.40645">
        <ele>1987.317259301</ele>
        <time>2016-03-30T09:41:50Z</time>
      </trkpt>
      <trkpt lat="45.20355" lon="6.40645">
        <ele>1987.317259301</ele>
        <time>2016-03-30T09:41:54Z</time>
      </trkpt>
      <trkpt lat="45.20355" lon="6.40644">
        <ele>1987.317259301</ele>
        <time>2016-03-30T09:42:04Z</time>
      </trkpt>
      <trkpt lat="45.20355" lon="6.40644">
        <ele>1987.317259301</ele>
        <time>2016-03-30T09:42:09Z</time>
      </trkpt>
      <trkpt lat="45.20355" lon="6.40644">
        <ele>1987.317259301</ele>
        <time>2016-03-30T09:42:19Z</time>
      </trkpt>
      <trkpt lat="45.20355" lon="6.40644">
        <ele>1987.317259301</ele>
        <time>2016-03-30T09:42:24Z</time>
      </trkpt>
      <trkpt lat="45.20354" lon="6.40643">
        <ele>1987.317259301</ele>
        <time>2016-03-30T09:42:34Z</time>
      </trkpt>
      <trkpt lat="45.20354" lon="6.40643">
        <ele>1987.317259301</ele>
        <time>2016-03-30T09:42:38Z</time>
      </trkpt>
      <trkpt lat="45.20354" lon="6.40643">
        <ele>1987.317259301</ele>
        <time>2016-03-30T09:42:43Z</time>
      </trkpt>
      <trkpt lat="45.20354" lon="6.40643">
        <ele>1987.317259301</ele>
        <time>2016-03-30T09:42:48Z</time>
      </trkpt>
      <trkpt lat="45.20353" lon="6.40643">
        <ele>1987.317259301</ele>
        <time>2016-03-30T09:42:53Z</time>
      </trkpt>
      <trkpt lat="45.20353" lon="6.40643">
        <ele>1987.317259301</ele>
        <time>2016-03-30T09:43:03Z</time>
      </trkpt>
      <trkpt lat="45.20353" lon="6.40643">
        <ele>1987.317259301</ele>
        <time>2016-03-30T09:43:08Z</time>
      </trkpt>
      <trkpt lat="45.20353" lon="6.40643">
        <ele>1987.317259301</ele>
        <time>2016-03-30T09:43:18Z</time>
      </trkpt>
      <trkpt lat="45.20353" lon="6.40643">
        <ele>1987.317259301</ele>
        <time>2016-03-30T09:43:23Z</time>
      </trkpt>
      <trkpt lat="45.20353" lon="6.40643">
        <ele>1987.317259301</ele>
        <time>2016-03-30T09:43:38Z</time>
      </trkpt>
      <trkpt lat="45.20353" lon="6.40643">
        <ele>1987.317259301</ele>
        <time>2016-03-30T09:43:43Z</time>
      </trkpt>
      <trkpt lat="45.20353" lon="6.40642">
        <ele>1987.317259301</ele>
        <time>2016-03-30T09:43:48Z</time>
      </trkpt>
      <trkpt lat="45.20351" lon="6.40636">
        <ele>1987.317259301</ele>
        <time>2016-03-30T09:43:58Z</time>
      </trkpt>
      <trkpt lat="45.20349" lon="6.40631">
        <ele>1989.34707506</ele>
        <time>2016-03-30T09:44:03Z</time>
      </trkpt>
      <trkpt lat="45.20343" lon="6.40624">
        <ele>1989.34707506</ele>
        <time>2016-03-30T09:44:14Z</time>
      </trkpt>
      <trkpt lat="45.20341" lon="6.4062">
        <ele>1991.017437239</ele>
        <time>2016-03-30T09:44:19Z</time>
      </trkpt>
      <trkpt lat="45.20337" lon="6.40616">
        <ele>1991.017437239</ele>
        <time>2016-03-30T09:44:30Z</time>
      </trkpt>
      <trkpt lat="45.20336" lon="6.40613">
        <ele>1991.017437239</ele>
        <time>2016-03-30T09:44:33Z</time>
      </trkpt>
      <trkpt lat="45.20329" lon="6.40602">
        <ele>1993.36955542</ele>
        <time>2016-03-30T09:44:44Z</time>
      </trkpt>
      <trkpt lat="45.20326" lon="6.40595">
        <ele>1993.36955542</ele>
        <time>2016-03-30T09:44:51Z</time>
      </trkpt>
      <trkpt lat="45.20317" lon="6.4058">
        <ele>1995.202828642</ele>
        <time>2016-03-30T09:45:06Z</time>
      </trkpt>
      <trkpt lat="45.20316" lon="6.40578">
        <ele>1995.202828642</ele>
        <time>2016-03-30T09:45:07Z</time>
      </trkpt>
      <trkpt lat="45.20312" lon="6.40574">
        <ele>1995.202828642</ele>
        <time>2016-03-30T09:45:16Z</time>
      </trkpt>
      <trkpt lat="45.20303" lon="6.40554">
        <ele>1996.992580577</ele>
        <time>2016-03-30T09:45:30Z</time>
      </trkpt>
      <trkpt lat="45.20302" lon="6.40552">
        <ele>1996.992580577</ele>
        <time>2016-03-30T09:45:32Z</time>
      </trkpt>
      <trkpt lat="45.20302" lon="6.40551">
        <ele>1996.992580577</ele>
        <time>2016-03-30T09:45:33Z</time>
      </trkpt>
      <trkpt lat="45.203" lon="6.40549">
        <ele>1996.992580577</ele>
        <time>2016-03-30T09:45:35Z</time>
      </trkpt>
      <trkpt lat="45.20281" lon="6.40516">
        <ele>1999.467470556</ele>
        <time>2016-03-30T09:46:17Z</time>
      </trkpt>
      <trkpt lat="45.2028" lon="6.40514">
        <ele>1999.467470556</ele>
        <time>2016-03-30T09:46:18Z</time>
      </trkpt>
      <trkpt lat="45.20279" lon="6.40513">
        <ele>1999.467470556</ele>
        <time>2016-03-30T09:46:19Z</time>
      </trkpt>
      <trkpt lat="45.20272" lon="6.405">
        <ele>2001.570242061</ele>
        <time>2016-03-30T09:46:37Z</time>
      </trkpt>
      <trkpt lat="45.20271" lon="6.40499">
        <ele>2001.570242061</ele>
        <time>2016-03-30T09:46:39Z</time>
      </trkpt>
      <trkpt lat="45.20244" lon="6.40455">
        <ele>2005.926769377</ele>
        <time>2016-03-30T09:47:27Z</time>
      </trkpt>
      <trkpt lat="45.20243" lon="6.40453">
        <ele>2005.926769377</ele>
        <time>2016-03-30T09:47:28Z</time>
      </trkpt>
      <trkpt lat="45.20237" lon="6.40444">
        <ele>2010.205565115</ele>
        <time>2016-03-30T09:47:39Z</time>
      </trkpt>
      <trkpt lat="45.20236" lon="6.40443">
        <ele>2010.205565115</ele>
        <time>2016-03-30T09:47:39Z</time>
      </trkpt>
      <trkpt lat="45.20231" lon="6.40422">
        <ele>2014.553526756</ele>
        <time>2016-03-30T09:47:57Z</time>
      </trkpt>
      <trkpt lat="45.20204" lon="6.404">
        <ele>2018.673977835</ele>
        <time>2016-03-30T09:48:35Z</time>
      </trkpt>
      <trkpt lat="45.20203" lon="6.40399">
        <ele>2018.673977835</ele>
        <time>2016-03-30T09:48:40Z</time>
      </trkpt>
      <trkpt lat="45.20193" lon="6.40391">
        <ele>2022.004339589</ele>
        <time>2016-03-30T09:48:50Z</time>
      </trkpt>
      <trkpt lat="45.2019" lon="6.40389">
        <ele>2022.004339589</ele>
        <time>2016-03-30T09:48:53Z</time>
      </trkpt>
      <trkpt lat="45.20184" lon="6.40382">
        <ele>2025.61114827</ele>
        <time>2016-03-30T09:49:04Z</time>
      </trkpt>
      <trkpt lat="45.20182" lon="6.40377">
        <ele>2025.61114827</ele>
        <time>2016-03-30T09:49:09Z</time>
      </trkpt>
      <trkpt lat="45.20178" lon="6.40367">
        <ele>2028.751950986</ele>
        <time>2016-03-30T09:49:19Z</time>
      </trkpt>
      <trkpt lat="45.20175" lon="6.40363">
        <ele>2028.751950986</ele>
        <time>2016-03-30T09:49:25Z</time>
      </trkpt>
      <trkpt lat="45.2017" lon="6.40353">
        <ele>2031.172576071</ele>
        <time>2016-03-30T09:49:34Z</time>
      </trkpt>
      <trkpt lat="45.20167" lon="6.40349">
        <ele>2031.172576071</ele>
        <time>2016-03-30T09:49:39Z</time>
      </trkpt>
      <trkpt lat="45.20163" lon="6.40344">
        <ele>2033.360155679</ele>
        <time>2016-03-30T09:49:54Z</time>
      </trkpt>
      <trkpt lat="45.20163" lon="6.40344">
        <ele>2033.360155679</ele>
        <time>2016-03-30T09:49:57Z</time>
      </trkpt>
      <trkpt lat="45.20161" lon="6.40336">
        <ele>2033.360155679</ele>
        <time>2016-03-30T09:50:38Z</time>
      </trkpt>
      <trkpt lat="45.20161" lon="6.40336">
        <ele>2033.360155679</ele>
        <time>2016-03-30T09:50:38Z</time>
      </trkpt>
      <trkpt lat="45.20161" lon="6.40336">
        <ele>2033.360155679</ele>
        <time>2016-03-30T09:50:39Z</time>
      </trkpt>
      <trkpt lat="45.20161" lon="6.40332">
        <ele>2033.360155679</ele>
        <time>2016-03-30T09:50:45Z</time>
      </trkpt>
      <trkpt lat="45.20162" lon="6.40323">
        <ele>2036.054837351</ele>
        <time>2016-03-30T09:50:55Z</time>
      </trkpt>
      <trkpt lat="45.20162" lon="6.40321">
        <ele>2036.054837351</ele>
        <time>2016-03-30T09:50:59Z</time>
      </trkpt>
      <trkpt lat="45.20162" lon="6.40315">
        <ele>2036.054837351</ele>
        <time>2016-03-30T09:51:10Z</time>
      </trkpt>
      <trkpt lat="45.20162" lon="6.40313">
        <ele>2036.054837351</ele>
        <time>2016-03-30T09:51:14Z</time>
      </trkpt>
      <trkpt lat="45.2016" lon="6.40304">
        <ele>2039.076126298</ele>
        <time>2016-03-30T09:51:24Z</time>
      </trkpt>
      <trkpt lat="45.20161" lon="6.40298">
        <ele>2039.076126298</ele>
        <time>2016-03-30T09:51:29Z</time>
      </trkpt>
      <trkpt lat="45.2016" lon="6.40287">
        <ele>2042.399960451</ele>
        <time>2016-03-30T09:51:44Z</time>
      </trkpt>
      <trkpt lat="45.2016" lon="6.40286">
        <ele>2042.399960451</ele>
        <time>2016-03-30T09:51:49Z</time>
      </trkpt>
      <trkpt lat="45.20161" lon="6.40285">
        <ele>2042.399960451</ele>
        <time>2016-03-30T09:51:55Z</time>
      </trkpt>
      <trkpt lat="45.20163" lon="6.40253">
        <ele>2045.85903725</ele>
        <time>2016-03-30T09:52:33Z</time>
      </trkpt>
      <trkpt lat="45.20164" lon="6.40251">
        <ele>2045.85903725</ele>
        <time>2016-03-30T09:52:38Z</time>
      </trkpt>
      <trkpt lat="45.20166" lon="6.40236">
        <ele>2049.586168305</ele>
        <time>2016-03-30T09:52:55Z</time>
      </trkpt>
      <trkpt lat="45.20166" lon="6.4023">
        <ele>2049.586168305</ele>
        <time>2016-03-30T09:53:04Z</time>
      </trkpt>
      <trkpt lat="45.20167" lon="6.40229">
        <ele>2049.586168305</ele>
        <time>2016-03-30T09:53:10Z</time>
      </trkpt>
      <trkpt lat="45.20169" lon="6.40222">
        <ele>2052.838926699</ele>
        <time>2016-03-30T09:53:19Z</time>
      </trkpt>
      <trkpt lat="45.20169" lon="6.40218">
        <ele>2052.838926699</ele>
        <time>2016-03-30T09:53:24Z</time>
      </trkpt>
      <trkpt lat="45.20171" lon="6.40213">
        <ele>2052.838926699</ele>
        <time>2016-03-30T09:53:35Z</time>
      </trkpt>
      <trkpt lat="45.2017" lon="6.40212">
        <ele>2052.838926699</ele>
        <time>2016-03-30T09:53:39Z</time>
      </trkpt>
      <trkpt lat="45.20159" lon="6.40199">
        <ele>2056.083663795</ele>
        <time>2016-03-30T09:53:54Z</time>
      </trkpt>
      <trkpt lat="45.20158" lon="6.40198">
        <ele>2056.083663795</ele>
        <time>2016-03-30T09:53:58Z</time>
      </trkpt>
      <trkpt lat="45.20157" lon="6.40196">
        <ele>2056.083663795</ele>
        <time>2016-03-30T09:54:09Z</time>
      </trkpt>
      <trkpt lat="45.20157" lon="6.40196">
        <ele>2056.083663795</ele>
        <time>2016-03-30T09:54:14Z</time>
      </trkpt>
      <trkpt lat="45.20157" lon="6.40196">
        <ele>2056.083663795</ele>
        <time>2016-03-30T09:54:29Z</time>
      </trkpt>
      <trkpt lat="45.20157" lon="6.40196">
        <ele>2056.083663795</ele>
        <time>2016-03-30T09:54:34Z</time>
      </trkpt>
      <trkpt lat="45.20157" lon="6.40196">
        <ele>2056.083663795</ele>
        <time>2016-03-30T09:54:44Z</time>
      </trkpt>
      <trkpt lat="45.20157" lon="6.40196">
        <ele>2056.083663795</ele>
        <time>2016-03-30T09:54:49Z</time>
      </trkpt>
      <trkpt lat="45.20157" lon="6.40196">
        <ele>2056.083663795</ele>
        <time>2016-03-30T09:55:00Z</time>
      </trkpt>
      <trkpt lat="45.20157" lon="6.40195">
        <ele>2056.083663795</ele>
        <time>2016-03-30T09:55:04Z</time>
      </trkpt>
      <trkpt lat="45.20157" lon="6.40174">
        <ele>2059.46423312</ele>
        <time>2016-03-30T09:55:19Z</time>
      </trkpt>
      <trkpt lat="45.20159" lon="6.40165">
        <ele>2059.46423312</ele>
        <time>2016-03-30T09:55:25Z</time>
      </trkpt>
      <trkpt lat="45.20161" lon="6.40152">
        <ele>2063.257634973</ele>
        <time>2016-03-30T09:55:35Z</time>
      </trkpt>
      <trkpt lat="45.20162" lon="6.40148">
        <ele>2063.257634973</ele>
        <time>2016-03-30T09:55:39Z</time>
      </trkpt>
      <trkpt lat="45.20164" lon="6.40141">
        <ele>2063.257634973</ele>
        <time>2016-03-30T09:55:49Z</time>
      </trkpt>
      <trkpt lat="45.20167" lon="6.4014">
        <ele>2066.854674956</ele>
        <time>2016-03-30T09:55:54Z</time>
      </trkpt>
      <trkpt lat="45.2018" lon="6.40134">
        <ele>2071.709038941</ele>
        <time>2016-03-30T09:56:05Z</time>
      </trkpt>
      <trkpt lat="45.20183" lon="6.40133">
        <ele>2071.709038941</ele>
        <time>2016-03-30T09:56:09Z</time>
      </trkpt>
      <trkpt lat="45.20172" lon="6.40116">
        <ele>2077.43475423</ele>
        <time>2016-03-30T09:56:52Z</time>
      </trkpt>
      <trkpt lat="45.20172" lon="6.40116">
        <ele>2077.43475423</ele>
        <time>2016-03-30T09:56:53Z</time>
      </trkpt>
      <trkpt lat="45.20172" lon="6.40116">
        <ele>2077.43475423</ele>
        <time>2016-03-30T09:56:54Z</time>
      </trkpt>
      <trkpt lat="45.20172" lon="6.40116">
        <ele>2077.43475423</ele>
        <time>2016-03-30T09:56:55Z</time>
      </trkpt>
      <trkpt lat="45.20171" lon="6.40115">
        <ele>2077.43475423</ele>
        <time>2016-03-30T09:57:10Z</time>
      </trkpt>
      <trkpt lat="45.20171" lon="6.40115">
        <ele>2077.43475423</ele>
        <time>2016-03-30T09:57:14Z</time>
      </trkpt>
      <trkpt lat="45.20171" lon="6.40115">
        <ele>2077.43475423</ele>
        <time>2016-03-30T09:57:24Z</time>
      </trkpt>
      <trkpt lat="45.20171" lon="6.40115">
        <ele>2077.43475423</ele>
        <time>2016-03-30T09:57:30Z</time>
      </trkpt>
      <trkpt lat="45.20162" lon="6.40106">
        <ele>2082.374768972</ele>
        <time>2016-03-30T09:57:39Z</time>
      </trkpt>
      <trkpt lat="45.2016" lon="6.40104">
        <ele>2082.374768972</ele>
        <time>2016-03-30T09:57:44Z</time>
      </trkpt>
      <trkpt lat="45.20157" lon="6.40095">
        <ele>2087.013573152</ele>
        <time>2016-03-30T09:57:55Z</time>
      </trkpt>
      <trkpt lat="45.20156" lon="6.40095">
        <ele>2087.013573152</ele>
        <time>2016-03-30T09:57:59Z</time>
      </trkpt>
      <trkpt lat="45.20149" lon="6.40087">
        <ele>2090.648057253</ele>
        <time>2016-03-30T09:58:09Z</time>
      </trkpt>
      <trkpt lat="45.20147" lon="6.40084">
        <ele>2090.648057253</ele>
        <time>2016-03-30T09:58:15Z</time>
      </trkpt>
      <trkpt lat="45.20145" lon="6.4008">
        <ele>2090.648057253</ele>
        <time>2016-03-30T09:58:25Z</time>
      </trkpt>
      <trkpt lat="45.20145" lon="6.40071">
        <ele>2093.350198507</ele>
        <time>2016-03-30T09:58:29Z</time>
      </trkpt>
      <trkpt lat="45.20144" lon="6.40052">
        <ele>2096.198155859</ele>
        <time>2016-03-30T09:58:45Z</time>
      </trkpt>
      <trkpt lat="45.20143" lon="6.40049">
        <ele>2096.198155859</ele>
        <time>2016-03-30T09:58:47Z</time>
      </trkpt>
      <trkpt lat="45.20144" lon="6.40037">
        <ele>2099.469973005</ele>
        <time>2016-03-30T09:59:00Z</time>
      </trkpt>
      <trkpt lat="45.20143" lon="6.40035">
        <ele>2099.469973005</ele>
        <time>2016-03-30T09:59:11Z</time>
      </trkpt>
      <trkpt lat="45.20143" lon="6.40035">
        <ele>2099.469973005</ele>
        <time>2016-03-30T09:59:12Z</time>
      </trkpt>
      <trkpt lat="45.20143" lon="6.40035">
        <ele>2099.469973005</ele>
        <time>2016-03-30T09:59:29Z</time>
      </trkpt>
      <trkpt lat="45.20144" lon="6.40034">
        <ele>2099.469973005</ele>
        <time>2016-03-30T09:59:35Z</time>
      </trkpt>
      <trkpt lat="45.2014" lon="6.40031">
        <ele>2099.469973005</ele>
        <time>2016-03-30T09:59:44Z</time>
      </trkpt>
      <trkpt lat="45.20138" lon="6.40024">
        <ele>2102.845679187</ele>
        <time>2016-03-30T09:59:49Z</time>
      </trkpt>
      <trkpt lat="45.20134" lon="6.40015">
        <ele>2102.845679187</ele>
        <time>2016-03-30T10:00:00Z</time>
      </trkpt>
      <trkpt lat="45.20133" lon="6.40012">
        <ele>2106.605023634</ele>
        <time>2016-03-30T10:00:04Z</time>
      </trkpt>
      <trkpt lat="45.20131" lon="6.40004">
        <ele>2106.605023634</ele>
        <time>2016-03-30T10:00:15Z</time>
      </trkpt>
      <trkpt lat="45.2013" lon="6.39999">
        <ele>2109.997378569</ele>
        <time>2016-03-30T10:00:19Z</time>
      </trkpt>
      <trkpt lat="45.20131" lon="6.39991">
        <ele>2109.997378569</ele>
        <time>2016-03-30T10:00:30Z</time>
      </trkpt>
      <trkpt lat="45.20129" lon="6.39991">
        <ele>2109.997378569</ele>
        <time>2016-03-30T10:00:34Z</time>
      </trkpt>
      <trkpt lat="45.20128" lon="6.39991">
        <ele>2109.997378569</ele>
        <time>2016-03-30T10:00:45Z</time>
      </trkpt>
      <trkpt lat="45.20122" lon="6.3997">
        <ele>2113.193020387</ele>
        <time>2016-03-30T10:01:01Z</time>
      </trkpt>
      <trkpt lat="45.2012" lon="6.39965">
        <ele>2113.193020387</ele>
        <time>2016-03-30T10:01:07Z</time>
      </trkpt>
      <trkpt lat="45.20105" lon="6.3994">
        <ele>2116.35031689</ele>
        <time>2016-03-30T10:01:37Z</time>
      </trkpt>
      <trkpt lat="45.20105" lon="6.39939">
        <ele>2116.35031689</ele>
        <time>2016-03-30T10:01:39Z</time>
      </trkpt>
      <trkpt lat="45.20095" lon="6.39925">
        <ele>2119.327925561</ele>
        <time>2016-03-30T10:01:55Z</time>
      </trkpt>
      <trkpt lat="45.20093" lon="6.3992">
        <ele>2119.327925561</ele>
        <time>2016-03-30T10:01:59Z</time>
      </trkpt>
      <trkpt lat="45.2009" lon="6.39914">
        <ele>2122.571892416</ele>
        <time>2016-03-30T10:02:10Z</time>
      </trkpt>
      <trkpt lat="45.20086" lon="6.3991">
        <ele>2122.571892416</ele>
        <time>2016-03-30T10:02:14Z</time>
      </trkpt>
      <trkpt lat="45.20072" lon="6.39902">
        <ele>2126.206559122</ele>
        <time>2016-03-30T10:02:24Z</time>
      </trkpt>
      <trkpt lat="45.20069" lon="6.39896">
        <ele>2126.206559122</ele>
        <time>2016-03-30T10:02:30Z</time>
      </trkpt>
      <trkpt lat="45.20057" lon="6.39888">
        <ele>2130.057844932</ele>
        <time>2016-03-30T10:02:39Z</time>
      </trkpt>
      <trkpt lat="45.20053" lon="6.39888">
        <ele>2130.057844932</ele>
        <time>2016-03-30T10:02:44Z</time>
      </trkpt>
      <trkpt lat="45.20051" lon="6.39889">
        <ele>2130.057844932</ele>
        <time>2016-03-30T10:02:55Z</time>
      </trkpt>
      <trkpt lat="45.20051" lon="6.39888">
        <ele>2130.057844932</ele>
        <time>2016-03-30T10:02:59Z</time>
      </trkpt>
      <trkpt lat="45.20051" lon="6.39888">
        <ele>2130.057844932</ele>
        <time>2016-03-30T10:03:09Z</time>
      </trkpt>
      <trkpt lat="45.20049" lon="6.39884">
        <ele>2133.675657497</ele>
        <time>2016-03-30T10:03:15Z</time>
      </trkpt>
      <trkpt lat="45.20045" lon="6.39883">
        <ele>2133.675657497</ele>
        <time>2016-03-30T10:03:24Z</time>
      </trkpt>
      <trkpt lat="45.20044" lon="6.39883">
        <ele>2133.675657497</ele>
        <time>2016-03-30T10:03:29Z</time>
      </trkpt>
      <trkpt lat="45.20038" lon="6.39875">
        <ele>2135.778972422</ele>
        <time>2016-03-30T10:03:39Z</time>
      </trkpt>
      <trkpt lat="45.20038" lon="6.39873">
        <ele>2135.778972422</ele>
        <time>2016-03-30T10:03:46Z</time>
      </trkpt>
      <trkpt lat="45.20032" lon="6.39858">
        <ele>2137.923331704</ele>
        <time>2016-03-30T10:03:55Z</time>
      </trkpt>
      <trkpt lat="45.20032" lon="6.39857">
        <ele>2137.923331704</ele>
        <time>2016-03-30T10:03:59Z</time>
      </trkpt>
      <trkpt lat="45.20031" lon="6.39854">
        <ele>2137.923331704</ele>
        <time>2016-03-30T10:04:04Z</time>
      </trkpt>
      <trkpt lat="45.2003" lon="6.39853">
        <ele>2137.923331704</ele>
        <time>2016-03-30T10:04:14Z</time>
      </trkpt>
      <trkpt lat="45.20029" lon="6.39852">
        <ele>2137.923331704</ele>
        <time>2016-03-30T10:04:19Z</time>
      </trkpt>
      <trkpt lat="45.20027" lon="6.39845">
        <ele>2140.685226473</ele>
        <time>2016-03-30T10:04:29Z</time>
      </trkpt>
      <trkpt lat="45.20025" lon="6.39841">
        <ele>2140.685226473</ele>
        <time>2016-03-30T10:04:34Z</time>
      </trkpt>
      <trkpt lat="45.20022" lon="6.39834">
        <ele>2140.685226473</ele>
        <time>2016-03-30T10:04:43Z</time>
      </trkpt>
      <trkpt lat="45.20021" lon="6.39832">
        <ele>2143.300054755</ele>
        <time>2016-03-30T10:04:44Z</time>
      </trkpt>
      <trkpt lat="45.20015" lon="6.3982">
        <ele>2145.780379457</ele>
        <time>2016-03-30T10:04:59Z</time>
      </trkpt>
      <trkpt lat="45.20015" lon="6.39819">
        <ele>2145.780379457</ele>
        <time>2016-03-30T10:05:01Z</time>
      </trkpt>
      <trkpt lat="45.20014" lon="6.39819">
        <ele>2145.780379457</ele>
        <time>2016-03-30T10:05:01Z</time>
      </trkpt>
      <trkpt lat="45.20014" lon="6.39818">
        <ele>2145.780379457</ele>
        <time>2016-03-30T10:05:04Z</time>
      </trkpt>
      <trkpt lat="45.20002" lon="6.39798">
        <ele>2148.282335662</ele>
        <time>2016-03-30T10:05:32Z</time>
      </trkpt>
      <trkpt lat="45.20001" lon="6.39798">
        <ele>2148.282335662</ele>
        <time>2016-03-30T10:05:34Z</time>
      </trkpt>
      <trkpt lat="45.19996" lon="6.39792">
        <ele>2148.282335662</ele>
        <time>2016-03-30T10:05:45Z</time>
      </trkpt>
      <trkpt lat="45.19995" lon="6.39788">
        <ele>2150.806411535</ele>
        <time>2016-03-30T10:05:49Z</time>
      </trkpt>
      <trkpt lat="45.19995" lon="6.39787">
        <ele>2150.806411535</ele>
        <time>2016-03-30T10:05:52Z</time>
      </trkpt>
      <trkpt lat="45.19994" lon="6.39786">
        <ele>2150.806411535</ele>
        <time>2016-03-30T10:05:54Z</time>
      </trkpt>
      <trkpt lat="45.19985" lon="6.39763">
        <ele>2153.497102986</ele>
        <time>2016-03-30T10:06:36Z</time>
      </trkpt>
      <trkpt lat="45.19983" lon="6.39757">
        <ele>2153.497102986</ele>
        <time>2016-03-30T10:06:43Z</time>
      </trkpt>
      <trkpt lat="45.19971" lon="6.39742">
        <ele>2156.487810769</ele>
        <time>2016-03-30T10:07:10Z</time>
      </trkpt>
      <trkpt lat="45.19969" lon="6.39739">
        <ele>2156.487810769</ele>
        <time>2016-03-30T10:07:10Z</time>
      </trkpt>
      <trkpt lat="45.19969" lon="6.39739">
        <ele>2156.487810769</ele>
        <time>2016-03-30T10:07:11Z</time>
      </trkpt>
      <trkpt lat="45.19968" lon="6.39737">
        <ele>2156.487810769</ele>
        <time>2016-03-30T10:07:12Z</time>
      </trkpt>
      <trkpt lat="45.19967" lon="6.39736">
        <ele>2156.487810769</ele>
        <time>2016-03-30T10:07:13Z</time>
      </trkpt>
      <trkpt lat="45.19962" lon="6.39727">
        <ele>2159.036599279</ele>
        <time>2016-03-30T10:07:27Z</time>
      </trkpt>
      <trkpt lat="45.1996" lon="6.39726">
        <ele>2159.036599279</ele>
        <time>2016-03-30T10:07:28Z</time>
      </trkpt>
      <trkpt lat="45.19951" lon="6.39715">
        <ele>2161.898387841</ele>
        <time>2016-03-30T10:07:46Z</time>
      </trkpt>
      <trkpt lat="45.19951" lon="6.39714">
        <ele>2161.898387841</ele>
        <time>2016-03-30T10:07:46Z</time>
      </trkpt>
      <trkpt lat="45.19951" lon="6.39713">
        <ele>2161.898387841</ele>
        <time>2016-03-30T10:07:48Z</time>
      </trkpt>
      <trkpt lat="45.19951" lon="6.39712">
        <ele>2161.898387841</ele>
        <time>2016-03-30T10:08:09Z</time>
      </trkpt>
      <trkpt lat="45.19951" lon="6.39712">
        <ele>2161.898387841</ele>
        <time>2016-03-30T10:08:13Z</time>
      </trkpt>
      <trkpt lat="45.19951" lon="6.39712">
        <ele>2161.898387841</ele>
        <time>2016-03-30T10:08:18Z</time>
      </trkpt>
      <trkpt lat="45.19951" lon="6.39712">
        <ele>2161.898387841</ele>
        <time>2016-03-30T10:08:23Z</time>
      </trkpt>
      <trkpt lat="45.19951" lon="6.39712">
        <ele>2161.898387841</ele>
        <time>2016-03-30T10:08:33Z</time>
      </trkpt>
      <trkpt lat="45.19951" lon="6.39712">
        <ele>2161.898387841</ele>
        <time>2016-03-30T10:08:38Z</time>
      </trkpt>
      <trkpt lat="45.19951" lon="6.39711">
        <ele>2161.898387841</ele>
        <time>2016-03-30T10:08:48Z</time>
      </trkpt>
      <trkpt lat="45.19951" lon="6.39711">
        <ele>2161.898387841</ele>
        <time>2016-03-30T10:08:53Z</time>
      </trkpt>
      <trkpt lat="45.19951" lon="6.39711">
        <ele>2161.898387841</ele>
        <time>2016-03-30T10:09:03Z</time>
      </trkpt>
      <trkpt lat="45.19951" lon="6.39711">
        <ele>2161.898387841</ele>
        <time>2016-03-30T10:09:08Z</time>
      </trkpt>
      <trkpt lat="45.19951" lon="6.39711">
        <ele>2161.898387841</ele>
        <time>2016-03-30T10:09:13Z</time>
      </trkpt>
      <trkpt lat="45.19951" lon="6.39711">
        <ele>2161.898387841</ele>
        <time>2016-03-30T10:09:18Z</time>
      </trkpt>
      <trkpt lat="45.19951" lon="6.39711">
        <ele>2161.898387841</ele>
        <time>2016-03-30T10:09:28Z</time>
      </trkpt>
      <trkpt lat="45.19948" lon="6.39703">
        <ele>2164.618835046</ele>
        <time>2016-03-30T10:09:33Z</time>
      </trkpt>
      <trkpt lat="45.19943" lon="6.39693">
        <ele>2164.618835046</ele>
        <time>2016-03-30T10:09:43Z</time>
      </trkpt>
      <trkpt lat="45.19944" lon="6.3969">
        <ele>2167.497912574</ele>
        <time>2016-03-30T10:09:48Z</time>
      </trkpt>
      <trkpt lat="45.1994" lon="6.3968">
        <ele>2167.497912574</ele>
        <time>2016-03-30T10:09:58Z</time>
      </trkpt>
      <trkpt lat="45.19939" lon="6.39677">
        <ele>2169.804297597</ele>
        <time>2016-03-30T10:10:04Z</time>
      </trkpt>
      <trkpt lat="45.19936" lon="6.39669">
        <ele>2169.804297597</ele>
        <time>2016-03-30T10:10:13Z</time>
      </trkpt>
      <trkpt lat="45.19936" lon="6.39667">
        <ele>2169.804297597</ele>
        <time>2016-03-30T10:10:20Z</time>
      </trkpt>
      <trkpt lat="45.19931" lon="6.3965">
        <ele>2173.023653743</ele>
        <time>2016-03-30T10:10:30Z</time>
      </trkpt>
      <trkpt lat="45.1993" lon="6.39646">
        <ele>2173.023653743</ele>
        <time>2016-03-30T10:10:34Z</time>
      </trkpt>
      <trkpt lat="45.19924" lon="6.39629">
        <ele>2175.935896972</ele>
        <time>2016-03-30T10:10:53Z</time>
      </trkpt>
      <trkpt lat="45.19918" lon="6.3961">
        <ele>2178.27607649</ele>
        <time>2016-03-30T10:11:20Z</time>
      </trkpt>
      <trkpt lat="45.19916" lon="6.39605">
        <ele>2178.27607649</ele>
        <time>2016-03-30T10:11:23Z</time>
      </trkpt>
      <trkpt lat="45.19916" lon="6.39602">
        <ele>2178.27607649</ele>
        <time>2016-03-30T10:11:28Z</time>
      </trkpt>
      <trkpt lat="45.19916" lon="6.3959">
        <ele>2180.664948172</ele>
        <time>2016-03-30T10:11:38Z</time>
      </trkpt>
      <trkpt lat="45.19916" lon="6.39589">
        <ele>2180.664948172</ele>
        <time>2016-03-30T10:11:43Z</time>
      </trkpt>
      <trkpt lat="45.19915" lon="6.39568">
        <ele>2183.67749581</ele>
        <time>2016-03-30T10:12:06Z</time>
      </trkpt>
      <trkpt lat="45.19914" lon="6.39558">
        <ele>2183.67749581</ele>
        <time>2016-03-30T10:12:16Z</time>
      </trkpt>
      <trkpt lat="45.19914" lon="6.39555">
        <ele>2186.403563804</ele>
        <time>2016-03-30T10:12:17Z</time>
      </trkpt>
      <trkpt lat="45.19913" lon="6.39549">
        <ele>2186.403563804</ele>
        <time>2016-03-30T10:12:23Z</time>
      </trkpt>
      <trkpt lat="45.19913" lon="6.39542">
        <ele>2186.403563804</ele>
        <time>2016-03-30T10:12:30Z</time>
      </trkpt>
      <trkpt lat="45.19915" lon="6.39537">
        <ele>2188.865293709</ele>
        <time>2016-03-30T10:12:34Z</time>
      </trkpt>
      <trkpt lat="45.19914" lon="6.39528">
        <ele>2188.865293709</ele>
        <time>2016-03-30T10:12:49Z</time>
      </trkpt>
      <trkpt lat="45.19913" lon="6.39526">
        <ele>2188.865293709</ele>
        <time>2016-03-30T10:12:53Z</time>
      </trkpt>
      <trkpt lat="45.19914" lon="6.39518">
        <ele>2191.22801512</ele>
        <time>2016-03-30T10:13:03Z</time>
      </trkpt>
      <trkpt lat="45.19911" lon="6.39512">
        <ele>2191.22801512</ele>
        <time>2016-03-30T10:13:08Z</time>
      </trkpt>
      <trkpt lat="45.19909" lon="6.395">
        <ele>2193.356927129</ele>
        <time>2016-03-30T10:13:18Z</time>
      </trkpt>
      <trkpt lat="45.19909" lon="6.39499">
        <ele>2193.356927129</ele>
        <time>2016-03-30T10:13:23Z</time>
      </trkpt>
      <trkpt lat="45.19911" lon="6.39484">
        <ele>2195.704189519</ele>
        <time>2016-03-30T10:13:33Z</time>
      </trkpt>
      <trkpt lat="45.19912" lon="6.39471">
        <ele>2197.679307997</ele>
        <time>2016-03-30T10:13:49Z</time>
      </trkpt>
      <trkpt lat="45.19909" lon="6.39456">
        <ele>2200.177272673</ele>
        <time>2016-03-30T10:14:19Z</time>
      </trkpt>
      <trkpt lat="45.19909" lon="6.39455">
        <ele>2200.177272673</ele>
        <time>2016-03-30T10:14:23Z</time>
      </trkpt>
      <trkpt lat="45.19909" lon="6.3945">
        <ele>2200.177272673</ele>
        <time>2016-03-30T10:14:35Z</time>
      </trkpt>
      <trkpt lat="45.1991" lon="6.39446">
        <ele>2200.177272673</ele>
        <time>2016-03-30T10:14:38Z</time>
      </trkpt>
      <trkpt lat="45.1991" lon="6.39433">
        <ele>2203.017030401</ele>
        <time>2016-03-30T10:14:58Z</time>
      </trkpt>
      <trkpt lat="45.19907" lon="6.39428">
        <ele>2203.017030401</ele>
        <time>2016-03-30T10:15:28Z</time>
      </trkpt>
      <trkpt lat="45.19907" lon="6.39428">
        <ele>2203.017030401</ele>
        <time>2016-03-30T10:15:33Z</time>
      </trkpt>
      <trkpt lat="45.19905" lon="6.3942">
        <ele>2205.021036832</ele>
        <time>2016-03-30T10:15:44Z</time>
      </trkpt>
      <trkpt lat="45.19905" lon="6.39417">
        <ele>2205.021036832</ele>
        <time>2016-03-30T10:15:49Z</time>
      </trkpt>
      <trkpt lat="45.19906" lon="6.39402">
        <ele>2207.838652787</ele>
        <time>2016-03-30T10:15:59Z</time>
      </trkpt>
      <trkpt lat="45.19906" lon="6.39398">
        <ele>2207.838652787</ele>
        <time>2016-03-30T10:16:04Z</time>
      </trkpt>
      <trkpt lat="45.19904" lon="6.39393">
        <ele>2207.838652787</ele>
        <time>2016-03-30T10:16:14Z</time>
      </trkpt>
      <trkpt lat="45.19904" lon="6.39392">
        <ele>2207.838652787</ele>
        <time>2016-03-30T10:16:19Z</time>
      </trkpt>
      <trkpt lat="45.19901" lon="6.39377">
        <ele>2210.978185342</ele>
        <time>2016-03-30T10:16:29Z</time>
      </trkpt>
      <trkpt lat="45.199" lon="6.39371">
        <ele>2210.978185342</ele>
        <time>2016-03-30T10:16:34Z</time>
      </trkpt>
      <trkpt lat="45.199" lon="6.39369">
        <ele>2210.978185342</ele>
        <time>2016-03-30T10:16:38Z</time>
      </trkpt>
      <trkpt lat="45.19899" lon="6.39355">
        <ele>2214.271329865</ele>
        <time>2016-03-30T10:16:49Z</time>
      </trkpt>
      <trkpt lat="45.19893" lon="6.39329">
        <ele>2217.994001918</ele>
        <time>2016-03-30T10:17:20Z</time>
      </trkpt>
      <trkpt lat="45.19894" lon="6.39329">
        <ele>2217.994001918</ele>
        <time>2016-03-30T10:17:21Z</time>
      </trkpt>
      <trkpt lat="45.19894" lon="6.39328">
        <ele>2217.994001918</ele>
        <time>2016-03-30T10:17:22Z</time>
      </trkpt>
      <trkpt lat="45.19885" lon="6.39312">
        <ele>2221.103602479</ele>
        <time>2016-03-30T10:17:31Z</time>
      </trkpt>
      <trkpt lat="45.19886" lon="6.39312">
        <ele>2221.103602479</ele>
        <time>2016-03-30T10:17:34Z</time>
      </trkpt>
      <trkpt lat="45.19887" lon="6.39308">
        <ele>2221.103602479</ele>
        <time>2016-03-30T10:17:40Z</time>
      </trkpt>
      <trkpt lat="45.19884" lon="6.39304">
        <ele>2221.103602479</ele>
        <time>2016-03-30T10:17:49Z</time>
      </trkpt>
      <trkpt lat="45.19883" lon="6.39303">
        <ele>2221.103602479</ele>
        <time>2016-03-30T10:17:54Z</time>
      </trkpt>
      <trkpt lat="45.19877" lon="6.39305">
        <ele>2225.085699417</ele>
        <time>2016-03-30T10:18:04Z</time>
      </trkpt>
      <trkpt lat="45.19874" lon="6.39308">
        <ele>2225.085699417</ele>
        <time>2016-03-30T10:18:09Z</time>
      </trkpt>
      <trkpt lat="45.19867" lon="6.39311">
        <ele>2228.864369175</ele>
        <time>2016-03-30T10:18:24Z</time>
      </trkpt>
      <trkpt lat="45.19852" lon="6.39313">
        <ele>2233.172615266</ele>
        <time>2016-03-30T10:18:40Z</time>
      </trkpt>
      <trkpt lat="45.19849" lon="6.39309">
        <ele>2233.172615266</ele>
        <time>2016-03-30T10:18:44Z</time>
      </trkpt>
      <trkpt lat="45.19843" lon="6.39305">
        <ele>2237.102880269</ele>
        <time>2016-03-30T10:18:55Z</time>
      </trkpt>
      <trkpt lat="45.19841" lon="6.39305">
        <ele>2237.102880269</ele>
        <time>2016-03-30T10:18:56Z</time>
      </trkpt>
      <trkpt lat="45.19842" lon="6.39304">
        <ele>2237.102880269</ele>
        <time>2016-03-30T10:19:06Z</time>
      </trkpt>
      <trkpt lat="45.19839" lon="6.39306">
        <ele>2237.102880269</ele>
        <time>2016-03-30T10:19:43Z</time>
      </trkpt>
      <trkpt lat="45.19839" lon="6.39305">
        <ele>2237.102880269</ele>
        <time>2016-03-30T10:19:49Z</time>
      </trkpt>
      <trkpt lat="45.19839" lon="6.39305">
        <ele>2237.102880269</ele>
        <time>2016-03-30T10:19:59Z</time>
      </trkpt>
      <trkpt lat="45.19839" lon="6.39305">
        <ele>2237.102880269</ele>
        <time>2016-03-30T10:20:03Z</time>
      </trkpt>
      <trkpt lat="45.19838" lon="6.39292">
        <ele>2240.247672064</ele>
        <time>2016-03-30T10:20:14Z</time>
      </trkpt>
      <trkpt lat="45.19837" lon="6.39287">
        <ele>2240.247672064</ele>
        <time>2016-03-30T10:20:20Z</time>
      </trkpt>
      <trkpt lat="45.19838" lon="6.3928">
        <ele>2240.247672064</ele>
        <time>2016-03-30T10:20:28Z</time>
      </trkpt>
      <trkpt lat="45.19835" lon="6.39271">
        <ele>2243.240424066</ele>
        <time>2016-03-30T10:20:33Z</time>
      </trkpt>
      <trkpt lat="45.19835" lon="6.39264">
        <ele>2243.240424066</ele>
        <time>2016-03-30T10:20:43Z</time>
      </trkpt>
      <trkpt lat="45.19835" lon="6.39259">
        <ele>2243.240424066</ele>
        <time>2016-03-30T10:20:48Z</time>
      </trkpt>
      <trkpt lat="45.19836" lon="6.39248">
        <ele>2247.100813236</ele>
        <time>2016-03-30T10:21:00Z</time>
      </trkpt>
      <trkpt lat="45.19835" lon="6.39244">
        <ele>2247.100813236</ele>
        <time>2016-03-30T10:21:04Z</time>
      </trkpt>
      <trkpt lat="45.19827" lon="6.39208">
        <ele>2251.762419102</ele>
        <time>2016-03-30T10:21:50Z</time>
      </trkpt>
      <trkpt lat="45.19826" lon="6.39206">
        <ele>2251.762419102</ele>
        <time>2016-03-30T10:21:53Z</time>
      </trkpt>
      <trkpt lat="45.19821" lon="6.39196">
        <ele>2256.585034479</ele>
        <time>2016-03-30T10:22:04Z</time>
      </trkpt>
      <trkpt lat="45.19818" lon="6.39191">
        <ele>2256.585034479</ele>
        <time>2016-03-30T10:22:12Z</time>
      </trkpt>
      <trkpt lat="45.19812" lon="6.39172">
        <ele>2260.54273067</ele>
        <time>2016-03-30T10:22:43Z</time>
      </trkpt>
      <trkpt lat="45.19809" lon="6.39163">
        <ele>2260.54273067</ele>
        <time>2016-03-30T10:22:48Z</time>
      </trkpt>
      <trkpt lat="45.19805" lon="6.39151">
        <ele>2264.416748402</ele>
        <time>2016-03-30T10:22:57Z</time>
      </trkpt>
      <trkpt lat="45.19805" lon="6.39149">
        <ele>2264.416748402</ele>
        <time>2016-03-30T10:22:58Z</time>
      </trkpt>
      <trkpt lat="45.19802" lon="6.39144">
        <ele>2264.416748402</ele>
        <time>2016-03-30T10:23:03Z</time>
      </trkpt>
      <trkpt lat="45.198" lon="6.39136">
        <ele>2268.643003202</ele>
        <time>2016-03-30T10:23:13Z</time>
      </trkpt>
      <trkpt lat="45.19799" lon="6.39132">
        <ele>2268.643003202</ele>
        <time>2016-03-30T10:23:18Z</time>
      </trkpt>
      <trkpt lat="45.19795" lon="6.39118">
        <ele>2272.615679474</ele>
        <time>2016-03-30T10:23:28Z</time>
      </trkpt>
      <trkpt lat="45.19795" lon="6.39114">
        <ele>2272.615679474</ele>
        <time>2016-03-30T10:23:33Z</time>
      </trkpt>
      <trkpt lat="45.19791" lon="6.39096">
        <ele>2276.062459785</ele>
        <time>2016-03-30T10:23:43Z</time>
      </trkpt>
      <trkpt lat="45.19786" lon="6.39086">
        <ele>2276.062459785</ele>
        <time>2016-03-30T10:23:48Z</time>
      </trkpt>
      <trkpt lat="45.19779" lon="6.39071">
        <ele>2279.020791659</ele>
        <time>2016-03-30T10:24:03Z</time>
      </trkpt>
      <trkpt lat="45.19778" lon="6.39067">
        <ele>2279.020791659</ele>
        <time>2016-03-30T10:24:08Z</time>
      </trkpt>
      <trkpt lat="45.19774" lon="6.39056">
        <ele>2281.959137948</ele>
        <time>2016-03-30T10:24:18Z</time>
      </trkpt>
      <trkpt lat="45.19772" lon="6.39051">
        <ele>2281.959137948</ele>
        <time>2016-03-30T10:24:23Z</time>
      </trkpt>
      <trkpt lat="45.19767" lon="6.39043">
        <ele>2285.023441215</ele>
        <time>2016-03-30T10:24:33Z</time>
      </trkpt>
      <trkpt lat="45.19763" lon="6.39041">
        <ele>2285.023441215</ele>
        <time>2016-03-30T10:24:38Z</time>
      </trkpt>
      <trkpt lat="45.19759" lon="6.39034">
        <ele>2287.051621501</ele>
        <time>2016-03-30T10:24:48Z</time>
      </trkpt>
      <trkpt lat="45.19759" lon="6.39033">
        <ele>2287.051621501</ele>
        <time>2016-03-30T10:24:53Z</time>
      </trkpt>
      <trkpt lat="45.19752" lon="6.39022">
        <ele>2289.131585163</ele>
        <time>2016-03-30T10:25:03Z</time>
      </trkpt>
      <trkpt lat="45.19751" lon="6.39016">
        <ele>2289.131585163</ele>
        <time>2016-03-30T10:25:08Z</time>
      </trkpt>
      <trkpt lat="45.19752" lon="6.39012">
        <ele>2289.131585163</ele>
        <time>2016-03-30T10:25:18Z</time>
      </trkpt>
      <trkpt lat="45.19751" lon="6.39006">
        <ele>2291.694768141</ele>
        <time>2016-03-30T10:25:23Z</time>
      </trkpt>
      <trkpt lat="45.19747" lon="6.39">
        <ele>2291.694768141</ele>
        <time>2016-03-30T10:25:33Z</time>
      </trkpt>
      <trkpt lat="45.19748" lon="6.38993">
        <ele>2294.130806907</ele>
        <time>2016-03-30T10:25:38Z</time>
      </trkpt>
      <trkpt lat="45.19748" lon="6.38991">
        <ele>2294.130806907</ele>
        <time>2016-03-30T10:25:48Z</time>
      </trkpt>
      <trkpt lat="45.19748" lon="6.38991">
        <ele>2294.130806907</ele>
        <time>2016-03-30T10:25:53Z</time>
      </trkpt>
      <trkpt lat="45.19748" lon="6.38992">
        <ele>2294.130806907</ele>
        <time>2016-03-30T10:26:08Z</time>
      </trkpt>
      <trkpt lat="45.19748" lon="6.38986">
        <ele>2294.130806907</ele>
        <time>2016-03-30T10:26:13Z</time>
      </trkpt>
      <trkpt lat="45.19748" lon="6.38968">
        <ele>2293.712877165</ele>
        <time>2016-03-30T10:26:23Z</time>
      </trkpt>
      <trkpt lat="45.19751" lon="6.38962">
        <ele>2293.712877165</ele>
        <time>2016-03-30T10:26:28Z</time>
      </trkpt>
      <trkpt lat="45.19756" lon="6.38951">
        <ele>2295.12803419</ele>
        <time>2016-03-30T10:26:38Z</time>
      </trkpt>
      <trkpt lat="45.19758" lon="6.38946">
        <ele>2295.12803419</ele>
        <time>2016-03-30T10:26:43Z</time>
      </trkpt>
      <trkpt lat="45.19762" lon="6.38935">
        <ele>2279.51193317</ele>
        <time>2016-03-30T10:26:53Z</time>
      </trkpt>
      <trkpt lat="45.19764" lon="6.38931">
        <ele>2279.51193317</ele>
        <time>2016-03-30T10:26:58Z</time>
      </trkpt>
      <trkpt lat="45.19764" lon="6.38928">
        <ele>2279.51193317</ele>
        <time>2016-03-30T10:27:08Z</time>
      </trkpt>
      <trkpt lat="45.19764" lon="6.38928">
        <ele>2279.51193317</ele>
        <time>2016-03-30T10:27:13Z</time>
      </trkpt>
      <trkpt lat="45.19767" lon="6.3892">
        <ele>2282.754843995</ele>
        <time>2016-03-30T10:27:23Z</time>
      </trkpt>
      <trkpt lat="45.19767" lon="6.38916">
        <ele>2282.754843995</ele>
        <time>2016-03-30T10:27:28Z</time>
      </trkpt>
      <trkpt lat="45.1977" lon="6.38908">
        <ele>2286.465721647</ele>
        <time>2016-03-30T10:27:38Z</time>
      </trkpt>
      <trkpt lat="45.19775" lon="6.38903">
        <ele>2286.465721647</ele>
        <time>2016-03-30T10:27:43Z</time>
      </trkpt>
      <trkpt lat="45.19779" lon="6.38897">
        <ele>2290.319961459</ele>
        <time>2016-03-30T10:27:53Z</time>
      </trkpt>
      <trkpt lat="45.19777" lon="6.38892">
        <ele>2290.319961459</ele>
        <time>2016-03-30T10:27:58Z</time>
      </trkpt>
      <trkpt lat="45.19778" lon="6.38882">
        <ele>2294.304471032</ele>
        <time>2016-03-30T10:28:08Z</time>
      </trkpt>
      <trkpt lat="45.19776" lon="6.38879">
        <ele>2294.304471032</ele>
        <time>2016-03-30T10:28:13Z</time>
      </trkpt>
      <trkpt lat="45.19777" lon="6.38875">
        <ele>2294.304471032</ele>
        <time>2016-03-30T10:28:23Z</time>
      </trkpt>
      <trkpt lat="45.19781" lon="6.38854">
        <ele>2297.397839867</ele>
        <time>2016-03-30T10:28:44Z</time>
      </trkpt>
      <trkpt lat="45.19781" lon="6.38853">
        <ele>2297.397839867</ele>
        <time>2016-03-30T10:28:45Z</time>
      </trkpt>
      <trkpt lat="45.19782" lon="6.38852">
        <ele>2297.397839867</ele>
        <time>2016-03-30T10:28:46Z</time>
      </trkpt>
      <trkpt lat="45.19781" lon="6.3885">
        <ele>2297.397839867</ele>
        <time>2016-03-30T10:28:47Z</time>
      </trkpt>
      <trkpt lat="45.19785" lon="6.3884">
        <ele>2300.817738242</ele>
        <time>2016-03-30T10:28:59Z</time>
      </trkpt>
      <trkpt lat="45.19786" lon="6.38839">
        <ele>2300.817738242</ele>
        <time>2016-03-30T10:29:00Z</time>
      </trkpt>
      <trkpt lat="45.19789" lon="6.38826">
        <ele>2304.826700608</ele>
        <time>2016-03-30T10:29:15Z</time>
      </trkpt>
      <trkpt lat="45.1979" lon="6.38823">
        <ele>2304.826700608</ele>
        <time>2016-03-30T10:29:19Z</time>
      </trkpt>
      <trkpt lat="45.19791" lon="6.38814">
        <ele>2304.826700608</ele>
        <time>2016-03-30T10:29:29Z</time>
      </trkpt>
      <trkpt lat="45.19791" lon="6.3881">
        <ele>2308.081010677</ele>
        <time>2016-03-30T10:29:34Z</time>
      </trkpt>
      <trkpt lat="45.19795" lon="6.388">
        <ele>2308.081010677</ele>
        <time>2016-03-30T10:29:44Z</time>
      </trkpt>
      <trkpt lat="45.19797" lon="6.38796">
        <ele>2311.931703026</ele>
        <time>2016-03-30T10:29:49Z</time>
      </trkpt>
      <trkpt lat="45.19797" lon="6.38789">
        <ele>2311.931703026</ele>
        <time>2016-03-30T10:29:58Z</time>
      </trkpt>
      <trkpt lat="45.19797" lon="6.38782">
        <ele>2315.755385124</ele>
        <time>2016-03-30T10:30:04Z</time>
      </trkpt>
      <trkpt lat="45.19798" lon="6.38772">
        <ele>2315.755385124</ele>
        <time>2016-03-30T10:30:16Z</time>
      </trkpt>
      <trkpt lat="45.19798" lon="6.38769">
        <ele>2318.974483947</ele>
        <time>2016-03-30T10:30:19Z</time>
      </trkpt>
      <trkpt lat="45.19799" lon="6.38761">
        <ele>2318.974483947</ele>
        <time>2016-03-30T10:30:36Z</time>
      </trkpt>
      <trkpt lat="45.198" lon="6.38754">
        <ele>2322.496623281</ele>
        <time>2016-03-30T10:30:38Z</time>
      </trkpt>
      <trkpt lat="45.19807" lon="6.38747">
        <ele>2322.496623281</ele>
        <time>2016-03-30T10:30:48Z</time>
      </trkpt>
      <trkpt lat="45.19806" lon="6.38747">
        <ele>2322.496623281</ele>
        <time>2016-03-30T10:30:49Z</time>
      </trkpt>
      <trkpt lat="45.19812" lon="6.38734">
        <ele>2326.297207948</ele>
        <time>2016-03-30T10:31:07Z</time>
      </trkpt>
      <trkpt lat="45.19812" lon="6.38733">
        <ele>2326.297207948</ele>
        <time>2016-03-30T10:31:08Z</time>
      </trkpt>
      <trkpt lat="45.19812" lon="6.38732">
        <ele>2326.297207948</ele>
        <time>2016-03-30T10:31:09Z</time>
      </trkpt>
      <trkpt lat="45.19812" lon="6.38733">
        <ele>2326.297207948</ele>
        <time>2016-03-30T10:31:10Z</time>
      </trkpt>
      <trkpt lat="45.19815" lon="6.38722">
        <ele>2329.920316186</ele>
        <time>2016-03-30T10:31:25Z</time>
      </trkpt>
      <trkpt lat="45.19819" lon="6.3871">
        <ele>2333.520450818</ele>
        <time>2016-03-30T10:31:38Z</time>
      </trkpt>
      <trkpt lat="45.19819" lon="6.38708">
        <ele>2333.520450818</ele>
        <time>2016-03-30T10:31:43Z</time>
      </trkpt>
      <trkpt lat="45.19824" lon="6.38702">
        <ele>2333.520450818</ele>
        <time>2016-03-30T10:31:53Z</time>
      </trkpt>
      <trkpt lat="45.19826" lon="6.387">
        <ele>2337.67316306</ele>
        <time>2016-03-30T10:31:58Z</time>
      </trkpt>
      <trkpt lat="45.19826" lon="6.38701">
        <ele>2337.67316306</ele>
        <time>2016-03-30T10:32:08Z</time>
      </trkpt>
      <trkpt lat="45.19826" lon="6.38701">
        <ele>2337.67316306</ele>
        <time>2016-03-30T10:32:13Z</time>
      </trkpt>
      <trkpt lat="45.19826" lon="6.38701">
        <ele>2337.67316306</ele>
        <time>2016-03-30T10:32:24Z</time>
      </trkpt>
      <trkpt lat="45.19825" lon="6.38701">
        <ele>2337.67316306</ele>
        <time>2016-03-30T10:32:29Z</time>
      </trkpt>
      <trkpt lat="45.19825" lon="6.38701">
        <ele>2337.67316306</ele>
        <time>2016-03-30T10:32:39Z</time>
      </trkpt>
      <trkpt lat="45.19825" lon="6.38701">
        <ele>2337.67316306</ele>
        <time>2016-03-30T10:32:43Z</time>
      </trkpt>
      <trkpt lat="45.19825" lon="6.38701">
        <ele>2337.67316306</ele>
        <time>2016-03-30T10:32:59Z</time>
      </trkpt>
      <trkpt lat="45.19825" lon="6.38701">
        <ele>2337.67316306</ele>
        <time>2016-03-30T10:33:04Z</time>
      </trkpt>
      <trkpt lat="45.19825" lon="6.38701">
        <ele>2337.67316306</ele>
        <time>2016-03-30T10:33:15Z</time>
      </trkpt>
      <trkpt lat="45.19825" lon="6.38701">
        <ele>2337.67316306</ele>
        <time>2016-03-30T10:33:18Z</time>
      </trkpt>
      <trkpt lat="45.19825" lon="6.38701">
        <ele>2337.67316306</ele>
        <time>2016-03-30T10:33:29Z</time>
      </trkpt>
      <trkpt lat="45.19825" lon="6.38701">
        <ele>2337.67316306</ele>
        <time>2016-03-30T10:33:34Z</time>
      </trkpt>
      <trkpt lat="45.19825" lon="6.38701">
        <ele>2337.67316306</ele>
        <time>2016-03-30T10:33:44Z</time>
      </trkpt>
      <trkpt lat="45.19825" lon="6.38701">
        <ele>2337.67316306</ele>
        <time>2016-03-30T10:33:49Z</time>
      </trkpt>
      <trkpt lat="45.19825" lon="6.38701">
        <ele>2337.67316306</ele>
        <time>2016-03-30T10:34:00Z</time>
      </trkpt>
      <trkpt lat="45.19825" lon="6.38701">
        <ele>2337.67316306</ele>
        <time>2016-03-30T10:34:04Z</time>
      </trkpt>
      <trkpt lat="45.19825" lon="6.38701">
        <ele>2337.67316306</ele>
        <time>2016-03-30T10:34:15Z</time>
      </trkpt>
      <trkpt lat="45.19825" lon="6.38701">
        <ele>2337.67316306</ele>
        <time>2016-03-30T10:34:19Z</time>
      </trkpt>
      <trkpt lat="45.19825" lon="6.38701">
        <ele>2337.67316306</ele>
        <time>2016-03-30T10:34:30Z</time>
      </trkpt>
      <trkpt lat="45.19825" lon="6.38701">
        <ele>2337.67316306</ele>
        <time>2016-03-30T10:34:33Z</time>
      </trkpt>
      <trkpt lat="45.19825" lon="6.38701">
        <ele>2337.67316306</ele>
        <time>2016-03-30T10:34:44Z</time>
      </trkpt>
      <trkpt lat="45.19825" lon="6.38701">
        <ele>2337.67316306</ele>
        <time>2016-03-30T10:34:49Z</time>
      </trkpt>
      <trkpt lat="45.19825" lon="6.38701">
        <ele>2337.67316306</ele>
        <time>2016-03-30T10:34:59Z</time>
      </trkpt>
      <trkpt lat="45.19826" lon="6.38702">
        <ele>2337.67316306</ele>
        <time>2016-03-30T10:35:04Z</time>
      </trkpt>
      <trkpt lat="45.19827" lon="6.38703">
        <ele>2337.67316306</ele>
        <time>2016-03-30T10:35:14Z</time>
      </trkpt>
      <trkpt lat="45.19827" lon="6.38704">
        <ele>2337.67316306</ele>
        <time>2016-03-30T10:35:19Z</time>
      </trkpt>
      <trkpt lat="45.19827" lon="6.38704">
        <ele>2337.67316306</ele>
        <time>2016-03-30T10:35:28Z</time>
      </trkpt>
      <trkpt lat="45.19827" lon="6.38704">
        <ele>2337.67316306</ele>
        <time>2016-03-30T10:35:33Z</time>
      </trkpt>
      <trkpt lat="45.19829" lon="6.38705">
        <ele>2337.67316306</ele>
        <time>2016-03-30T10:35:48Z</time>
      </trkpt>
      <trkpt lat="45.19829" lon="6.38705">
        <ele>2337.67316306</ele>
        <time>2016-03-30T10:36:04Z</time>
      </trkpt>
      <trkpt lat="45.19829" lon="6.38705">
        <ele>2337.67316306</ele>
        <time>2016-03-30T10:36:09Z</time>
      </trkpt>
      <trkpt lat="45.19829" lon="6.38705">
        <ele>2337.67316306</ele>
        <time>2016-03-30T10:36:19Z</time>
      </trkpt>
      <trkpt lat="45.1983" lon="6.38705">
        <ele>2337.67316306</ele>
        <time>2016-03-30T10:36:24Z</time>
      </trkpt>
      <trkpt lat="45.1983" lon="6.38706">
        <ele>2337.67316306</ele>
        <time>2016-03-30T10:36:35Z</time>
      </trkpt>
      <trkpt lat="45.1983" lon="6.38706">
        <ele>2337.67316306</ele>
        <time>2016-03-30T10:36:39Z</time>
      </trkpt>
      <trkpt lat="45.1983" lon="6.38705">
        <ele>2337.67316306</ele>
        <time>2016-03-30T10:36:50Z</time>
      </trkpt>
      <trkpt lat="45.1983" lon="6.38704">
        <ele>2337.67316306</ele>
        <time>2016-03-30T10:36:54Z</time>
      </trkpt>
      <trkpt lat="45.19829" lon="6.38705">
        <ele>2337.67316306</ele>
        <time>2016-03-30T10:37:05Z</time>
      </trkpt>
      <trkpt lat="45.19829" lon="6.38705">
        <ele>2337.67316306</ele>
        <time>2016-03-30T10:37:09Z</time>
      </trkpt>
      <trkpt lat="45.1983" lon="6.38705">
        <ele>2337.67316306</ele>
        <time>2016-03-30T10:37:19Z</time>
      </trkpt>
      <trkpt lat="45.1983" lon="6.38705">
        <ele>2337.67316306</ele>
        <time>2016-03-30T10:37:24Z</time>
      </trkpt>
      <trkpt lat="45.1983" lon="6.38705">
        <ele>2337.67316306</ele>
        <time>2016-03-30T10:37:33Z</time>
      </trkpt>
      <trkpt lat="45.1983" lon="6.38705">
        <ele>2337.67316306</ele>
        <time>2016-03-30T10:37:38Z</time>
      </trkpt>
      <trkpt lat="45.19835" lon="6.387">
        <ele>2341.469071973</ele>
        <time>2016-03-30T10:37:53Z</time>
      </trkpt>
      <trkpt lat="45.19836" lon="6.38698">
        <ele>2341.469071973</ele>
        <time>2016-03-30T10:37:58Z</time>
      </trkpt>
      <trkpt lat="45.19841" lon="6.38696">
        <ele>2341.469071973</ele>
        <time>2016-03-30T10:38:08Z</time>
      </trkpt>
      <trkpt lat="45.19845" lon="6.38692">
        <ele>2345.363619014</ele>
        <time>2016-03-30T10:38:13Z</time>
      </trkpt>
      <trkpt lat="45.19849" lon="6.38685">
        <ele>2345.363619014</ele>
        <time>2016-03-30T10:38:23Z</time>
      </trkpt>
      <trkpt lat="45.1985" lon="6.38681">
        <ele>2348.769760525</ele>
        <time>2016-03-30T10:38:28Z</time>
      </trkpt>
      <trkpt lat="45.19855" lon="6.38675">
        <ele>2348.769760525</ele>
        <time>2016-03-30T10:38:38Z</time>
      </trkpt>
      <trkpt lat="45.19857" lon="6.38672">
        <ele>2352.009646602</ele>
        <time>2016-03-30T10:38:43Z</time>
      </trkpt>
      <trkpt lat="45.19858" lon="6.38667">
        <ele>2352.009646602</ele>
        <time>2016-03-30T10:38:55Z</time>
      </trkpt>
      <trkpt lat="45.1986" lon="6.38664">
        <ele>2352.009646602</ele>
        <time>2016-03-30T10:38:59Z</time>
      </trkpt>
      <trkpt lat="45.19863" lon="6.38658">
        <ele>2355.670488982</ele>
        <time>2016-03-30T10:39:09Z</time>
      </trkpt>
      <trkpt lat="45.19865" lon="6.38655">
        <ele>2355.670488982</ele>
        <time>2016-03-30T10:39:13Z</time>
      </trkpt>
      <trkpt lat="45.1987" lon="6.38643">
        <ele>2359.574668731</ele>
        <time>2016-03-30T10:39:38Z</time>
      </trkpt>
      <trkpt lat="45.19872" lon="6.38633">
        <ele>2359.574668731</ele>
        <time>2016-03-30T10:39:59Z</time>
      </trkpt>
      <trkpt lat="45.19873" lon="6.38631">
        <ele>2359.574668731</ele>
        <time>2016-03-30T10:40:04Z</time>
      </trkpt>
      <trkpt lat="45.19875" lon="6.38622">
        <ele>2363.701090075</ele>
        <time>2016-03-30T10:40:13Z</time>
      </trkpt>
      <trkpt lat="45.19875" lon="6.38616">
        <ele>2363.701090075</ele>
        <time>2016-03-30T10:40:18Z</time>
      </trkpt>
      <trkpt lat="45.19876" lon="6.38608">
        <ele>2367.309079046</ele>
        <time>2016-03-30T10:40:28Z</time>
      </trkpt>
      <trkpt lat="45.19875" lon="6.38604">
        <ele>2367.309079046</ele>
        <time>2016-03-30T10:40:33Z</time>
      </trkpt>
      <trkpt lat="45.19877" lon="6.38595">
        <ele>2370.434436803</ele>
        <time>2016-03-30T10:40:44Z</time>
      </trkpt>
      <trkpt lat="45.19878" lon="6.38594">
        <ele>2370.434436803</ele>
        <time>2016-03-30T10:40:49Z</time>
      </trkpt>
      <trkpt lat="45.19876" lon="6.38584">
        <ele>2370.434436803</ele>
        <time>2016-03-30T10:41:00Z</time>
      </trkpt>
      <trkpt lat="45.19875" lon="6.38582">
        <ele>2373.688191479</ele>
        <time>2016-03-30T10:41:04Z</time>
      </trkpt>
      <trkpt lat="45.19874" lon="6.38578">
        <ele>2373.688191479</ele>
        <time>2016-03-30T10:41:12Z</time>
      </trkpt>
      <trkpt lat="45.19865" lon="6.38558">
        <ele>2376.195071484</ele>
        <time>2016-03-30T10:41:45Z</time>
      </trkpt>
      <trkpt lat="45.19863" lon="6.38554">
        <ele>2376.195071484</ele>
        <time>2016-03-30T10:41:49Z</time>
      </trkpt>
      <trkpt lat="45.19859" lon="6.38543">
        <ele>2378.731475241</ele>
        <time>2016-03-30T10:42:05Z</time>
      </trkpt>
      <trkpt lat="45.19858" lon="6.38541">
        <ele>2378.731475241</ele>
        <time>2016-03-30T10:42:09Z</time>
      </trkpt>
      <trkpt lat="45.19854" lon="6.38532">
        <ele>2381.4402905</ele>
        <time>2016-03-30T10:42:19Z</time>
      </trkpt>
      <trkpt lat="45.19854" lon="6.3853">
        <ele>2381.4402905</ele>
        <time>2016-03-30T10:42:24Z</time>
      </trkpt>
      <trkpt lat="45.19855" lon="6.38528">
        <ele>2381.4402905</ele>
        <time>2016-03-30T10:42:34Z</time>
      </trkpt>
      <trkpt lat="45.19853" lon="6.38521">
        <ele>2381.4402905</ele>
        <time>2016-03-30T10:42:39Z</time>
      </trkpt>
      <trkpt lat="45.19853" lon="6.38507">
        <ele>2384.165247902</ele>
        <time>2016-03-30T10:42:49Z</time>
      </trkpt>
      <trkpt lat="45.19853" lon="6.38505">
        <ele>2384.165247902</ele>
        <time>2016-03-30T10:42:53Z</time>
      </trkpt>
      <trkpt lat="45.19849" lon="6.38496">
        <ele>2384.165247902</ele>
        <time>2016-03-30T10:43:03Z</time>
      </trkpt>
      <trkpt lat="45.19848" lon="6.38495">
        <ele>2386.329217562</ele>
        <time>2016-03-30T10:43:08Z</time>
      </trkpt>
      <trkpt lat="45.19845" lon="6.38488">
        <ele>2386.329217562</ele>
        <time>2016-03-30T10:43:18Z</time>
      </trkpt>
      <trkpt lat="45.19841" lon="6.38484">
        <ele>2388.40784931</ele>
        <time>2016-03-30T10:43:23Z</time>
      </trkpt>
      <trkpt lat="45.19837" lon="6.3847">
        <ele>2390.698005553</ele>
        <time>2016-03-30T10:43:38Z</time>
      </trkpt>
      <trkpt lat="45.19838" lon="6.38466">
        <ele>2390.698005553</ele>
        <time>2016-03-30T10:43:43Z</time>
      </trkpt>
      <trkpt lat="45.19838" lon="6.38459">
        <ele>2390.698005553</ele>
        <time>2016-03-30T10:43:51Z</time>
      </trkpt>
      <trkpt lat="45.19836" lon="6.38445">
        <ele>2392.75360962</ele>
        <time>2016-03-30T10:44:26Z</time>
      </trkpt>
      <trkpt lat="45.19828" lon="6.38406">
        <ele>2395.89135668</ele>
        <time>2016-03-30T10:44:58Z</time>
      </trkpt>
      <trkpt lat="45.19832" lon="6.38407">
        <ele>2395.89135668</ele>
        <time>2016-03-30T10:45:03Z</time>
      </trkpt>
      <trkpt lat="45.19831" lon="6.38395">
        <ele>2398.878299183</ele>
        <time>2016-03-30T10:45:18Z</time>
      </trkpt>
      <trkpt lat="45.1983" lon="6.38395">
        <ele>2398.878299183</ele>
        <time>2016-03-30T10:45:23Z</time>
      </trkpt>
      <trkpt lat="45.1983" lon="6.38391">
        <ele>2398.878299183</ele>
        <time>2016-03-30T10:45:33Z</time>
      </trkpt>
      <trkpt lat="45.1983" lon="6.38376">
        <ele>2402.013600164</ele>
        <time>2016-03-30T10:45:44Z</time>
      </trkpt>
      <trkpt lat="45.19831" lon="6.38372">
        <ele>2402.013600164</ele>
        <time>2016-03-30T10:45:49Z</time>
      </trkpt>
      <trkpt lat="45.19829" lon="6.38362">
        <ele>2404.853477592</ele>
        <time>2016-03-30T10:46:00Z</time>
      </trkpt>
      <trkpt lat="45.19829" lon="6.3836">
        <ele>2404.853477592</ele>
        <time>2016-03-30T10:46:03Z</time>
      </trkpt>
      <trkpt lat="45.19827" lon="6.38349">
        <ele>2407.275803284</ele>
        <time>2016-03-30T10:46:15Z</time>
      </trkpt>
      <trkpt lat="45.19826" lon="6.38346">
        <ele>2407.275803284</ele>
        <time>2016-03-30T10:46:18Z</time>
      </trkpt>
      <trkpt lat="45.19825" lon="6.38342">
        <ele>2407.275803284</ele>
        <time>2016-03-30T10:46:23Z</time>
      </trkpt>
      <trkpt lat="45.19823" lon="6.38335">
        <ele>2409.600926447</ele>
        <time>2016-03-30T10:46:35Z</time>
      </trkpt>
      <trkpt lat="45.19824" lon="6.38332">
        <ele>2409.600926447</ele>
        <time>2016-03-30T10:46:39Z</time>
      </trkpt>
      <trkpt lat="45.19822" lon="6.38287">
        <ele>2411.693600477</ele>
        <time>2016-03-30T10:47:10Z</time>
      </trkpt>
      <trkpt lat="45.19822" lon="6.38286">
        <ele>2411.693600477</ele>
        <time>2016-03-30T10:47:11Z</time>
      </trkpt>
      <trkpt lat="45.19821" lon="6.38285">
        <ele>2411.693600477</ele>
        <time>2016-03-30T10:47:12Z</time>
      </trkpt>
      <trkpt lat="45.1982" lon="6.38284">
        <ele>2411.693600477</ele>
        <time>2016-03-30T10:47:13Z</time>
      </trkpt>
      <trkpt lat="45.19819" lon="6.38283">
        <ele>2411.693600477</ele>
        <time>2016-03-30T10:47:14Z</time>
      </trkpt>
      <trkpt lat="45.19818" lon="6.38282">
        <ele>2411.693600477</ele>
        <time>2016-03-30T10:47:15Z</time>
      </trkpt>
      <trkpt lat="45.19811" lon="6.38269">
        <ele>2414.005603866</ele>
        <time>2016-03-30T10:47:27Z</time>
      </trkpt>
      <trkpt lat="45.19811" lon="6.38267">
        <ele>2414.005603866</ele>
        <time>2016-03-30T10:47:28Z</time>
      </trkpt>
      <trkpt lat="45.19804" lon="6.38258">
        <ele>2415.802010327</ele>
        <time>2016-03-30T10:47:45Z</time>
      </trkpt>
      <trkpt lat="45.19803" lon="6.38258">
        <ele>2415.802010327</ele>
        <time>2016-03-30T10:47:48Z</time>
      </trkpt>
      <trkpt lat="45.19799" lon="6.38252">
        <ele>2415.802010327</ele>
        <time>2016-03-30T10:47:59Z</time>
      </trkpt>
      <trkpt lat="45.19795" lon="6.38244">
        <ele>2417.556197434</ele>
        <time>2016-03-30T10:48:05Z</time>
      </trkpt>
      <trkpt lat="45.19788" lon="6.38236">
        <ele>2418.986304785</ele>
        <time>2016-03-30T10:48:14Z</time>
      </trkpt>
      <trkpt lat="45.19786" lon="6.38234">
        <ele>2418.986304785</ele>
        <time>2016-03-30T10:48:21Z</time>
      </trkpt>
      <trkpt lat="45.19774" lon="6.38216">
        <ele>2420.40849654</ele>
        <time>2016-03-30T10:48:35Z</time>
      </trkpt>
      <trkpt lat="45.1977" lon="6.38211">
        <ele>2420.40849654</ele>
        <time>2016-03-30T10:48:39Z</time>
      </trkpt>
      <trkpt lat="45.19765" lon="6.38203">
        <ele>2421.683356765</ele>
        <time>2016-03-30T10:48:49Z</time>
      </trkpt>
      <trkpt lat="45.19761" lon="6.38201">
        <ele>2421.683356765</ele>
        <time>2016-03-30T10:48:54Z</time>
      </trkpt>
      <trkpt lat="45.19745" lon="6.38178">
        <ele>2422.249736832</ele>
        <time>2016-03-30T10:49:23Z</time>
      </trkpt>
      <trkpt lat="45.19745" lon="6.38176">
        <ele>2422.249736832</ele>
        <time>2016-03-30T10:49:25Z</time>
      </trkpt>
      <trkpt lat="45.19743" lon="6.38174">
        <ele>2422.249736832</ele>
        <time>2016-03-30T10:49:50Z</time>
      </trkpt>
      <trkpt lat="45.19718" lon="6.38147">
        <ele>2424.471858475</ele>
        <time>2016-03-30T10:50:03Z</time>
      </trkpt>
      <trkpt lat="45.19713" lon="6.38143">
        <ele>2424.471858475</ele>
        <time>2016-03-30T10:50:08Z</time>
      </trkpt>
      <trkpt lat="45.19708" lon="6.38133">
        <ele>2426.644553548</ele>
        <time>2016-03-30T10:50:19Z</time>
      </trkpt>
      <trkpt lat="45.19704" lon="6.38127">
        <ele>2426.644553548</ele>
        <time>2016-03-30T10:50:24Z</time>
      </trkpt>
      <trkpt lat="45.19701" lon="6.38119">
        <ele>2428.196756576</ele>
        <time>2016-03-30T10:50:38Z</time>
      </trkpt>
      <trkpt lat="45.19693" lon="6.38115">
        <ele>2428.196756576</ele>
        <time>2016-03-30T10:50:43Z</time>
      </trkpt>
      <trkpt lat="45.19687" lon="6.38105">
        <ele>2429.465680998</ele>
        <time>2016-03-30T10:50:54Z</time>
      </trkpt>
      <trkpt lat="45.1968" lon="6.38092">
        <ele>2430.476258734</ele>
        <time>2016-03-30T10:51:08Z</time>
      </trkpt>
      <trkpt lat="45.19676" lon="6.38088">
        <ele>2430.476258734</ele>
        <time>2016-03-30T10:51:14Z</time>
      </trkpt>
      <trkpt lat="45.19668" lon="6.38079">
        <ele>2431.252226986</ele>
        <time>2016-03-30T10:51:24Z</time>
      </trkpt>
      <trkpt lat="45.19657" lon="6.3807">
        <ele>2431.527919044</ele>
        <time>2016-03-30T10:51:39Z</time>
      </trkpt>
      <trkpt lat="45.19653" lon="6.38066">
        <ele>2431.527919044</ele>
        <time>2016-03-30T10:51:45Z</time>
      </trkpt>
      <trkpt lat="45.19645" lon="6.38058">
        <ele>2432.355483609</ele>
        <time>2016-03-30T10:51:53Z</time>
      </trkpt>
      <trkpt lat="45.19641" lon="6.38054">
        <ele>2432.355483609</ele>
        <time>2016-03-30T10:51:58Z</time>
      </trkpt>
      <trkpt lat="45.19633" lon="6.38047">
        <ele>2433.267006844</ele>
        <time>2016-03-30T10:52:08Z</time>
      </trkpt>
      <trkpt lat="45.19629" lon="6.38044">
        <ele>2433.267006844</ele>
        <time>2016-03-30T10:52:13Z</time>
      </trkpt>
      <trkpt lat="45.19619" lon="6.3804">
        <ele>2434.260925877</ele>
        <time>2016-03-30T10:52:24Z</time>
      </trkpt>
      <trkpt lat="45.19616" lon="6.38037">
        <ele>2434.260925877</ele>
        <time>2016-03-30T10:52:28Z</time>
      </trkpt>
      <trkpt lat="45.19608" lon="6.38034">
        <ele>2435.047213544</ele>
        <time>2016-03-30T10:52:38Z</time>
      </trkpt>
      <trkpt lat="45.19604" lon="6.38031">
        <ele>2435.047213544</ele>
        <time>2016-03-30T10:52:43Z</time>
      </trkpt>
      <trkpt lat="45.19595" lon="6.38019">
        <ele>2435.789933861</ele>
        <time>2016-03-30T10:52:58Z</time>
      </trkpt>
      <trkpt lat="45.19591" lon="6.38014">
        <ele>2435.789933861</ele>
        <time>2016-03-30T10:53:03Z</time>
      </trkpt>
      <trkpt lat="45.19586" lon="6.38006">
        <ele>2436.064641672</ele>
        <time>2016-03-30T10:53:13Z</time>
      </trkpt>
      <trkpt lat="45.19584" lon="6.38005">
        <ele>2436.064641672</ele>
        <time>2016-03-30T10:53:18Z</time>
      </trkpt>
      <trkpt lat="45.19578" lon="6.38001">
        <ele>2436.064641672</ele>
        <time>2016-03-30T10:53:28Z</time>
      </trkpt>
      <trkpt lat="45.19578" lon="6.38001">
        <ele>2436.488023036</ele>
        <time>2016-03-30T10:53:33Z</time>
      </trkpt>
      <trkpt lat="45.19576" lon="6.37998">
        <ele>2436.488023036</ele>
        <time>2016-03-30T10:53:43Z</time>
      </trkpt>
      <trkpt lat="45.19576" lon="6.37998">
        <ele>2436.488023036</ele>
        <time>2016-03-30T10:53:48Z</time>
      </trkpt>
      <trkpt lat="45.19576" lon="6.37996">
        <ele>2436.488023036</ele>
        <time>2016-03-30T10:53:59Z</time>
      </trkpt>
      <trkpt lat="45.19576" lon="6.37996">
        <ele>2436.488023036</ele>
        <time>2016-03-30T10:54:05Z</time>
      </trkpt>
      <trkpt lat="45.19576" lon="6.37993">
        <ele>2436.488023036</ele>
        <time>2016-03-30T10:54:20Z</time>
      </trkpt>
      <trkpt lat="45.19576" lon="6.37992">
        <ele>2436.488023036</ele>
        <time>2016-03-30T10:54:33Z</time>
      </trkpt>
      <trkpt lat="45.19576" lon="6.37992">
        <ele>2436.488023036</ele>
        <time>2016-03-30T10:54:38Z</time>
      </trkpt>
      <trkpt lat="45.19576" lon="6.37992">
        <ele>2436.488023036</ele>
        <time>2016-03-30T10:54:43Z</time>
      </trkpt>
      <trkpt lat="45.19576" lon="6.37992">
        <ele>2436.488023036</ele>
        <time>2016-03-30T10:54:53Z</time>
      </trkpt>
      <trkpt lat="45.19576" lon="6.37992">
        <ele>2436.488023036</ele>
        <time>2016-03-30T10:55:09Z</time>
      </trkpt>
      <trkpt lat="45.19576" lon="6.37992">
        <ele>2436.488023036</ele>
        <time>2016-03-30T10:55:24Z</time>
      </trkpt>
      <trkpt lat="45.19576" lon="6.37992">
        <ele>2436.488023036</ele>
        <time>2016-03-30T10:55:29Z</time>
      </trkpt>
      <trkpt lat="45.19576" lon="6.37992">
        <ele>2436.488023036</ele>
        <time>2016-03-30T10:55:39Z</time>
      </trkpt>
      <trkpt lat="45.19576" lon="6.37992">
        <ele>2436.488023036</ele>
        <time>2016-03-30T10:55:44Z</time>
      </trkpt>
      <trkpt lat="45.19576" lon="6.37992">
        <ele>2436.488023036</ele>
        <time>2016-03-30T10:55:54Z</time>
      </trkpt>
      <trkpt lat="45.19576" lon="6.37992">
        <ele>2436.488023036</ele>
        <time>2016-03-30T10:55:59Z</time>
      </trkpt>
      <trkpt lat="45.19576" lon="6.37992">
        <ele>2436.488023036</ele>
        <time>2016-03-30T10:56:09Z</time>
      </trkpt>
      <trkpt lat="45.19576" lon="6.37992">
        <ele>2436.488023036</ele>
        <time>2016-03-30T10:56:14Z</time>
      </trkpt>
      <trkpt lat="45.19576" lon="6.37992">
        <ele>2436.488023036</ele>
        <time>2016-03-30T10:56:24Z</time>
      </trkpt>
      <trkpt lat="45.19576" lon="6.37992">
        <ele>2436.488023036</ele>
        <time>2016-03-30T10:56:28Z</time>
      </trkpt>
      <trkpt lat="45.19576" lon="6.37992">
        <ele>2436.488023036</ele>
        <time>2016-03-30T10:56:39Z</time>
      </trkpt>
      <trkpt lat="45.19576" lon="6.37992">
        <ele>2436.488023036</ele>
        <time>2016-03-30T10:56:45Z</time>
      </trkpt>
      <trkpt lat="45.19576" lon="6.37992">
        <ele>2436.488023036</ele>
        <time>2016-03-30T10:56:54Z</time>
      </trkpt>
      <trkpt lat="45.19576" lon="6.37992">
        <ele>2436.488023036</ele>
        <time>2016-03-30T10:56:59Z</time>
      </trkpt>
      <trkpt lat="45.19576" lon="6.37992">
        <ele>2436.488023036</ele>
        <time>2016-03-30T10:57:04Z</time>
      </trkpt>
      <trkpt lat="45.19576" lon="6.37992">
        <ele>2436.488023036</ele>
        <time>2016-03-30T10:57:13Z</time>
      </trkpt>
      <trkpt lat="45.19576" lon="6.37992">
        <ele>2436.488023036</ele>
        <time>2016-03-30T10:57:20Z</time>
      </trkpt>
      <trkpt lat="45.19576" lon="6.37992">
        <ele>2436.488023036</ele>
        <time>2016-03-30T10:57:29Z</time>
      </trkpt>
      <trkpt lat="45.19576" lon="6.37992">
        <ele>2436.488023036</ele>
        <time>2016-03-30T10:57:34Z</time>
      </trkpt>
      <trkpt lat="45.19576" lon="6.37992">
        <ele>2436.488023036</ele>
        <time>2016-03-30T10:57:45Z</time>
      </trkpt>
      <trkpt lat="45.19576" lon="6.37992">
        <ele>2436.488023036</ele>
        <time>2016-03-30T10:57:49Z</time>
      </trkpt>
      <trkpt lat="45.19576" lon="6.37992">
        <ele>2436.488023036</ele>
        <time>2016-03-30T10:57:59Z</time>
      </trkpt>
      <trkpt lat="45.19576" lon="6.37992">
        <ele>2436.488023036</ele>
        <time>2016-03-30T10:58:04Z</time>
      </trkpt>
      <trkpt lat="45.19575" lon="6.37992">
        <ele>2436.488023036</ele>
        <time>2016-03-30T10:58:14Z</time>
      </trkpt>
      <trkpt lat="45.19575" lon="6.37991">
        <ele>2436.910345329</ele>
        <time>2016-03-30T10:58:20Z</time>
      </trkpt>
      <trkpt lat="45.19577" lon="6.37993">
        <ele>2436.910345329</ele>
        <time>2016-03-30T10:58:35Z</time>
      </trkpt>
      <trkpt lat="45.19576" lon="6.37993">
        <ele>2436.910345329</ele>
        <time>2016-03-30T10:58:39Z</time>
      </trkpt>
      <trkpt lat="45.19576" lon="6.37993">
        <ele>2436.910345329</ele>
        <time>2016-03-30T10:59:09Z</time>
      </trkpt>
      <trkpt lat="45.19576" lon="6.37993">
        <ele>2436.910345329</ele>
        <time>2016-03-30T10:59:10Z</time>
      </trkpt>
      <trkpt lat="45.19576" lon="6.37993">
        <ele>2436.910345329</ele>
        <time>2016-03-30T10:59:30Z</time>
      </trkpt>
      <trkpt lat="45.19576" lon="6.37993">
        <ele>2436.910345329</ele>
        <time>2016-03-30T10:59:33Z</time>
      </trkpt>
      <trkpt lat="45.19576" lon="6.37993">
        <ele>2436.910345329</ele>
        <time>2016-03-30T11:00:03Z</time>
      </trkpt>
      <trkpt lat="45.19576" lon="6.37993">
        <ele>2436.910345329</ele>
        <time>2016-03-30T11:00:41Z</time>
      </trkpt>
      <trkpt lat="45.19576" lon="6.37993">
        <ele>2436.910345329</ele>
        <time>2016-03-30T11:00:43Z</time>
      </trkpt>
      <trkpt lat="45.19576" lon="6.37993">
        <ele>2436.910345329</ele>
        <time>2016-03-30T11:01:33Z</time>
      </trkpt>
      <trkpt lat="45.19576" lon="6.37993">
        <ele>2436.910345329</ele>
        <time>2016-03-30T11:02:23Z</time>
      </trkpt>
      <trkpt lat="45.19576" lon="6.37993">
        <ele>2436.910345329</ele>
        <time>2016-03-30T11:02:24Z</time>
      </trkpt>
      <trkpt lat="45.19576" lon="6.37993">
        <ele>2436.910345329</ele>
        <time>2016-03-30T11:02:26Z</time>
      </trkpt>
      <trkpt lat="45.19576" lon="6.37993">
        <ele>2436.910345329</ele>
        <time>2016-03-30T11:03:18Z</time>
      </trkpt>
      <trkpt lat="45.19576" lon="6.37993">
        <ele>2436.910345329</ele>
        <time>2016-03-30T11:03:34Z</time>
      </trkpt>
      <trkpt lat="45.19576" lon="6.37993">
        <ele>2436.910345329</ele>
        <time>2016-03-30T11:03:35Z</time>
      </trkpt>
      <trkpt lat="45.19576" lon="6.37993">
        <ele>2436.910345329</ele>
        <time>2016-03-30T11:03:50Z</time>
      </trkpt>
      <trkpt lat="45.19576" lon="6.37993">
        <ele>2436.910345329</ele>
        <time>2016-03-30T11:03:51Z</time>
      </trkpt>
      <trkpt lat="45.19576" lon="6.37993">
        <ele>2436.910345329</ele>
        <time>2016-03-30T11:03:53Z</time>
      </trkpt>
      <trkpt lat="45.19576" lon="6.37993">
        <ele>2436.910345329</ele>
        <time>2016-03-30T11:03:58Z</time>
      </trkpt>
      <trkpt lat="45.19576" lon="6.37993">
        <ele>2436.910345329</ele>
        <time>2016-03-30T11:04:08Z</time>
      </trkpt>
      <trkpt lat="45.19576" lon="6.37993">
        <ele>2436.910345329</ele>
        <time>2016-03-30T11:04:13Z</time>
      </trkpt>
      <trkpt lat="45.19571" lon="6.37985">
        <ele>2437.480951485</ele>
        <time>2016-03-30T11:04:24Z</time>
      </trkpt>
      <trkpt lat="45.19568" lon="6.37982">
        <ele>2437.480951485</ele>
        <time>2016-03-30T11:04:29Z</time>
      </trkpt>
      <trkpt lat="45.19567" lon="6.37973">
        <ele>2437.905311064</ele>
        <time>2016-03-30T11:04:39Z</time>
      </trkpt>
      <trkpt lat="45.19563" lon="6.3797">
        <ele>2437.905311064</ele>
        <time>2016-03-30T11:04:45Z</time>
      </trkpt>
      <trkpt lat="45.19564" lon="6.37965">
        <ele>2437.905311064</ele>
        <time>2016-03-30T11:04:54Z</time>
      </trkpt>
      <trkpt lat="45.19564" lon="6.37965">
        <ele>2437.905311064</ele>
        <time>2016-03-30T11:04:59Z</time>
      </trkpt>
      <trkpt lat="45.19563" lon="6.37956">
        <ele>2438.199005648</ele>
        <time>2016-03-30T11:05:08Z</time>
      </trkpt>
      <trkpt lat="45.19559" lon="6.3795">
        <ele>2438.199005648</ele>
        <time>2016-03-30T11:05:15Z</time>
      </trkpt>
      <trkpt lat="45.19558" lon="6.37947">
        <ele>2438.199005648</ele>
        <time>2016-03-30T11:05:29Z</time>
      </trkpt>
      <trkpt lat="45.19556" lon="6.37945">
        <ele>2439.241347636</ele>
        <time>2016-03-30T11:05:30Z</time>
      </trkpt>
      <trkpt lat="45.19552" lon="6.37942">
        <ele>2439.241347636</ele>
        <time>2016-03-30T11:05:44Z</time>
      </trkpt>
      <trkpt lat="45.19537" lon="6.37937">
        <ele>2441.268354131</ele>
        <time>2016-03-30T11:06:12Z</time>
      </trkpt>
      <trkpt lat="45.19536" lon="6.37937">
        <ele>2441.268354131</ele>
        <time>2016-03-30T11:06:13Z</time>
      </trkpt>
      <trkpt lat="45.19535" lon="6.37939">
        <ele>2441.268354131</ele>
        <time>2016-03-30T11:06:20Z</time>
      </trkpt>
      <trkpt lat="45.19534" lon="6.37938">
        <ele>2441.268354131</ele>
        <time>2016-03-30T11:06:28Z</time>
      </trkpt>
      <trkpt lat="45.1953" lon="6.3794">
        <ele>2441.268354131</ele>
        <time>2016-03-30T11:06:35Z</time>
      </trkpt>
      <trkpt lat="45.19524" lon="6.37937">
        <ele>2443.342900555</ele>
        <time>2016-03-30T11:06:45Z</time>
      </trkpt>
      <trkpt lat="45.19522" lon="6.37936">
        <ele>2443.342900555</ele>
        <time>2016-03-30T11:06:49Z</time>
      </trkpt>
      <trkpt lat="45.19514" lon="6.37936">
        <ele>2445.461092097</ele>
        <time>2016-03-30T11:06:59Z</time>
      </trkpt>
      <trkpt lat="45.19511" lon="6.37938">
        <ele>2445.461092097</ele>
        <time>2016-03-30T11:07:04Z</time>
      </trkpt>
      <trkpt lat="45.195" lon="6.37935">
        <ele>2447.186729822</ele>
        <time>2016-03-30T11:07:19Z</time>
      </trkpt>
      <trkpt lat="45.1949" lon="6.37938">
        <ele>2448.837191156</ele>
        <time>2016-03-30T11:07:35Z</time>
      </trkpt>
      <trkpt lat="45.19488" lon="6.37937">
        <ele>2448.837191156</ele>
        <time>2016-03-30T11:07:38Z</time>
      </trkpt>
      <trkpt lat="45.19478" lon="6.3794">
        <ele>2449.986079229</ele>
        <time>2016-03-30T11:07:48Z</time>
      </trkpt>
      <trkpt lat="45.19477" lon="6.37939">
        <ele>2449.986079229</ele>
        <time>2016-03-30T11:07:53Z</time>
      </trkpt>
      <trkpt lat="45.19475" lon="6.37945">
        <ele>2449.986079229</ele>
        <time>2016-03-30T11:08:03Z</time>
      </trkpt>
      <trkpt lat="45.1947" lon="6.37949">
        <ele>2451.680731465</ele>
        <time>2016-03-30T11:08:08Z</time>
      </trkpt>
      <trkpt lat="45.19457" lon="6.3795">
        <ele>2453.304693678</ele>
        <time>2016-03-30T11:08:26Z</time>
      </trkpt>
      <trkpt lat="45.19449" lon="6.37944">
        <ele>2453.304693678</ele>
        <time>2016-03-30T11:08:27Z</time>
      </trkpt>
      <trkpt lat="45.19448" lon="6.3795">
        <ele>2455.007455446</ele>
        <time>2016-03-30T11:08:33Z</time>
      </trkpt>
      <trkpt lat="45.19423" lon="6.37954">
        <ele>2456.638993084</ele>
        <time>2016-03-30T11:09:02Z</time>
      </trkpt>
      <trkpt lat="45.19422" lon="6.37955">
        <ele>2456.638993084</ele>
        <time>2016-03-30T11:09:03Z</time>
      </trkpt>
      <trkpt lat="45.19401" lon="6.37958">
        <ele>2459.06920119</ele>
        <time>2016-03-30T11:09:34Z</time>
      </trkpt>
      <trkpt lat="45.194" lon="6.37958">
        <ele>2459.06920119</ele>
        <time>2016-03-30T11:09:39Z</time>
      </trkpt>
      <trkpt lat="45.19401" lon="6.37958">
        <ele>2459.06920119</ele>
        <time>2016-03-30T11:09:49Z</time>
      </trkpt>
      <trkpt lat="45.19401" lon="6.37958">
        <ele>2459.06920119</ele>
        <time>2016-03-30T11:09:54Z</time>
      </trkpt>
      <trkpt lat="45.19395" lon="6.3796">
        <ele>2459.06920119</ele>
        <time>2016-03-30T11:10:04Z</time>
      </trkpt>
      <trkpt lat="45.19393" lon="6.37961">
        <ele>2461.084203249</ele>
        <time>2016-03-30T11:10:09Z</time>
      </trkpt>
      <trkpt lat="45.19387" lon="6.3796">
        <ele>2461.084203249</ele>
        <time>2016-03-30T11:10:19Z</time>
      </trkpt>
      <trkpt lat="45.19385" lon="6.37961">
        <ele>2461.084203249</ele>
        <time>2016-03-30T11:10:24Z</time>
      </trkpt>
      <trkpt lat="45.19384" lon="6.37963">
        <ele>2463.001506014</ele>
        <time>2016-03-30T11:10:35Z</time>
      </trkpt>
      <trkpt lat="45.19384" lon="6.37963">
        <ele>2463.001506014</ele>
        <time>2016-03-30T11:10:39Z</time>
      </trkpt>
      <trkpt lat="45.19378" lon="6.37961">
        <ele>2463.001506014</ele>
        <time>2016-03-30T11:10:50Z</time>
      </trkpt>
      <trkpt lat="45.19378" lon="6.37962">
        <ele>2463.001506014</ele>
        <time>2016-03-30T11:10:54Z</time>
      </trkpt>
      <trkpt lat="45.19375" lon="6.37959">
        <ele>2465.69195719</ele>
        <time>2016-03-30T11:11:04Z</time>
      </trkpt>
      <trkpt lat="45.19375" lon="6.37956">
        <ele>2465.69195719</ele>
        <time>2016-03-30T11:11:09Z</time>
      </trkpt>
      <trkpt lat="45.19378" lon="6.3795">
        <ele>2465.69195719</ele>
        <time>2016-03-30T11:11:19Z</time>
      </trkpt>
      <trkpt lat="45.19379" lon="6.37947">
        <ele>2468.663220068</ele>
        <time>2016-03-30T11:11:24Z</time>
      </trkpt>
      <trkpt lat="45.1938" lon="6.37943">
        <ele>2468.663220068</ele>
        <time>2016-03-30T11:11:28Z</time>
      </trkpt>
      <trkpt lat="45.19383" lon="6.37936">
        <ele>2468.663220068</ele>
        <time>2016-03-30T11:11:40Z</time>
      </trkpt>
      <trkpt lat="45.19385" lon="6.37932">
        <ele>2471.74652783</ele>
        <time>2016-03-30T11:11:44Z</time>
      </trkpt>
      <trkpt lat="45.19384" lon="6.37932">
        <ele>2471.74652783</ele>
        <time>2016-03-30T11:11:55Z</time>
      </trkpt>
      <trkpt lat="45.19384" lon="6.37932">
        <ele>2471.74652783</ele>
        <time>2016-03-30T11:11:59Z</time>
      </trkpt>
      <trkpt lat="45.1938" lon="6.37929">
        <ele>2471.74652783</ele>
        <time>2016-03-30T11:12:09Z</time>
      </trkpt>
      <trkpt lat="45.19376" lon="6.37926">
        <ele>2474.785178258</ele>
        <time>2016-03-30T11:12:14Z</time>
      </trkpt>
      <trkpt lat="45.19371" lon="6.37923">
        <ele>2474.785178258</ele>
        <time>2016-03-30T11:12:25Z</time>
      </trkpt>
      <trkpt lat="45.1937" lon="6.37923">
        <ele>2474.785178258</ele>
        <time>2016-03-30T11:12:29Z</time>
      </trkpt>
      <trkpt lat="45.1937" lon="6.3792">
        <ele>2474.785178258</ele>
        <time>2016-03-30T11:12:39Z</time>
      </trkpt>
      <trkpt lat="45.1937" lon="6.37919">
        <ele>2478.210546134</ele>
        <time>2016-03-30T11:12:44Z</time>
      </trkpt>
      <trkpt lat="45.19371" lon="6.3792">
        <ele>2478.210546134</ele>
        <time>2016-03-30T11:12:53Z</time>
      </trkpt>
      <trkpt lat="45.19371" lon="6.3792">
        <ele>2478.210546134</ele>
        <time>2016-03-30T11:12:58Z</time>
      </trkpt>
      <trkpt lat="45.19371" lon="6.3792">
        <ele>2478.210546134</ele>
        <time>2016-03-30T11:13:10Z</time>
      </trkpt>
      <trkpt lat="45.19372" lon="6.37918">
        <ele>2478.210546134</ele>
        <time>2016-03-30T11:13:14Z</time>
      </trkpt>
      <trkpt lat="45.19381" lon="6.37907">
        <ele>2481.988910098</ele>
        <time>2016-03-30T11:13:29Z</time>
      </trkpt>
      <trkpt lat="45.19384" lon="6.379">
        <ele>2481.988910098</ele>
        <time>2016-03-30T11:13:34Z</time>
      </trkpt>
      <trkpt lat="45.1939" lon="6.37895">
        <ele>2486.088062103</ele>
        <time>2016-03-30T11:13:45Z</time>
      </trkpt>
      <trkpt lat="45.19388" lon="6.37893">
        <ele>2486.088062103</ele>
        <time>2016-03-30T11:13:49Z</time>
      </trkpt>
      <trkpt lat="45.19382" lon="6.3789">
        <ele>2486.088062103</ele>
        <time>2016-03-30T11:13:59Z</time>
      </trkpt>
      <trkpt lat="45.19381" lon="6.37889">
        <ele>2489.756746285</ele>
        <time>2016-03-30T11:14:04Z</time>
      </trkpt>
      <trkpt lat="45.1938" lon="6.37888">
        <ele>2489.756746285</ele>
        <time>2016-03-30T11:14:14Z</time>
      </trkpt>
      <trkpt lat="45.1938" lon="6.37887">
        <ele>2489.756746285</ele>
        <time>2016-03-30T11:14:18Z</time>
      </trkpt>
      <trkpt lat="45.19377" lon="6.37885">
        <ele>2489.756746285</ele>
        <time>2016-03-30T11:14:30Z</time>
      </trkpt>
      <trkpt lat="45.19375" lon="6.37884">
        <ele>2489.756746285</ele>
        <time>2016-03-30T11:14:34Z</time>
      </trkpt>
      <trkpt lat="45.19375" lon="6.3788">
        <ele>2493.597159425</ele>
        <time>2016-03-30T11:14:44Z</time>
      </trkpt>
      <trkpt lat="45.19374" lon="6.37878">
        <ele>2493.597159425</ele>
        <time>2016-03-30T11:14:49Z</time>
      </trkpt>
      <trkpt lat="45.19378" lon="6.37865">
        <ele>2498.022742028</ele>
        <time>2016-03-30T11:15:04Z</time>
      </trkpt>
      <trkpt lat="45.19378" lon="6.37862">
        <ele>2498.022742028</ele>
        <time>2016-03-30T11:15:09Z</time>
      </trkpt>
      <trkpt lat="45.19382" lon="6.37857">
        <ele>2498.022742028</ele>
        <time>2016-03-30T11:15:20Z</time>
      </trkpt>
      <trkpt lat="45.19384" lon="6.37855">
        <ele>2502.118009708</ele>
        <time>2016-03-30T11:15:24Z</time>
      </trkpt>
      <trkpt lat="45.1939" lon="6.37844">
        <ele>2505.900424142</ele>
        <time>2016-03-30T11:15:34Z</time>
      </trkpt>
      <trkpt lat="45.19392" lon="6.37843">
        <ele>2505.900424142</ele>
        <time>2016-03-30T11:15:39Z</time>
      </trkpt>
      <trkpt lat="45.19389" lon="6.37835">
        <ele>2505.900424142</ele>
        <time>2016-03-30T11:15:54Z</time>
      </trkpt>
      <trkpt lat="45.19385" lon="6.37833">
        <ele>2509.675377935</ele>
        <time>2016-03-30T11:15:59Z</time>
      </trkpt>
      <trkpt lat="45.19378" lon="6.37829">
        <ele>2509.675377935</ele>
        <time>2016-03-30T11:16:09Z</time>
      </trkpt>
      <trkpt lat="45.19379" lon="6.37825">
        <ele>2513.149529537</ele>
        <time>2016-03-30T11:16:14Z</time>
      </trkpt>
      <trkpt lat="45.19378" lon="6.3782">
        <ele>2513.149529537</ele>
        <time>2016-03-30T11:16:24Z</time>
      </trkpt>
      <trkpt lat="45.19377" lon="6.37818">
        <ele>2513.149529537</ele>
        <time>2016-03-30T11:16:29Z</time>
      </trkpt>
      <trkpt lat="45.1938" lon="6.37805">
        <ele>2517.060839658</ele>
        <time>2016-03-30T11:16:40Z</time>
      </trkpt>
      <trkpt lat="45.1938" lon="6.37798">
        <ele>2517.060839658</ele>
        <time>2016-03-30T11:16:44Z</time>
      </trkpt>
      <trkpt lat="45.19384" lon="6.37786">
        <ele>2521.083192606</ele>
        <time>2016-03-30T11:16:53Z</time>
      </trkpt>
      <trkpt lat="45.19388" lon="6.37777">
        <ele>2521.083192606</ele>
        <time>2016-03-30T11:16:58Z</time>
      </trkpt>
      <trkpt lat="45.19388" lon="6.37774">
        <ele>2525.202484462</ele>
        <time>2016-03-30T11:17:10Z</time>
      </trkpt>
      <trkpt lat="45.1939" lon="6.37767">
        <ele>2525.202484462</ele>
        <time>2016-03-30T11:17:14Z</time>
      </trkpt>
      <trkpt lat="45.19382" lon="6.37766">
        <ele>2529.981972223</ele>
        <time>2016-03-30T11:17:24Z</time>
      </trkpt>
      <trkpt lat="45.19378" lon="6.37765">
        <ele>2529.981972223</ele>
        <time>2016-03-30T11:17:29Z</time>
      </trkpt>
      <trkpt lat="45.19372" lon="6.3776">
        <ele>2534.644844056</ele>
        <time>2016-03-30T11:17:39Z</time>
      </trkpt>
      <trkpt lat="45.1937" lon="6.37759">
        <ele>2534.644844056</ele>
        <time>2016-03-30T11:17:43Z</time>
      </trkpt>
      <trkpt lat="45.19363" lon="6.37752">
        <ele>2539.192403838</ele>
        <time>2016-03-30T11:17:58Z</time>
      </trkpt>
      <trkpt lat="45.19364" lon="6.3775">
        <ele>2539.192403838</ele>
        <time>2016-03-30T11:18:03Z</time>
      </trkpt>
      <trkpt lat="45.19363" lon="6.3775">
        <ele>2539.192403838</ele>
        <time>2016-03-30T11:18:13Z</time>
      </trkpt>
      <trkpt lat="45.19369" lon="6.37742">
        <ele>2543.482248388</ele>
        <time>2016-03-30T11:18:19Z</time>
      </trkpt>
      <trkpt lat="45.19375" lon="6.37733">
        <ele>2543.482248388</ele>
        <time>2016-03-30T11:18:30Z</time>
      </trkpt>
      <trkpt lat="45.19376" lon="6.37728">
        <ele>2548.103897931</ele>
        <time>2016-03-30T11:18:34Z</time>
      </trkpt>
      <trkpt lat="45.19376" lon="6.3772">
        <ele>2548.103897931</ele>
        <time>2016-03-30T11:18:44Z</time>
      </trkpt>
      <trkpt lat="45.19373" lon="6.37717">
        <ele>2552.44993576</ele>
        <time>2016-03-30T11:18:49Z</time>
      </trkpt>
      <trkpt lat="45.19365" lon="6.37708">
        <ele>2557.111421662</ele>
        <time>2016-03-30T11:19:04Z</time>
      </trkpt>
      <trkpt lat="45.19367" lon="6.37704">
        <ele>2557.111421662</ele>
        <time>2016-03-30T11:19:09Z</time>
      </trkpt>
      <trkpt lat="45.19372" lon="6.37696">
        <ele>2561.91475325</ele>
        <time>2016-03-30T11:19:19Z</time>
      </trkpt>
      <trkpt lat="45.19375" lon="6.37691">
        <ele>2561.91475325</ele>
        <time>2016-03-30T11:19:24Z</time>
      </trkpt>
      <trkpt lat="45.19378" lon="6.37685">
        <ele>2566.122438549</ele>
        <time>2016-03-30T11:19:34Z</time>
      </trkpt>
      <trkpt lat="45.19378" lon="6.37681">
        <ele>2566.122438549</ele>
        <time>2016-03-30T11:19:39Z</time>
      </trkpt>
      <trkpt lat="45.19379" lon="6.37678">
        <ele>2566.122438549</ele>
        <time>2016-03-30T11:19:49Z</time>
      </trkpt>
      <trkpt lat="45.19379" lon="6.37678">
        <ele>2566.122438549</ele>
        <time>2016-03-30T11:19:54Z</time>
      </trkpt>
      <trkpt lat="45.19381" lon="6.37666">
        <ele>2570.061811954</ele>
        <time>2016-03-30T11:20:03Z</time>
      </trkpt>
      <trkpt lat="45.19383" lon="6.37662">
        <ele>2570.061811954</ele>
        <time>2016-03-30T11:20:08Z</time>
      </trkpt>
      <trkpt lat="45.19383" lon="6.37656">
        <ele>2570.061811954</ele>
        <time>2016-03-30T11:20:19Z</time>
      </trkpt>
      <trkpt lat="45.19383" lon="6.37653">
        <ele>2573.316558915</ele>
        <time>2016-03-30T11:20:24Z</time>
      </trkpt>
      <trkpt lat="45.19383" lon="6.37631">
        <ele>2576.223618418</ele>
        <time>2016-03-30T11:20:35Z</time>
      </trkpt>
      <trkpt lat="45.19384" lon="6.37626">
        <ele>2576.223618418</ele>
        <time>2016-03-30T11:20:39Z</time>
      </trkpt>
      <trkpt lat="45.19384" lon="6.3762">
        <ele>2576.223618418</ele>
        <time>2016-03-30T11:20:44Z</time>
      </trkpt>
      <trkpt lat="45.19385" lon="6.37614">
        <ele>2579.240451226</ele>
        <time>2016-03-30T11:20:50Z</time>
      </trkpt>
      <trkpt lat="45.19386" lon="6.3761">
        <ele>2579.240451226</ele>
        <time>2016-03-30T11:20:54Z</time>
      </trkpt>
      <trkpt lat="45.19386" lon="6.376">
        <ele>2582.646670913</ele>
        <time>2016-03-30T11:20:59Z</time>
      </trkpt>
      <trkpt lat="45.19386" lon="6.3759">
        <ele>2582.646670913</ele>
        <time>2016-03-30T11:21:09Z</time>
      </trkpt>
      <trkpt lat="45.19386" lon="6.37589">
        <ele>2582.646670913</ele>
        <time>2016-03-30T11:21:14Z</time>
      </trkpt>
      <trkpt lat="45.19385" lon="6.37577">
        <ele>2586.123980113</ele>
        <time>2016-03-30T11:21:24Z</time>
      </trkpt>
      <trkpt lat="45.19388" lon="6.37573">
        <ele>2586.123980113</ele>
        <time>2016-03-30T11:21:29Z</time>
      </trkpt>
      <trkpt lat="45.19392" lon="6.37566">
        <ele>2589.521531855</ele>
        <time>2016-03-30T11:21:39Z</time>
      </trkpt>
      <trkpt lat="45.19392" lon="6.37563">
        <ele>2589.521531855</ele>
        <time>2016-03-30T11:21:45Z</time>
      </trkpt>
      <trkpt lat="45.19394" lon="6.37553">
        <ele>2593.132266243</ele>
        <time>2016-03-30T11:21:54Z</time>
      </trkpt>
      <trkpt lat="45.19395" lon="6.37549">
        <ele>2593.132266243</ele>
        <time>2016-03-30T11:21:58Z</time>
      </trkpt>
      <trkpt lat="45.19392" lon="6.37537">
        <ele>2597.083037204</ele>
        <time>2016-03-30T11:22:08Z</time>
      </trkpt>
      <trkpt lat="45.19394" lon="6.37536">
        <ele>2597.083037204</ele>
        <time>2016-03-30T11:22:13Z</time>
      </trkpt>
      <trkpt lat="45.19394" lon="6.37536">
        <ele>2597.083037204</ele>
        <time>2016-03-30T11:22:18Z</time>
      </trkpt>
      <trkpt lat="45.19394" lon="6.37536">
        <ele>2597.083037204</ele>
        <time>2016-03-30T11:22:28Z</time>
      </trkpt>
      <trkpt lat="45.19394" lon="6.37536">
        <ele>2597.083037204</ele>
        <time>2016-03-30T11:22:33Z</time>
      </trkpt>
      <trkpt lat="45.19394" lon="6.37536">
        <ele>2597.083037204</ele>
        <time>2016-03-30T11:22:43Z</time>
      </trkpt>
      <trkpt lat="45.19394" lon="6.37536">
        <ele>2597.083037204</ele>
        <time>2016-03-30T11:22:48Z</time>
      </trkpt>
      <trkpt lat="45.19394" lon="6.37536">
        <ele>2597.083037204</ele>
        <time>2016-03-30T11:23:03Z</time>
      </trkpt>
      <trkpt lat="45.19394" lon="6.37536">
        <ele>2597.083037204</ele>
        <time>2016-03-30T11:23:08Z</time>
      </trkpt>
      <trkpt lat="45.19394" lon="6.37536">
        <ele>2597.083037204</ele>
        <time>2016-03-30T11:23:18Z</time>
      </trkpt>
      <trkpt lat="45.19394" lon="6.37536">
        <ele>2597.083037204</ele>
        <time>2016-03-30T11:23:23Z</time>
      </trkpt>
      <trkpt lat="45.19394" lon="6.37536">
        <ele>2597.083037204</ele>
        <time>2016-03-30T11:23:33Z</time>
      </trkpt>
      <trkpt lat="45.19394" lon="6.37536">
        <ele>2597.083037204</ele>
        <time>2016-03-30T11:23:38Z</time>
      </trkpt>
      <trkpt lat="45.19394" lon="6.37536">
        <ele>2597.083037204</ele>
        <time>2016-03-30T11:23:49Z</time>
      </trkpt>
      <trkpt lat="45.19395" lon="6.37532">
        <ele>2597.083037204</ele>
        <time>2016-03-30T11:23:53Z</time>
      </trkpt>
      <trkpt lat="45.19395" lon="6.37523">
        <ele>2600.91411794</ele>
        <time>2016-03-30T11:24:03Z</time>
      </trkpt>
      <trkpt lat="45.19395" lon="6.37513">
        <ele>2600.91411794</ele>
        <time>2016-03-30T11:24:09Z</time>
      </trkpt>
      <trkpt lat="45.19396" lon="6.37502">
        <ele>2604.632353539</ele>
        <time>2016-03-30T11:24:20Z</time>
      </trkpt>
      <trkpt lat="45.19393" lon="6.37495">
        <ele>2604.632353539</ele>
        <time>2016-03-30T11:24:24Z</time>
      </trkpt>
      <trkpt lat="45.19394" lon="6.37489">
        <ele>2608.10041805</ele>
        <time>2016-03-30T11:24:33Z</time>
      </trkpt>
      <trkpt lat="45.19392" lon="6.37485">
        <ele>2608.10041805</ele>
        <time>2016-03-30T11:24:38Z</time>
      </trkpt>
      <trkpt lat="45.19394" lon="6.37474">
        <ele>2612.056564137</ele>
        <time>2016-03-30T11:24:48Z</time>
      </trkpt>
      <trkpt lat="45.19395" lon="6.37469">
        <ele>2612.056564137</ele>
        <time>2016-03-30T11:24:54Z</time>
      </trkpt>
      <trkpt lat="45.19394" lon="6.37462">
        <ele>2612.056564137</ele>
        <time>2016-03-30T11:25:04Z</time>
      </trkpt>
      <trkpt lat="45.1939" lon="6.37461">
        <ele>2616.174782944</ele>
        <time>2016-03-30T11:25:09Z</time>
      </trkpt>
      <trkpt lat="45.19381" lon="6.37459">
        <ele>2616.174782944</ele>
        <time>2016-03-30T11:25:20Z</time>
      </trkpt>
      <trkpt lat="45.19378" lon="6.37456">
        <ele>2619.720338444</ele>
        <time>2016-03-30T11:25:24Z</time>
      </trkpt>
      <trkpt lat="45.19366" lon="6.37452">
        <ele>2623.311182844</ele>
        <time>2016-03-30T11:25:38Z</time>
      </trkpt>
      <trkpt lat="45.19362" lon="6.3745">
        <ele>2623.311182844</ele>
        <time>2016-03-30T11:25:43Z</time>
      </trkpt>
      <trkpt lat="45.19353" lon="6.37444">
        <ele>2626.799294162</ele>
        <time>2016-03-30T11:25:56Z</time>
      </trkpt>
      <trkpt lat="45.19351" lon="6.37444">
        <ele>2626.799294162</ele>
        <time>2016-03-30T11:25:58Z</time>
      </trkpt>
      <trkpt lat="45.1935" lon="6.37441">
        <ele>2626.799294162</ele>
        <time>2016-03-30T11:26:05Z</time>
      </trkpt>
      <trkpt lat="45.19348" lon="6.37439">
        <ele>2626.799294162</ele>
        <time>2016-03-30T11:26:08Z</time>
      </trkpt>
      <trkpt lat="45.19345" lon="6.37436">
        <ele>2631.200800449</ele>
        <time>2016-03-30T11:26:14Z</time>
      </trkpt>
      <trkpt lat="45.19344" lon="6.37435">
        <ele>2631.200800449</ele>
        <time>2016-03-30T11:26:23Z</time>
      </trkpt>
      <trkpt lat="45.19342" lon="6.37434">
        <ele>2631.200800449</ele>
        <time>2016-03-30T11:26:29Z</time>
      </trkpt>
      <trkpt lat="45.19335" lon="6.3743">
        <ele>2635.437161676</ele>
        <time>2016-03-30T11:26:39Z</time>
      </trkpt>
      <trkpt lat="45.19328" lon="6.37425">
        <ele>2635.437161676</ele>
        <time>2016-03-30T11:26:45Z</time>
      </trkpt>
      <trkpt lat="45.19327" lon="6.37422">
        <ele>2639.086065825</ele>
        <time>2016-03-30T11:26:54Z</time>
      </trkpt>
      <trkpt lat="45.19326" lon="6.37421">
        <ele>2639.086065825</ele>
        <time>2016-03-30T11:26:59Z</time>
      </trkpt>
      <trkpt lat="45.19319" lon="6.37416">
        <ele>2642.766737965</ele>
        <time>2016-03-30T11:27:14Z</time>
      </trkpt>
      <trkpt lat="45.19316" lon="6.37413">
        <ele>2642.766737965</ele>
        <time>2016-03-30T11:27:18Z</time>
      </trkpt>
      <trkpt lat="45.19316" lon="6.3741">
        <ele>2642.766737965</ele>
        <time>2016-03-30T11:27:29Z</time>
      </trkpt>
      <trkpt lat="45.19315" lon="6.37409">
        <ele>2642.766737965</ele>
        <time>2016-03-30T11:27:33Z</time>
      </trkpt>
      <trkpt lat="45.19314" lon="6.37408">
        <ele>2642.766737965</ele>
        <time>2016-03-30T11:27:49Z</time>
      </trkpt>
      <trkpt lat="45.19312" lon="6.37405">
        <ele>2646.476466366</ele>
        <time>2016-03-30T11:27:53Z</time>
      </trkpt>
      <trkpt lat="45.19306" lon="6.37399">
        <ele>2646.476466366</ele>
        <time>2016-03-30T11:28:03Z</time>
      </trkpt>
      <trkpt lat="45.19306" lon="6.37398">
        <ele>2646.476466366</ele>
        <time>2016-03-30T11:28:08Z</time>
      </trkpt>
      <trkpt lat="45.193" lon="6.37389">
        <ele>2649.780403125</ele>
        <time>2016-03-30T11:28:19Z</time>
      </trkpt>
      <trkpt lat="45.19297" lon="6.37386">
        <ele>2649.780403125</ele>
        <time>2016-03-30T11:28:24Z</time>
      </trkpt>
      <trkpt lat="45.19289" lon="6.3738">
        <ele>2653.717968469</ele>
        <time>2016-03-30T11:28:35Z</time>
      </trkpt>
      <trkpt lat="45.19287" lon="6.37377">
        <ele>2653.717968469</ele>
        <time>2016-03-30T11:28:39Z</time>
      </trkpt>
      <trkpt lat="45.19287" lon="6.37375">
        <ele>2653.717968469</ele>
        <time>2016-03-30T11:28:50Z</time>
      </trkpt>
      <trkpt lat="45.1928" lon="6.3737">
        <ele>2657.521185183</ele>
        <time>2016-03-30T11:28:54Z</time>
      </trkpt>
      <trkpt lat="45.19273" lon="6.37364">
        <ele>2657.521185183</ele>
        <time>2016-03-30T11:29:05Z</time>
      </trkpt>
      <trkpt lat="45.1927" lon="6.37361">
        <ele>2661.487711194</ele>
        <time>2016-03-30T11:29:10Z</time>
      </trkpt>
      <trkpt lat="45.19262" lon="6.37354">
        <ele>2665.748831256</ele>
        <time>2016-03-30T11:29:20Z</time>
      </trkpt>
      <trkpt lat="45.1926" lon="6.37351">
        <ele>2665.748831256</ele>
        <time>2016-03-30T11:29:23Z</time>
      </trkpt>
      <trkpt lat="45.19259" lon="6.37345">
        <ele>2665.748831256</ele>
        <time>2016-03-30T11:29:28Z</time>
      </trkpt>
      <trkpt lat="45.19256" lon="6.37341">
        <ele>2670.13719772</ele>
        <time>2016-03-30T11:29:40Z</time>
      </trkpt>
      <trkpt lat="45.19257" lon="6.37341">
        <ele>2670.13719772</ele>
        <time>2016-03-30T11:29:44Z</time>
      </trkpt>
      <trkpt lat="45.19257" lon="6.37341">
        <ele>2670.13719772</ele>
        <time>2016-03-30T11:29:54Z</time>
      </trkpt>
      <trkpt lat="45.19257" lon="6.37341">
        <ele>2670.13719772</ele>
        <time>2016-03-30T11:30:10Z</time>
      </trkpt>
      <trkpt lat="45.19257" lon="6.37341">
        <ele>2670.13719772</ele>
        <time>2016-03-30T11:30:14Z</time>
      </trkpt>
      <trkpt lat="45.19257" lon="6.37341">
        <ele>2670.13719772</ele>
        <time>2016-03-30T11:30:24Z</time>
      </trkpt>
      <trkpt lat="45.19257" lon="6.37341">
        <ele>2670.13719772</ele>
        <time>2016-03-30T11:30:30Z</time>
      </trkpt>
      <trkpt lat="45.19257" lon="6.37338">
        <ele>2670.13719772</ele>
        <time>2016-03-30T11:30:40Z</time>
      </trkpt>
      <trkpt lat="45.19257" lon="6.37338">
        <ele>2670.13719772</ele>
        <time>2016-03-30T11:30:44Z</time>
      </trkpt>
      <trkpt lat="45.19257" lon="6.37338">
        <ele>2670.13719772</ele>
        <time>2016-03-30T11:30:54Z</time>
      </trkpt>
      <trkpt lat="45.19257" lon="6.37338">
        <ele>2670.13719772</ele>
        <time>2016-03-30T11:30:59Z</time>
      </trkpt>
      <trkpt lat="45.19257" lon="6.37338">
        <ele>2670.13719772</ele>
        <time>2016-03-30T11:31:04Z</time>
      </trkpt>
      <trkpt lat="45.19257" lon="6.37338">
        <ele>2670.13719772</ele>
        <time>2016-03-30T11:31:15Z</time>
      </trkpt>
      <trkpt lat="45.19257" lon="6.37338">
        <ele>2670.13719772</ele>
        <time>2016-03-30T11:31:19Z</time>
      </trkpt>
      <trkpt lat="45.19257" lon="6.37338">
        <ele>2670.13719772</ele>
        <time>2016-03-30T11:31:29Z</time>
      </trkpt>
      <trkpt lat="45.19257" lon="6.37338">
        <ele>2670.13719772</ele>
        <time>2016-03-30T11:31:34Z</time>
      </trkpt>
      <trkpt lat="45.19257" lon="6.37338">
        <ele>2670.13719772</ele>
        <time>2016-03-30T11:31:44Z</time>
      </trkpt>
      <trkpt lat="45.19257" lon="6.37338">
        <ele>2670.13719772</ele>
        <time>2016-03-30T11:31:50Z</time>
      </trkpt>
      <trkpt lat="45.19257" lon="6.37338">
        <ele>2670.13719772</ele>
        <time>2016-03-30T11:31:59Z</time>
      </trkpt>
      <trkpt lat="45.19257" lon="6.37338">
        <ele>2670.13719772</ele>
        <time>2016-03-30T11:32:04Z</time>
      </trkpt>
      <trkpt lat="45.19257" lon="6.37338">
        <ele>2670.13719772</ele>
        <time>2016-03-30T11:32:14Z</time>
      </trkpt>
      <trkpt lat="45.19257" lon="6.37338">
        <ele>2670.13719772</ele>
        <time>2016-03-30T11:32:19Z</time>
      </trkpt>
      <trkpt lat="45.19257" lon="6.37338">
        <ele>2670.13719772</ele>
        <time>2016-03-30T11:32:29Z</time>
      </trkpt>
      <trkpt lat="45.19257" lon="6.37338">
        <ele>2670.13719772</ele>
        <time>2016-03-30T11:32:34Z</time>
      </trkpt>
      <trkpt lat="45.19257" lon="6.37338">
        <ele>2670.13719772</ele>
        <time>2016-03-30T11:32:49Z</time>
      </trkpt>
      <trkpt lat="45.19257" lon="6.37338">
        <ele>2670.13719772</ele>
        <time>2016-03-30T11:32:59Z</time>
      </trkpt>
      <trkpt lat="45.19257" lon="6.37338">
        <ele>2670.13719772</ele>
        <time>2016-03-30T11:33:04Z</time>
      </trkpt>
      <trkpt lat="45.19257" lon="6.37338">
        <ele>2670.13719772</ele>
        <time>2016-03-30T11:33:15Z</time>
      </trkpt>
      <trkpt lat="45.19257" lon="6.37338">
        <ele>2670.13719772</ele>
        <time>2016-03-30T11:33:19Z</time>
      </trkpt>
      <trkpt lat="45.19257" lon="6.37338">
        <ele>2670.13719772</ele>
        <time>2016-03-30T11:33:24Z</time>
      </trkpt>
      <trkpt lat="45.19257" lon="6.37338">
        <ele>2670.13719772</ele>
        <time>2016-03-30T11:33:33Z</time>
      </trkpt>
      <trkpt lat="45.19257" lon="6.37338">
        <ele>2670.13719772</ele>
        <time>2016-03-30T11:33:41Z</time>
      </trkpt>
      <trkpt lat="45.19258" lon="6.37338">
        <ele>2670.13719772</ele>
        <time>2016-03-30T11:33:50Z</time>
      </trkpt>
      <trkpt lat="45.19258" lon="6.37338">
        <ele>2670.13719772</ele>
        <time>2016-03-30T11:33:54Z</time>
      </trkpt>
      <trkpt lat="45.19258" lon="6.37338">
        <ele>2670.13719772</ele>
        <time>2016-03-30T11:34:04Z</time>
      </trkpt>
      <trkpt lat="45.19258" lon="6.37338">
        <ele>2670.13719772</ele>
        <time>2016-03-30T11:34:09Z</time>
      </trkpt>
      <trkpt lat="45.19258" lon="6.37338">
        <ele>2670.13719772</ele>
        <time>2016-03-30T11:34:20Z</time>
      </trkpt>
      <trkpt lat="45.19258" lon="6.37338">
        <ele>2670.13719772</ele>
        <time>2016-03-30T11:34:24Z</time>
      </trkpt>
      <trkpt lat="45.19258" lon="6.37338">
        <ele>2670.13719772</ele>
        <time>2016-03-30T11:34:35Z</time>
      </trkpt>
      <trkpt lat="45.19258" lon="6.37338">
        <ele>2670.13719772</ele>
        <time>2016-03-30T11:34:39Z</time>
      </trkpt>
      <trkpt lat="45.19257" lon="6.37338">
        <ele>2670.13719772</ele>
        <time>2016-03-30T11:34:55Z</time>
      </trkpt>
      <trkpt lat="45.19257" lon="6.37338">
        <ele>2670.13719772</ele>
        <time>2016-03-30T11:34:59Z</time>
      </trkpt>
      <trkpt lat="45.19258" lon="6.37338">
        <ele>2670.13719772</ele>
        <time>2016-03-30T11:35:11Z</time>
      </trkpt>
      <trkpt lat="45.19257" lon="6.37338">
        <ele>2670.13719772</ele>
        <time>2016-03-30T11:35:14Z</time>
      </trkpt>
      <trkpt lat="45.19257" lon="6.37338">
        <ele>2670.13719772</ele>
        <time>2016-03-30T11:35:29Z</time>
      </trkpt>
      <trkpt lat="45.19258" lon="6.37338">
        <ele>2670.13719772</ele>
        <time>2016-03-30T11:35:35Z</time>
      </trkpt>
      <trkpt lat="45.19257" lon="6.37338">
        <ele>2670.13719772</ele>
        <time>2016-03-30T11:35:44Z</time>
      </trkpt>
      <trkpt lat="45.19258" lon="6.37338">
        <ele>2670.13719772</ele>
        <time>2016-03-30T11:35:50Z</time>
      </trkpt>
      <trkpt lat="45.19258" lon="6.37338">
        <ele>2670.13719772</ele>
        <time>2016-03-30T11:35:59Z</time>
      </trkpt>
      <trkpt lat="45.19258" lon="6.37338">
        <ele>2670.13719772</ele>
        <time>2016-03-30T11:36:04Z</time>
      </trkpt>
      <trkpt lat="45.19258" lon="6.37338">
        <ele>2670.13719772</ele>
        <time>2016-03-30T11:36:15Z</time>
      </trkpt>
      <trkpt lat="45.19258" lon="6.37338">
        <ele>2670.13719772</ele>
        <time>2016-03-30T11:36:19Z</time>
      </trkpt>
      <trkpt lat="45.19258" lon="6.37338">
        <ele>2670.13719772</ele>
        <time>2016-03-30T11:36:29Z</time>
      </trkpt>
      <trkpt lat="45.19258" lon="6.37338">
        <ele>2670.13719772</ele>
        <time>2016-03-30T11:36:34Z</time>
      </trkpt>
      <trkpt lat="45.19258" lon="6.37338">
        <ele>2670.13719772</ele>
        <time>2016-03-30T11:36:45Z</time>
      </trkpt>
      <trkpt lat="45.19258" lon="6.37338">
        <ele>2670.13719772</ele>
        <time>2016-03-30T11:36:49Z</time>
      </trkpt>
      <trkpt lat="45.19258" lon="6.37338">
        <ele>2670.13719772</ele>
        <time>2016-03-30T11:36:59Z</time>
      </trkpt>
      <trkpt lat="45.19258" lon="6.37338">
        <ele>2670.13719772</ele>
        <time>2016-03-30T11:37:04Z</time>
      </trkpt>
      <trkpt lat="45.19258" lon="6.37338">
        <ele>2670.13719772</ele>
        <time>2016-03-30T11:37:15Z</time>
      </trkpt>
      <trkpt lat="45.19258" lon="6.37338">
        <ele>2670.13719772</ele>
        <time>2016-03-30T11:37:19Z</time>
      </trkpt>
      <trkpt lat="45.19258" lon="6.37338">
        <ele>2670.13719772</ele>
        <time>2016-03-30T11:37:29Z</time>
      </trkpt>
      <trkpt lat="45.19258" lon="6.37338">
        <ele>2670.13719772</ele>
        <time>2016-03-30T11:37:34Z</time>
      </trkpt>
      <trkpt lat="45.19258" lon="6.37338">
        <ele>2670.13719772</ele>
        <time>2016-03-30T11:37:38Z</time>
      </trkpt>
      <trkpt lat="45.19258" lon="6.37338">
        <ele>2670.13719772</ele>
        <time>2016-03-30T11:37:50Z</time>
      </trkpt>
      <trkpt lat="45.19258" lon="6.37338">
        <ele>2670.13719772</ele>
        <time>2016-03-30T11:37:53Z</time>
      </trkpt>
      <trkpt lat="45.19258" lon="6.37338">
        <ele>2670.13719772</ele>
        <time>2016-03-30T11:38:05Z</time>
      </trkpt>
      <trkpt lat="45.19258" lon="6.37338">
        <ele>2670.13719772</ele>
        <time>2016-03-30T11:38:09Z</time>
      </trkpt>
      <trkpt lat="45.19258" lon="6.37338">
        <ele>2670.13719772</ele>
        <time>2016-03-30T11:38:19Z</time>
      </trkpt>
      <trkpt lat="45.19258" lon="6.37338">
        <ele>2670.13719772</ele>
        <time>2016-03-30T11:38:24Z</time>
      </trkpt>
      <trkpt lat="45.19258" lon="6.37338">
        <ele>2670.13719772</ele>
        <time>2016-03-30T11:38:34Z</time>
      </trkpt>
      <trkpt lat="45.19258" lon="6.37338">
        <ele>2670.13719772</ele>
        <time>2016-03-30T11:38:39Z</time>
      </trkpt>
      <trkpt lat="45.19258" lon="6.37338">
        <ele>2670.13719772</ele>
        <time>2016-03-30T11:38:50Z</time>
      </trkpt>
      <trkpt lat="45.19258" lon="6.37338">
        <ele>2670.13719772</ele>
        <time>2016-03-30T11:38:54Z</time>
      </trkpt>
      <trkpt lat="45.19264" lon="6.3734">
        <ele>2673.776901957</ele>
        <time>2016-03-30T11:39:04Z</time>
      </trkpt>
      <trkpt lat="45.19264" lon="6.3734">
        <ele>2673.776901957</ele>
        <time>2016-03-30T11:39:10Z</time>
      </trkpt>
      <trkpt lat="45.19268" lon="6.37339">
        <ele>2673.776901957</ele>
        <time>2016-03-30T11:39:20Z</time>
      </trkpt>
      <trkpt lat="45.19272" lon="6.37336">
        <ele>2676.867313188</ele>
        <time>2016-03-30T11:39:24Z</time>
      </trkpt>
      <trkpt lat="45.1928" lon="6.37329">
        <ele>2679.882969557</ele>
        <time>2016-03-30T11:39:39Z</time>
      </trkpt>
      <trkpt lat="45.19281" lon="6.37327">
        <ele>2679.882969557</ele>
        <time>2016-03-30T11:39:43Z</time>
      </trkpt>
      <trkpt lat="45.19283" lon="6.37326">
        <ele>2679.882969557</ele>
        <time>2016-03-30T11:39:53Z</time>
      </trkpt>
      <trkpt lat="45.19281" lon="6.37324">
        <ele>2679.882969557</ele>
        <time>2016-03-30T11:39:58Z</time>
      </trkpt>
      <trkpt lat="45.19279" lon="6.37321">
        <ele>2679.882969557</ele>
        <time>2016-03-30T11:40:08Z</time>
      </trkpt>
      <trkpt lat="45.19278" lon="6.37319">
        <ele>2682.687358912</ele>
        <time>2016-03-30T11:40:13Z</time>
      </trkpt>
      <trkpt lat="45.19277" lon="6.37311">
        <ele>2682.687358912</ele>
        <time>2016-03-30T11:40:23Z</time>
      </trkpt>
      <trkpt lat="45.19275" lon="6.37309">
        <ele>2682.687358912</ele>
        <time>2016-03-30T11:40:28Z</time>
      </trkpt>
      <trkpt lat="45.19274" lon="6.37306">
        <ele>2685.73106952</ele>
        <time>2016-03-30T11:40:38Z</time>
      </trkpt>
      <trkpt lat="45.19273" lon="6.37301">
        <ele>2685.73106952</ele>
        <time>2016-03-30T11:40:43Z</time>
      </trkpt>
      <trkpt lat="45.1927" lon="6.37286">
        <ele>2689.43094506</ele>
        <time>2016-03-30T11:40:55Z</time>
      </trkpt>
      <trkpt lat="45.19269" lon="6.37282">
        <ele>2689.43094506</ele>
        <time>2016-03-30T11:40:59Z</time>
      </trkpt>
      <trkpt lat="45.19271" lon="6.37266">
        <ele>2693.162609141</ele>
        <time>2016-03-30T11:41:14Z</time>
      </trkpt>
      <trkpt lat="45.19271" lon="6.37262">
        <ele>2693.162609141</ele>
        <time>2016-03-30T11:41:19Z</time>
      </trkpt>
      <trkpt lat="45.19271" lon="6.37256">
        <ele>2693.162609141</ele>
        <time>2016-03-30T11:41:28Z</time>
      </trkpt>
      <trkpt lat="45.19271" lon="6.37253">
        <ele>2693.162609141</ele>
        <time>2016-03-30T11:41:33Z</time>
      </trkpt>
      <trkpt lat="45.19272" lon="6.37247">
        <ele>2696.491588147</ele>
        <time>2016-03-30T11:41:43Z</time>
      </trkpt>
      <trkpt lat="45.19274" lon="6.37244">
        <ele>2696.491588147</ele>
        <time>2016-03-30T11:41:48Z</time>
      </trkpt>
      <trkpt lat="45.19274" lon="6.37235">
        <ele>2696.491588147</ele>
        <time>2016-03-30T11:41:58Z</time>
      </trkpt>
      <trkpt lat="45.19272" lon="6.37231">
        <ele>2699.881131927</ele>
        <time>2016-03-30T11:42:03Z</time>
      </trkpt>
      <trkpt lat="45.19273" lon="6.37226">
        <ele>2699.881131927</ele>
        <time>2016-03-30T11:42:13Z</time>
      </trkpt>
      <trkpt lat="45.19274" lon="6.37223">
        <ele>2699.881131927</ele>
        <time>2016-03-30T11:42:19Z</time>
      </trkpt>
      <trkpt lat="45.19274" lon="6.37221">
        <ele>2699.881131927</ele>
        <time>2016-03-30T11:42:33Z</time>
      </trkpt>
      <trkpt lat="45.19274" lon="6.37217">
        <ele>2703.472075656</ele>
        <time>2016-03-30T11:42:38Z</time>
      </trkpt>
      <trkpt lat="45.19276" lon="6.37209">
        <ele>2703.472075656</ele>
        <time>2016-03-30T11:42:44Z</time>
      </trkpt>
      <trkpt lat="45.19277" lon="6.37202">
        <ele>2706.962014643</ele>
        <time>2016-03-30T11:42:49Z</time>
      </trkpt>
      <trkpt lat="45.19279" lon="6.37197">
        <ele>2706.962014643</ele>
        <time>2016-03-30T11:42:53Z</time>
      </trkpt>
      <trkpt lat="45.19279" lon="6.37194">
        <ele>2706.962014643</ele>
        <time>2016-03-30T11:43:03Z</time>
      </trkpt>
      <trkpt lat="45.19282" lon="6.37189">
        <ele>2710.215153804</ele>
        <time>2016-03-30T11:43:08Z</time>
      </trkpt>
      <trkpt lat="45.19284" lon="6.37184">
        <ele>2710.215153804</ele>
        <time>2016-03-30T11:43:18Z</time>
      </trkpt>
      <trkpt lat="45.19284" lon="6.37184">
        <ele>2710.215153804</ele>
        <time>2016-03-30T11:43:23Z</time>
      </trkpt>
      <trkpt lat="45.19286" lon="6.37179">
        <ele>2710.215153804</ele>
        <time>2016-03-30T11:43:34Z</time>
      </trkpt>
      <trkpt lat="45.19288" lon="6.37177">
        <ele>2713.682780016</ele>
        <time>2016-03-30T11:43:39Z</time>
      </trkpt>
      <trkpt lat="45.19288" lon="6.3717">
        <ele>2713.682780016</ele>
        <time>2016-03-30T11:43:49Z</time>
      </trkpt>
      <trkpt lat="45.19287" lon="6.37169">
        <ele>2713.682780016</ele>
        <time>2016-03-30T11:43:54Z</time>
      </trkpt>
      <trkpt lat="45.19282" lon="6.37154">
        <ele>2717.494200085</ele>
        <time>2016-03-30T11:44:05Z</time>
      </trkpt>
      <trkpt lat="45.1928" lon="6.37152">
        <ele>2717.494200085</ele>
        <time>2016-03-30T11:44:09Z</time>
      </trkpt>
      <trkpt lat="45.19282" lon="6.37141">
        <ele>2720.903583254</ele>
        <time>2016-03-30T11:44:20Z</time>
      </trkpt>
      <trkpt lat="45.19283" lon="6.37137">
        <ele>2720.903583254</ele>
        <time>2016-03-30T11:44:24Z</time>
      </trkpt>
      <trkpt lat="45.19287" lon="6.37124">
        <ele>2724.518006354</ele>
        <time>2016-03-30T11:44:39Z</time>
      </trkpt>
      <trkpt lat="45.19287" lon="6.37124">
        <ele>2724.518006354</ele>
        <time>2016-03-30T11:44:44Z</time>
      </trkpt>
      <trkpt lat="45.19291" lon="6.37125">
        <ele>2724.518006354</ele>
        <time>2016-03-30T11:44:54Z</time>
      </trkpt>
      <trkpt lat="45.19292" lon="6.37125">
        <ele>2724.518006354</ele>
        <time>2016-03-30T11:44:59Z</time>
      </trkpt>
      <trkpt lat="45.19293" lon="6.37126">
        <ele>2724.518006354</ele>
        <time>2016-03-30T11:45:09Z</time>
      </trkpt>
      <trkpt lat="45.19294" lon="6.37126">
        <ele>2724.518006354</ele>
        <time>2016-03-30T11:45:13Z</time>
      </trkpt>
      <trkpt lat="45.19299" lon="6.37116">
        <ele>2728.755255276</ele>
        <time>2016-03-30T11:45:25Z</time>
      </trkpt>
      <trkpt lat="45.19302" lon="6.37114">
        <ele>2728.755255276</ele>
        <time>2016-03-30T11:45:29Z</time>
      </trkpt>
      <trkpt lat="45.19304" lon="6.37108">
        <ele>2728.755255276</ele>
        <time>2016-03-30T11:45:39Z</time>
      </trkpt>
      <trkpt lat="45.19308" lon="6.37106">
        <ele>2733.280114906</ele>
        <time>2016-03-30T11:45:43Z</time>
      </trkpt>
      <trkpt lat="45.1931" lon="6.37099">
        <ele>2733.280114906</ele>
        <time>2016-03-30T11:45:53Z</time>
      </trkpt>
      <trkpt lat="45.19311" lon="6.37098">
        <ele>2733.280114906</ele>
        <time>2016-03-30T11:45:58Z</time>
      </trkpt>
      <trkpt lat="45.19311" lon="6.37091">
        <ele>2737.348848906</ele>
        <time>2016-03-30T11:46:08Z</time>
      </trkpt>
      <trkpt lat="45.19313" lon="6.37089">
        <ele>2737.348848906</ele>
        <time>2016-03-30T11:46:13Z</time>
      </trkpt>
      <trkpt lat="45.19314" lon="6.37086">
        <ele>2737.348848906</ele>
        <time>2016-03-30T11:46:24Z</time>
      </trkpt>
      <trkpt lat="45.19315" lon="6.37086">
        <ele>2737.348848906</ele>
        <time>2016-03-30T11:46:29Z</time>
      </trkpt>
      <trkpt lat="45.19315" lon="6.37079">
        <ele>2741.85885637</ele>
        <time>2016-03-30T11:46:40Z</time>
      </trkpt>
      <trkpt lat="45.19315" lon="6.37071">
        <ele>2741.85885637</ele>
        <time>2016-03-30T11:46:44Z</time>
      </trkpt>
      <trkpt lat="45.19312" lon="6.37051">
        <ele>2746.199267664</ele>
        <time>2016-03-30T11:47:00Z</time>
      </trkpt>
      <trkpt lat="45.19312" lon="6.37047">
        <ele>2746.199267664</ele>
        <time>2016-03-30T11:47:09Z</time>
      </trkpt>
      <trkpt lat="45.19311" lon="6.37044">
        <ele>2746.199267664</ele>
        <time>2016-03-30T11:47:14Z</time>
      </trkpt>
      <trkpt lat="45.19311" lon="6.3703">
        <ele>2750.525126556</ele>
        <time>2016-03-30T11:47:25Z</time>
      </trkpt>
      <trkpt lat="45.19311" lon="6.37026">
        <ele>2750.525126556</ele>
        <time>2016-03-30T11:47:28Z</time>
      </trkpt>
      <trkpt lat="45.19305" lon="6.3702">
        <ele>2754.115471568</ele>
        <time>2016-03-30T11:47:33Z</time>
      </trkpt>
      <trkpt lat="45.19305" lon="6.37007">
        <ele>2757.745489734</ele>
        <time>2016-03-30T11:47:45Z</time>
      </trkpt>
      <trkpt lat="45.19305" lon="6.37001">
        <ele>2757.745489734</ele>
        <time>2016-03-30T11:47:49Z</time>
      </trkpt>
      <trkpt lat="45.19303" lon="6.36995">
        <ele>2757.745489734</ele>
        <time>2016-03-30T11:47:58Z</time>
      </trkpt>
      <trkpt lat="45.19304" lon="6.36991">
        <ele>2761.556879636</ele>
        <time>2016-03-30T11:48:03Z</time>
      </trkpt>
      <trkpt lat="45.19304" lon="6.36981">
        <ele>2761.556879636</ele>
        <time>2016-03-30T11:48:15Z</time>
      </trkpt>
      <trkpt lat="45.19306" lon="6.36978">
        <ele>2765.24809951</ele>
        <time>2016-03-30T11:48:19Z</time>
      </trkpt>
      <trkpt lat="45.19307" lon="6.36971">
        <ele>2765.24809951</ele>
        <time>2016-03-30T11:48:30Z</time>
      </trkpt>
      <trkpt lat="45.19307" lon="6.36968">
        <ele>2765.24809951</ele>
        <time>2016-03-30T11:48:34Z</time>
      </trkpt>
      <trkpt lat="45.19311" lon="6.36967">
        <ele>2769.837107009</ele>
        <time>2016-03-30T11:48:44Z</time>
      </trkpt>
      <trkpt lat="45.19307" lon="6.36963">
        <ele>2769.837107009</ele>
        <time>2016-03-30T11:48:49Z</time>
      </trkpt>
      <trkpt lat="45.19304" lon="6.36958">
        <ele>2775.111686281</ele>
        <time>2016-03-30T11:48:59Z</time>
      </trkpt>
      <trkpt lat="45.193" lon="6.36953">
        <ele>2775.111686281</ele>
        <time>2016-03-30T11:49:04Z</time>
      </trkpt>
      <trkpt lat="45.19299" lon="6.3695">
        <ele>2775.111686281</ele>
        <time>2016-03-30T11:49:14Z</time>
      </trkpt>
      <trkpt lat="45.19297" lon="6.36949">
        <ele>2779.720414755</ele>
        <time>2016-03-30T11:49:19Z</time>
      </trkpt>
      <trkpt lat="45.193" lon="6.36944">
        <ele>2779.720414755</ele>
        <time>2016-03-30T11:49:30Z</time>
      </trkpt>
      <trkpt lat="45.19298" lon="6.36944">
        <ele>2779.720414755</ele>
        <time>2016-03-30T11:49:34Z</time>
      </trkpt>
      <trkpt lat="45.19299" lon="6.3694">
        <ele>2779.720414755</ele>
        <time>2016-03-30T11:49:44Z</time>
      </trkpt>
      <trkpt lat="45.19298" lon="6.36939">
        <ele>2784.142368196</ele>
        <time>2016-03-30T11:49:50Z</time>
      </trkpt>
      <trkpt lat="45.19298" lon="6.36938">
        <ele>2784.142368196</ele>
        <time>2016-03-30T11:50:00Z</time>
      </trkpt>
      <trkpt lat="45.19298" lon="6.36938">
        <ele>2784.142368196</ele>
        <time>2016-03-30T11:50:04Z</time>
      </trkpt>
      <trkpt lat="45.19295" lon="6.36933">
        <ele>2784.142368196</ele>
        <time>2016-03-30T11:50:09Z</time>
      </trkpt>
      <trkpt lat="45.19289" lon="6.36926">
        <ele>2787.380867343</ele>
        <time>2016-03-30T11:50:15Z</time>
      </trkpt>
      <trkpt lat="45.1929" lon="6.36924">
        <ele>2787.380867343</ele>
        <time>2016-03-30T11:50:19Z</time>
      </trkpt>
      <trkpt lat="45.19289" lon="6.36923">
        <ele>2787.380867343</ele>
        <time>2016-03-30T11:50:24Z</time>
      </trkpt>
      <trkpt lat="45.19285" lon="6.36917">
        <ele>2787.380867343</ele>
        <time>2016-03-30T11:50:34Z</time>
      </trkpt>
      <trkpt lat="45.19284" lon="6.36915">
        <ele>2791.109796361</ele>
        <time>2016-03-30T11:50:39Z</time>
      </trkpt>
      <trkpt lat="45.1928" lon="6.36905">
        <ele>2791.109796361</ele>
        <time>2016-03-30T11:50:53Z</time>
      </trkpt>
      <trkpt lat="45.19276" lon="6.36898">
        <ele>2795.00528166</ele>
        <time>2016-03-30T11:50:59Z</time>
      </trkpt>
      <trkpt lat="45.1927" lon="6.36881">
        <ele>2798.910908291</ele>
        <time>2016-03-30T11:51:10Z</time>
      </trkpt>
      <trkpt lat="45.19269" lon="6.36869">
        <ele>2798.910908291</ele>
        <time>2016-03-30T11:51:24Z</time>
      </trkpt>
      <trkpt lat="45.19268" lon="6.36864">
        <ele>2802.105297504</ele>
        <time>2016-03-30T11:51:29Z</time>
      </trkpt>
      <trkpt lat="45.1927" lon="6.36857">
        <ele>2802.105297504</ele>
        <time>2016-03-30T11:51:39Z</time>
      </trkpt>
      <trkpt lat="45.19271" lon="6.3685">
        <ele>2805.363185103</ele>
        <time>2016-03-30T11:51:45Z</time>
      </trkpt>
      <trkpt lat="45.1927" lon="6.36844">
        <ele>2805.363185103</ele>
        <time>2016-03-30T11:51:55Z</time>
      </trkpt>
      <trkpt lat="45.1927" lon="6.36844">
        <ele>2805.363185103</ele>
        <time>2016-03-30T11:51:59Z</time>
      </trkpt>
      <trkpt lat="45.19271" lon="6.36844">
        <ele>2805.363185103</ele>
        <time>2016-03-30T11:52:09Z</time>
      </trkpt>
      <trkpt lat="45.19271" lon="6.36844">
        <ele>2805.363185103</ele>
        <time>2016-03-30T11:52:14Z</time>
      </trkpt>
      <trkpt lat="45.19271" lon="6.36844">
        <ele>2805.363185103</ele>
        <time>2016-03-30T11:52:24Z</time>
      </trkpt>
      <trkpt lat="45.19271" lon="6.36844">
        <ele>2805.363185103</ele>
        <time>2016-03-30T11:52:29Z</time>
      </trkpt>
      <trkpt lat="45.19271" lon="6.36844">
        <ele>2805.363185103</ele>
        <time>2016-03-30T11:52:38Z</time>
      </trkpt>
      <trkpt lat="45.19271" lon="6.36844">
        <ele>2805.363185103</ele>
        <time>2016-03-30T11:52:43Z</time>
      </trkpt>
      <trkpt lat="45.19271" lon="6.36844">
        <ele>2805.363185103</ele>
        <time>2016-03-30T11:52:53Z</time>
      </trkpt>
      <trkpt lat="45.19271" lon="6.36844">
        <ele>2805.363185103</ele>
        <time>2016-03-30T11:52:58Z</time>
      </trkpt>
      <trkpt lat="45.19271" lon="6.36844">
        <ele>2805.363185103</ele>
        <time>2016-03-30T11:53:08Z</time>
      </trkpt>
      <trkpt lat="45.19271" lon="6.36844">
        <ele>2805.363185103</ele>
        <time>2016-03-30T11:53:13Z</time>
      </trkpt>
      <trkpt lat="45.19269" lon="6.36842">
        <ele>2805.363185103</ele>
        <time>2016-03-30T11:53:25Z</time>
      </trkpt>
      <trkpt lat="45.19269" lon="6.36842">
        <ele>2805.363185103</ele>
        <time>2016-03-30T11:53:29Z</time>
      </trkpt>
      <trkpt lat="45.19269" lon="6.36842">
        <ele>2805.363185103</ele>
        <time>2016-03-30T11:53:39Z</time>
      </trkpt>
      <trkpt lat="45.19269" lon="6.36842">
        <ele>2805.363185103</ele>
        <time>2016-03-30T11:53:44Z</time>
      </trkpt>
      <trkpt lat="45.19269" lon="6.36842">
        <ele>2805.363185103</ele>
        <time>2016-03-30T11:53:55Z</time>
      </trkpt>
      <trkpt lat="45.19269" lon="6.36842">
        <ele>2805.363185103</ele>
        <time>2016-03-30T11:53:59Z</time>
      </trkpt>
      <trkpt lat="45.19269" lon="6.36842">
        <ele>2805.363185103</ele>
        <time>2016-03-30T11:54:10Z</time>
      </trkpt>
      <trkpt lat="45.19269" lon="6.36842">
        <ele>2805.363185103</ele>
        <time>2016-03-30T11:54:14Z</time>
      </trkpt>
      <trkpt lat="45.19269" lon="6.36842">
        <ele>2805.363185103</ele>
        <time>2016-03-30T11:54:29Z</time>
      </trkpt>
      <trkpt lat="45.19269" lon="6.36842">
        <ele>2805.363185103</ele>
        <time>2016-03-30T11:54:35Z</time>
      </trkpt>
      <trkpt lat="45.19269" lon="6.36842">
        <ele>2805.363185103</ele>
        <time>2016-03-30T11:54:44Z</time>
      </trkpt>
      <trkpt lat="45.19269" lon="6.36842">
        <ele>2805.363185103</ele>
        <time>2016-03-30T11:54:48Z</time>
      </trkpt>
      <trkpt lat="45.19269" lon="6.36842">
        <ele>2805.363185103</ele>
        <time>2016-03-30T11:54:58Z</time>
      </trkpt>
      <trkpt lat="45.19269" lon="6.36842">
        <ele>2805.363185103</ele>
        <time>2016-03-30T11:55:03Z</time>
      </trkpt>
      <trkpt lat="45.19269" lon="6.36842">
        <ele>2805.363185103</ele>
        <time>2016-03-30T11:55:13Z</time>
      </trkpt>
      <trkpt lat="45.19269" lon="6.36842">
        <ele>2805.363185103</ele>
        <time>2016-03-30T11:55:18Z</time>
      </trkpt>
      <trkpt lat="45.19269" lon="6.36842">
        <ele>2805.363185103</ele>
        <time>2016-03-30T11:55:28Z</time>
      </trkpt>
      <trkpt lat="45.19269" lon="6.36842">
        <ele>2805.363185103</ele>
        <time>2016-03-30T11:55:34Z</time>
      </trkpt>
      <trkpt lat="45.19269" lon="6.36842">
        <ele>2805.363185103</ele>
        <time>2016-03-30T11:55:44Z</time>
      </trkpt>
      <trkpt lat="45.19269" lon="6.36842">
        <ele>2805.363185103</ele>
        <time>2016-03-30T11:55:49Z</time>
      </trkpt>
      <trkpt lat="45.19269" lon="6.36842">
        <ele>2805.363185103</ele>
        <time>2016-03-30T11:55:59Z</time>
      </trkpt>
      <trkpt lat="45.1927" lon="6.36842">
        <ele>2805.363185103</ele>
        <time>2016-03-30T11:56:04Z</time>
      </trkpt>
      <trkpt lat="45.1927" lon="6.36843">
        <ele>2808.537561101</ele>
        <time>2016-03-30T11:56:14Z</time>
      </trkpt>
      <trkpt lat="45.1927" lon="6.36843">
        <ele>2808.537561101</ele>
        <time>2016-03-30T11:56:18Z</time>
      </trkpt>
      <trkpt lat="45.1927" lon="6.36843">
        <ele>2808.537561101</ele>
        <time>2016-03-30T11:56:29Z</time>
      </trkpt>
      <trkpt lat="45.1927" lon="6.36843">
        <ele>2808.537561101</ele>
        <time>2016-03-30T11:56:34Z</time>
      </trkpt>
      <trkpt lat="45.1927" lon="6.36843">
        <ele>2808.537561101</ele>
        <time>2016-03-30T11:56:49Z</time>
      </trkpt>
      <trkpt lat="45.1927" lon="6.36843">
        <ele>2808.537561101</ele>
        <time>2016-03-30T11:56:54Z</time>
      </trkpt>
      <trkpt lat="45.19271" lon="6.36842">
        <ele>2808.537561101</ele>
        <time>2016-03-30T11:57:05Z</time>
      </trkpt>
      <trkpt lat="45.19271" lon="6.36842">
        <ele>2808.537561101</ele>
        <time>2016-03-30T11:57:09Z</time>
      </trkpt>
      <trkpt lat="45.19271" lon="6.36842">
        <ele>2808.537561101</ele>
        <time>2016-03-30T11:57:19Z</time>
      </trkpt>
      <trkpt lat="45.19271" lon="6.36842">
        <ele>2808.537561101</ele>
        <time>2016-03-30T11:57:24Z</time>
      </trkpt>
      <trkpt lat="45.19271" lon="6.36842">
        <ele>2808.537561101</ele>
        <time>2016-03-30T11:57:34Z</time>
      </trkpt>
      <trkpt lat="45.19271" lon="6.36842">
        <ele>2808.537561101</ele>
        <time>2016-03-30T11:57:39Z</time>
      </trkpt>
      <trkpt lat="45.19271" lon="6.36842">
        <ele>2808.537561101</ele>
        <time>2016-03-30T11:57:50Z</time>
      </trkpt>
      <trkpt lat="45.19271" lon="6.36842">
        <ele>2808.537561101</ele>
        <time>2016-03-30T11:57:54Z</time>
      </trkpt>
      <trkpt lat="45.19271" lon="6.36842">
        <ele>2808.537561101</ele>
        <time>2016-03-30T11:58:05Z</time>
      </trkpt>
      <trkpt lat="45.19271" lon="6.36842">
        <ele>2808.537561101</ele>
        <time>2016-03-30T11:58:09Z</time>
      </trkpt>
      <trkpt lat="45.19271" lon="6.36842">
        <ele>2808.537561101</ele>
        <time>2016-03-30T11:58:18Z</time>
      </trkpt>
      <trkpt lat="45.19271" lon="6.36842">
        <ele>2808.537561101</ele>
        <time>2016-03-30T11:58:23Z</time>
      </trkpt>
      <trkpt lat="45.19271" lon="6.36842">
        <ele>2808.537561101</ele>
        <time>2016-03-30T11:58:33Z</time>
      </trkpt>
      <trkpt lat="45.19271" lon="6.36842">
        <ele>2808.537561101</ele>
        <time>2016-03-30T11:58:38Z</time>
      </trkpt>
      <trkpt lat="45.19271" lon="6.36842">
        <ele>2808.537561101</ele>
        <time>2016-03-30T11:58:48Z</time>
      </trkpt>
      <trkpt lat="45.19271" lon="6.36842">
        <ele>2808.537561101</ele>
        <time>2016-03-30T11:59:25Z</time>
      </trkpt>
      <trkpt lat="45.19271" lon="6.36842">
        <ele>2808.537561101</ele>
        <time>2016-03-30T11:59:40Z</time>
      </trkpt>
      <trkpt lat="45.19271" lon="6.36842">
        <ele>2808.537561101</ele>
        <time>2016-03-30T12:00:06Z</time>
      </trkpt>
      <trkpt lat="45.19271" lon="6.36842">
        <ele>2808.537561101</ele>
        <time>2016-03-30T12:00:13Z</time>
      </trkpt>
      <trkpt lat="45.19271" lon="6.36842">
        <ele>2808.537561101</ele>
        <time>2016-03-30T12:01:16Z</time>
      </trkpt>
      <trkpt lat="45.19271" lon="6.36842">
        <ele>2808.537561101</ele>
        <time>2016-03-30T12:01:16Z</time>
      </trkpt>
      <trkpt lat="45.1927" lon="6.36841">
        <ele>2808.537561101</ele>
        <time>2016-03-30T12:01:37Z</time>
      </trkpt>
      <trkpt lat="45.1927" lon="6.36841">
        <ele>2808.537561101</ele>
        <time>2016-03-30T12:01:38Z</time>
      </trkpt>
      <trkpt lat="45.1927" lon="6.36842">
        <ele>2808.537561101</ele>
        <time>2016-03-30T12:01:50Z</time>
      </trkpt>
      <trkpt lat="45.1927" lon="6.36842">
        <ele>2808.537561101</ele>
        <time>2016-03-30T12:01:54Z</time>
      </trkpt>
      <trkpt lat="45.1927" lon="6.36842">
        <ele>2808.537561101</ele>
        <time>2016-03-30T12:02:04Z</time>
      </trkpt>
      <trkpt lat="45.1927" lon="6.36842">
        <ele>2808.537561101</ele>
        <time>2016-03-30T12:02:09Z</time>
      </trkpt>
      <trkpt lat="45.1927" lon="6.36842">
        <ele>2808.537561101</ele>
        <time>2016-03-30T12:02:18Z</time>
      </trkpt>
      <trkpt lat="45.1927" lon="6.36842">
        <ele>2808.537561101</ele>
        <time>2016-03-30T12:02:23Z</time>
      </trkpt>
      <trkpt lat="45.1927" lon="6.36842">
        <ele>2808.537561101</ele>
        <time>2016-03-30T12:02:35Z</time>
      </trkpt>
      <trkpt lat="45.1927" lon="6.36842">
        <ele>2808.537561101</ele>
        <time>2016-03-30T12:02:39Z</time>
      </trkpt>
      <trkpt lat="45.1927" lon="6.36842">
        <ele>2808.537561101</ele>
        <time>2016-03-30T12:02:49Z</time>
      </trkpt>
      <trkpt lat="45.1927" lon="6.36842">
        <ele>2808.537561101</ele>
        <time>2016-03-30T12:02:55Z</time>
      </trkpt>
      <trkpt lat="45.1927" lon="6.36842">
        <ele>2808.537561101</ele>
        <time>2016-03-30T12:03:05Z</time>
      </trkpt>
      <trkpt lat="45.1927" lon="6.36842">
        <ele>2808.537561101</ele>
        <time>2016-03-30T12:03:09Z</time>
      </trkpt>
      <trkpt lat="45.1927" lon="6.36842">
        <ele>2808.537561101</ele>
        <time>2016-03-30T12:03:23Z</time>
      </trkpt>
      <trkpt lat="45.19268" lon="6.36845">
        <ele>2808.537561101</ele>
        <time>2016-03-30T12:03:29Z</time>
      </trkpt>
      <trkpt lat="45.19269" lon="6.36848">
        <ele>2811.204231135</ele>
        <time>2016-03-30T12:03:40Z</time>
      </trkpt>
      <trkpt lat="45.19269" lon="6.36848">
        <ele>2811.204231135</ele>
        <time>2016-03-30T12:03:44Z</time>
      </trkpt>
      <trkpt lat="45.19269" lon="6.36854">
        <ele>2811.204231135</ele>
        <time>2016-03-30T12:03:54Z</time>
      </trkpt>
      <trkpt lat="45.19269" lon="6.36875">
        <ele>2812.539246998</ele>
        <time>2016-03-30T12:03:59Z</time>
      </trkpt>
      <trkpt lat="45.19272" lon="6.36891">
        <ele>2813.224015565</ele>
        <time>2016-03-30T12:04:10Z</time>
      </trkpt>
      <trkpt lat="45.19272" lon="6.36892">
        <ele>2813.224015565</ele>
        <time>2016-03-30T12:04:14Z</time>
      </trkpt>
      <trkpt lat="45.19273" lon="6.36902">
        <ele>2813.224015565</ele>
        <time>2016-03-30T12:04:24Z</time>
      </trkpt>
      <trkpt lat="45.19276" lon="6.36912">
        <ele>2813.315230374</ele>
        <time>2016-03-30T12:04:29Z</time>
      </trkpt>
      <trkpt lat="45.19271" lon="6.36915">
        <ele>2813.315230374</ele>
        <time>2016-03-30T12:04:39Z</time>
      </trkpt>
      <trkpt lat="45.19267" lon="6.36917">
        <ele>2812.867025362</ele>
        <time>2016-03-30T12:04:45Z</time>
      </trkpt>
      <trkpt lat="45.19273" lon="6.36929">
        <ele>2811.64276126</ele>
        <time>2016-03-30T12:04:53Z</time>
      </trkpt>
      <trkpt lat="45.19274" lon="6.36935">
        <ele>2811.64276126</ele>
        <time>2016-03-30T12:04:59Z</time>
      </trkpt>
      <trkpt lat="45.19297" lon="6.36959">
        <ele>2808.416460861</ele>
        <time>2016-03-30T12:05:09Z</time>
      </trkpt>
      <trkpt lat="45.19301" lon="6.36964">
        <ele>2808.416460861</ele>
        <time>2016-03-30T12:05:13Z</time>
      </trkpt>
      <trkpt lat="45.19303" lon="6.37003">
        <ele>2803.498775248</ele>
        <time>2016-03-30T12:05:25Z</time>
      </trkpt>
      <trkpt lat="45.19304" lon="6.37005">
        <ele>2803.498775248</ele>
        <time>2016-03-30T12:05:29Z</time>
      </trkpt>
      <trkpt lat="45.19305" lon="6.37006">
        <ele>2803.498775248</ele>
        <time>2016-03-30T12:05:33Z</time>
      </trkpt>
      <trkpt lat="45.19306" lon="6.37011">
        <ele>2803.498775248</ele>
        <time>2016-03-30T12:05:43Z</time>
      </trkpt>
      <trkpt lat="45.19306" lon="6.37014">
        <ele>2803.498775248</ele>
        <time>2016-03-30T12:05:48Z</time>
      </trkpt>
      <trkpt lat="45.19306" lon="6.37014">
        <ele>2798.479076937</ele>
        <time>2016-03-30T12:05:55Z</time>
      </trkpt>
      <trkpt lat="45.19306" lon="6.37014">
        <ele>2798.479076937</ele>
        <time>2016-03-30T12:05:59Z</time>
      </trkpt>
      <trkpt lat="45.19306" lon="6.37014">
        <ele>2798.479076937</ele>
        <time>2016-03-30T12:06:04Z</time>
      </trkpt>
      <trkpt lat="45.19306" lon="6.37014">
        <ele>2798.479076937</ele>
        <time>2016-03-30T12:06:15Z</time>
      </trkpt>
      <trkpt lat="45.19306" lon="6.37014">
        <ele>2798.479076937</ele>
        <time>2016-03-30T12:06:19Z</time>
      </trkpt>
      <trkpt lat="45.19306" lon="6.37014">
        <ele>2798.479076937</ele>
        <time>2016-03-30T12:06:29Z</time>
      </trkpt>
      <trkpt lat="45.19306" lon="6.37014">
        <ele>2798.479076937</ele>
        <time>2016-03-30T12:06:34Z</time>
      </trkpt>
      <trkpt lat="45.19306" lon="6.37014">
        <ele>2798.479076937</ele>
        <time>2016-03-30T12:06:44Z</time>
      </trkpt>
      <trkpt lat="45.19306" lon="6.37014">
        <ele>2798.479076937</ele>
        <time>2016-03-30T12:06:49Z</time>
      </trkpt>
      <trkpt lat="45.19306" lon="6.37014">
        <ele>2798.479076937</ele>
        <time>2016-03-30T12:07:00Z</time>
      </trkpt>
      <trkpt lat="45.19306" lon="6.37014">
        <ele>2798.479076937</ele>
        <time>2016-03-30T12:07:04Z</time>
      </trkpt>
      <trkpt lat="45.19306" lon="6.37014">
        <ele>2798.479076937</ele>
        <time>2016-03-30T12:07:14Z</time>
      </trkpt>
      <trkpt lat="45.19306" lon="6.37014">
        <ele>2798.479076937</ele>
        <time>2016-03-30T12:07:19Z</time>
      </trkpt>
      <trkpt lat="45.19306" lon="6.37014">
        <ele>2798.479076937</ele>
        <time>2016-03-30T12:07:30Z</time>
      </trkpt>
      <trkpt lat="45.19306" lon="6.37014">
        <ele>2798.479076937</ele>
        <time>2016-03-30T12:07:34Z</time>
      </trkpt>
      <trkpt lat="45.19306" lon="6.37014">
        <ele>2798.479076937</ele>
        <time>2016-03-30T12:07:39Z</time>
      </trkpt>
      <trkpt lat="45.19306" lon="6.37014">
        <ele>2798.479076937</ele>
        <time>2016-03-30T12:07:49Z</time>
      </trkpt>
      <trkpt lat="45.19306" lon="6.37014">
        <ele>2798.479076937</ele>
        <time>2016-03-30T12:07:54Z</time>
      </trkpt>
      <trkpt lat="45.19306" lon="6.37014">
        <ele>2798.479076937</ele>
        <time>2016-03-30T12:08:05Z</time>
      </trkpt>
      <trkpt lat="45.19306" lon="6.37014">
        <ele>2798.479076937</ele>
        <time>2016-03-30T12:08:09Z</time>
      </trkpt>
      <trkpt lat="45.19306" lon="6.37014">
        <ele>2798.479076937</ele>
        <time>2016-03-30T12:08:19Z</time>
      </trkpt>
      <trkpt lat="45.19306" lon="6.37014">
        <ele>2798.479076937</ele>
        <time>2016-03-30T12:08:23Z</time>
      </trkpt>
      <trkpt lat="45.19306" lon="6.37014">
        <ele>2798.479076937</ele>
        <time>2016-03-30T12:08:33Z</time>
      </trkpt>
      <trkpt lat="45.19306" lon="6.37014">
        <ele>2798.479076937</ele>
        <time>2016-03-30T12:08:39Z</time>
      </trkpt>
      <trkpt lat="45.19305" lon="6.37014">
        <ele>2798.479076937</ele>
        <time>2016-03-30T12:08:54Z</time>
      </trkpt>
      <trkpt lat="45.19304" lon="6.37015">
        <ele>2798.479076937</ele>
        <time>2016-03-30T12:09:09Z</time>
      </trkpt>
      <trkpt lat="45.19304" lon="6.37015">
        <ele>2798.479076937</ele>
        <time>2016-03-30T12:09:13Z</time>
      </trkpt>
      <trkpt lat="45.19304" lon="6.37015">
        <ele>2798.479076937</ele>
        <time>2016-03-30T12:09:23Z</time>
      </trkpt>
      <trkpt lat="45.19304" lon="6.37015">
        <ele>2798.479076937</ele>
        <time>2016-03-30T12:09:28Z</time>
      </trkpt>
      <trkpt lat="45.19304" lon="6.37015">
        <ele>2798.479076937</ele>
        <time>2016-03-30T12:09:39Z</time>
      </trkpt>
      <trkpt lat="45.19304" lon="6.37015">
        <ele>2798.479076937</ele>
        <time>2016-03-30T12:09:43Z</time>
      </trkpt>
      <trkpt lat="45.19304" lon="6.37015">
        <ele>2798.479076937</ele>
        <time>2016-03-30T12:09:55Z</time>
      </trkpt>
      <trkpt lat="45.19304" lon="6.37015">
        <ele>2798.479076937</ele>
        <time>2016-03-30T12:09:59Z</time>
      </trkpt>
      <trkpt lat="45.19304" lon="6.37015">
        <ele>2798.479076937</ele>
        <time>2016-03-30T12:10:09Z</time>
      </trkpt>
      <trkpt lat="45.19304" lon="6.37015">
        <ele>2798.479076937</ele>
        <time>2016-03-30T12:10:15Z</time>
      </trkpt>
      <trkpt lat="45.19304" lon="6.37015">
        <ele>2798.479076937</ele>
        <time>2016-03-30T12:10:25Z</time>
      </trkpt>
      <trkpt lat="45.19304" lon="6.37015">
        <ele>2798.479076937</ele>
        <time>2016-03-30T12:10:29Z</time>
      </trkpt>
      <trkpt lat="45.19304" lon="6.37015">
        <ele>2798.479076937</ele>
        <time>2016-03-30T12:10:46Z</time>
      </trkpt>
      <trkpt lat="45.19304" lon="6.37015">
        <ele>2798.479076937</ele>
        <time>2016-03-30T12:10:49Z</time>
      </trkpt>
      <trkpt lat="45.19304" lon="6.37015">
        <ele>2798.479076937</ele>
        <time>2016-03-30T12:11:27Z</time>
      </trkpt>
      <trkpt lat="45.19304" lon="6.37015">
        <ele>2798.479076937</ele>
        <time>2016-03-30T12:11:29Z</time>
      </trkpt>
      <trkpt lat="45.19304" lon="6.37015">
        <ele>2798.479076937</ele>
        <time>2016-03-30T12:12:22Z</time>
      </trkpt>
      <trkpt lat="45.19304" lon="6.37015">
        <ele>2798.479076937</ele>
        <time>2016-03-30T12:12:24Z</time>
      </trkpt>
      <trkpt lat="45.19304" lon="6.37015">
        <ele>2798.479076937</ele>
        <time>2016-03-30T12:12:41Z</time>
      </trkpt>
      <trkpt lat="45.19304" lon="6.37015">
        <ele>2798.479076937</ele>
        <time>2016-03-30T12:12:44Z</time>
      </trkpt>
      <trkpt lat="45.19304" lon="6.37015">
        <ele>2798.479076937</ele>
        <time>2016-03-30T12:12:59Z</time>
      </trkpt>
      <trkpt lat="45.19304" lon="6.37015">
        <ele>2798.479076937</ele>
        <time>2016-03-30T12:13:00Z</time>
      </trkpt>
      <trkpt lat="45.19295" lon="6.37031">
        <ele>2792.524237249</ele>
        <time>2016-03-30T12:13:09Z</time>
      </trkpt>
      <trkpt lat="45.19292" lon="6.37058">
        <ele>2785.873421003</ele>
        <time>2016-03-30T12:13:15Z</time>
      </trkpt>
      <trkpt lat="45.19281" lon="6.37098">
        <ele>2778.029254399</ele>
        <time>2016-03-30T12:13:23Z</time>
      </trkpt>
      <trkpt lat="45.19271" lon="6.37122">
        <ele>2769.398490752</ele>
        <time>2016-03-30T12:13:29Z</time>
      </trkpt>
      <trkpt lat="45.19225" lon="6.37148">
        <ele>2747.389699008</ele>
        <time>2016-03-30T12:13:39Z</time>
      </trkpt>
      <trkpt lat="45.19215" lon="6.37154">
        <ele>2731.213133247</ele>
        <time>2016-03-30T12:13:44Z</time>
      </trkpt>
      <trkpt lat="45.19215" lon="6.37154">
        <ele>2731.213133247</ele>
        <time>2016-03-30T12:13:53Z</time>
      </trkpt>
      <trkpt lat="45.19208" lon="6.3715">
        <ele>2731.213133247</ele>
        <time>2016-03-30T12:13:59Z</time>
      </trkpt>
      <trkpt lat="45.19192" lon="6.37164">
        <ele>2718.187038115</ele>
        <time>2016-03-30T12:14:10Z</time>
      </trkpt>
      <trkpt lat="45.19191" lon="6.37165">
        <ele>2718.187038115</ele>
        <time>2016-03-30T12:14:14Z</time>
      </trkpt>
      <trkpt lat="45.1919" lon="6.37164">
        <ele>2718.187038115</ele>
        <time>2016-03-30T12:14:28Z</time>
      </trkpt>
      <trkpt lat="45.1919" lon="6.37164">
        <ele>2718.187038115</ele>
        <time>2016-03-30T12:14:33Z</time>
      </trkpt>
      <trkpt lat="45.1919" lon="6.37164">
        <ele>2718.187038115</ele>
        <time>2016-03-30T12:14:43Z</time>
      </trkpt>
      <trkpt lat="45.1919" lon="6.37164">
        <ele>2718.187038115</ele>
        <time>2016-03-30T12:14:48Z</time>
      </trkpt>
      <trkpt lat="45.1919" lon="6.37168">
        <ele>2718.187038115</ele>
        <time>2016-03-30T12:14:58Z</time>
      </trkpt>
      <trkpt lat="45.19176" lon="6.37173">
        <ele>2705.240589304</ele>
        <time>2016-03-30T12:15:03Z</time>
      </trkpt>
      <trkpt lat="45.19152" lon="6.37252">
        <ele>2692.265557796</ele>
        <time>2016-03-30T12:15:13Z</time>
      </trkpt>
      <trkpt lat="45.19146" lon="6.37306">
        <ele>2677.287357906</ele>
        <time>2016-03-30T12:15:19Z</time>
      </trkpt>
      <trkpt lat="45.19155" lon="6.3738">
        <ele>2661.363296869</ele>
        <time>2016-03-30T12:15:28Z</time>
      </trkpt>
      <trkpt lat="45.19159" lon="6.3741">
        <ele>2646.339275515</ele>
        <time>2016-03-30T12:15:34Z</time>
      </trkpt>
      <trkpt lat="45.19163" lon="6.37421">
        <ele>2646.339275515</ele>
        <time>2016-03-30T12:15:45Z</time>
      </trkpt>
      <trkpt lat="45.19163" lon="6.37418">
        <ele>2632.192627704</ele>
        <time>2016-03-30T12:15:49Z</time>
      </trkpt>
      <trkpt lat="45.19163" lon="6.37417">
        <ele>2632.192627704</ele>
        <time>2016-03-30T12:15:58Z</time>
      </trkpt>
      <trkpt lat="45.19164" lon="6.37416">
        <ele>2632.192627704</ele>
        <time>2016-03-30T12:16:03Z</time>
      </trkpt>
      <trkpt lat="45.19164" lon="6.37416">
        <ele>2632.192627704</ele>
        <time>2016-03-30T12:16:13Z</time>
      </trkpt>
      <trkpt lat="45.19162" lon="6.37416">
        <ele>2632.192627704</ele>
        <time>2016-03-30T12:16:18Z</time>
      </trkpt>
      <trkpt lat="45.19163" lon="6.37416">
        <ele>2632.192627704</ele>
        <time>2016-03-30T12:16:24Z</time>
      </trkpt>
      <trkpt lat="45.19163" lon="6.37416">
        <ele>2632.192627704</ele>
        <time>2016-03-30T12:16:33Z</time>
      </trkpt>
      <trkpt lat="45.19163" lon="6.37416">
        <ele>2632.192627704</ele>
        <time>2016-03-30T12:16:39Z</time>
      </trkpt>
      <trkpt lat="45.19163" lon="6.37416">
        <ele>2632.192627704</ele>
        <time>2016-03-30T12:16:48Z</time>
      </trkpt>
      <trkpt lat="45.19163" lon="6.37416">
        <ele>2632.192627704</ele>
        <time>2016-03-30T12:16:53Z</time>
      </trkpt>
      <trkpt lat="45.19163" lon="6.37416">
        <ele>2632.192627704</ele>
        <time>2016-03-30T12:17:03Z</time>
      </trkpt>
      <trkpt lat="45.19163" lon="6.37416">
        <ele>2632.192627704</ele>
        <time>2016-03-30T12:17:08Z</time>
      </trkpt>
      <trkpt lat="45.19161" lon="6.37428">
        <ele>2618.466403047</ele>
        <time>2016-03-30T12:17:18Z</time>
      </trkpt>
      <trkpt lat="45.19154" lon="6.37463">
        <ele>2605.455406245</ele>
        <time>2016-03-30T12:17:23Z</time>
      </trkpt>
      <trkpt lat="45.19157" lon="6.37518">
        <ele>2591.844343741</ele>
        <time>2016-03-30T12:17:33Z</time>
      </trkpt>
      <trkpt lat="45.1916" lon="6.37521">
        <ele>2591.844343741</ele>
        <time>2016-03-30T12:17:38Z</time>
      </trkpt>
      <trkpt lat="45.19161" lon="6.37524">
        <ele>2591.844343741</ele>
        <time>2016-03-30T12:17:48Z</time>
      </trkpt>
      <trkpt lat="45.19161" lon="6.37524">
        <ele>2591.844343741</ele>
        <time>2016-03-30T12:17:53Z</time>
      </trkpt>
      <trkpt lat="45.19161" lon="6.37524">
        <ele>2591.844343741</ele>
        <time>2016-03-30T12:18:09Z</time>
      </trkpt>
      <trkpt lat="45.19161" lon="6.37524">
        <ele>2591.844343741</ele>
        <time>2016-03-30T12:18:13Z</time>
      </trkpt>
      <trkpt lat="45.19161" lon="6.37524">
        <ele>2591.844343741</ele>
        <time>2016-03-30T12:18:23Z</time>
      </trkpt>
      <trkpt lat="45.19161" lon="6.37524">
        <ele>2591.844343741</ele>
        <time>2016-03-30T12:18:28Z</time>
      </trkpt>
      <trkpt lat="45.19146" lon="6.3752">
        <ele>2579.441333836</ele>
        <time>2016-03-30T12:18:38Z</time>
      </trkpt>
      <trkpt lat="45.1913" lon="6.37523">
        <ele>2568.187717165</ele>
        <time>2016-03-30T12:18:43Z</time>
      </trkpt>
      <trkpt lat="45.19117" lon="6.37523">
        <ele>2558.312915544</ele>
        <time>2016-03-30T12:18:54Z</time>
      </trkpt>
      <trkpt lat="45.19116" lon="6.37521">
        <ele>2558.312915544</ele>
        <time>2016-03-30T12:18:59Z</time>
      </trkpt>
      <trkpt lat="45.19117" lon="6.37523">
        <ele>2558.312915544</ele>
        <time>2016-03-30T12:19:09Z</time>
      </trkpt>
      <trkpt lat="45.19121" lon="6.37526">
        <ele>2558.312915544</ele>
        <time>2016-03-30T12:19:14Z</time>
      </trkpt>
      <trkpt lat="45.19128" lon="6.37531">
        <ele>2549.447975512</ele>
        <time>2016-03-30T12:19:25Z</time>
      </trkpt>
      <trkpt lat="45.19129" lon="6.37531">
        <ele>2549.447975512</ele>
        <time>2016-03-30T12:19:29Z</time>
      </trkpt>
      <trkpt lat="45.19127" lon="6.37543">
        <ele>2549.447975512</ele>
        <time>2016-03-30T12:19:33Z</time>
      </trkpt>
      <trkpt lat="45.19115" lon="6.37599">
        <ele>2539.661806831</ele>
        <time>2016-03-30T12:19:44Z</time>
      </trkpt>
      <trkpt lat="45.19112" lon="6.37613">
        <ele>2530.625277693</ele>
        <time>2016-03-30T12:19:49Z</time>
      </trkpt>
      <trkpt lat="45.19117" lon="6.37639">
        <ele>2521.577520383</ele>
        <time>2016-03-30T12:19:59Z</time>
      </trkpt>
      <trkpt lat="45.19117" lon="6.3764">
        <ele>2521.577520383</ele>
        <time>2016-03-30T12:20:04Z</time>
      </trkpt>
      <trkpt lat="45.19117" lon="6.3764">
        <ele>2521.577520383</ele>
        <time>2016-03-30T12:20:14Z</time>
      </trkpt>
      <trkpt lat="45.19117" lon="6.3764">
        <ele>2521.577520383</ele>
        <time>2016-03-30T12:20:19Z</time>
      </trkpt>
      <trkpt lat="45.19117" lon="6.3764">
        <ele>2521.577520383</ele>
        <time>2016-03-30T12:20:30Z</time>
      </trkpt>
      <trkpt lat="45.19125" lon="6.37644">
        <ele>2513.253630168</ele>
        <time>2016-03-30T12:20:34Z</time>
      </trkpt>
      <trkpt lat="45.19142" lon="6.3765">
        <ele>2504.890528739</ele>
        <time>2016-03-30T12:20:44Z</time>
      </trkpt>
      <trkpt lat="45.19141" lon="6.3765">
        <ele>2504.890528739</ele>
        <time>2016-03-30T12:20:48Z</time>
      </trkpt>
      <trkpt lat="45.19142" lon="6.3765">
        <ele>2504.890528739</ele>
        <time>2016-03-30T12:20:53Z</time>
      </trkpt>
      <trkpt lat="45.19141" lon="6.37649">
        <ele>2504.890528739</ele>
        <time>2016-03-30T12:21:06Z</time>
      </trkpt>
      <trkpt lat="45.19141" lon="6.37649">
        <ele>2504.890528739</ele>
        <time>2016-03-30T12:21:09Z</time>
      </trkpt>
      <trkpt lat="45.19141" lon="6.37649">
        <ele>2504.890528739</ele>
        <time>2016-03-30T12:21:20Z</time>
      </trkpt>
      <trkpt lat="45.1914" lon="6.37649">
        <ele>2504.890528739</ele>
        <time>2016-03-30T12:21:24Z</time>
      </trkpt>
      <trkpt lat="45.19156" lon="6.37679">
        <ele>2496.21264834</ele>
        <time>2016-03-30T12:21:34Z</time>
      </trkpt>
      <trkpt lat="45.19154" lon="6.37684">
        <ele>2496.21264834</ele>
        <time>2016-03-30T12:21:41Z</time>
      </trkpt>
      <trkpt lat="45.19154" lon="6.37688">
        <ele>2496.21264834</ele>
        <time>2016-03-30T12:21:53Z</time>
      </trkpt>
      <trkpt lat="45.19154" lon="6.37688">
        <ele>2496.21264834</ele>
        <time>2016-03-30T12:22:09Z</time>
      </trkpt>
      <trkpt lat="45.19154" lon="6.37688">
        <ele>2496.21264834</ele>
        <time>2016-03-30T12:22:13Z</time>
      </trkpt>
      <trkpt lat="45.19154" lon="6.3769">
        <ele>2496.21264834</ele>
        <time>2016-03-30T12:22:18Z</time>
      </trkpt>
      <trkpt lat="45.19155" lon="6.3769">
        <ele>2487.973381963</ele>
        <time>2016-03-30T12:22:23Z</time>
      </trkpt>
      <trkpt lat="45.19155" lon="6.37691">
        <ele>2487.973381963</ele>
        <time>2016-03-30T12:22:33Z</time>
      </trkpt>
      <trkpt lat="45.19155" lon="6.37691">
        <ele>2487.973381963</ele>
        <time>2016-03-30T12:22:38Z</time>
      </trkpt>
      <trkpt lat="45.19155" lon="6.37691">
        <ele>2487.973381963</ele>
        <time>2016-03-30T12:22:53Z</time>
      </trkpt>
      <trkpt lat="45.19155" lon="6.37691">
        <ele>2487.973381963</ele>
        <time>2016-03-30T12:22:58Z</time>
      </trkpt>
      <trkpt lat="45.19155" lon="6.37692">
        <ele>2487.973381963</ele>
        <time>2016-03-30T12:23:08Z</time>
      </trkpt>
      <trkpt lat="45.19155" lon="6.37692">
        <ele>2487.973381963</ele>
        <time>2016-03-30T12:23:13Z</time>
      </trkpt>
      <trkpt lat="45.19155" lon="6.37692">
        <ele>2487.973381963</ele>
        <time>2016-03-30T12:23:23Z</time>
      </trkpt>
      <trkpt lat="45.19155" lon="6.37692">
        <ele>2487.973381963</ele>
        <time>2016-03-30T12:23:28Z</time>
      </trkpt>
      <trkpt lat="45.19155" lon="6.37692">
        <ele>2487.973381963</ele>
        <time>2016-03-30T12:23:38Z</time>
      </trkpt>
      <trkpt lat="45.19155" lon="6.37692">
        <ele>2487.973381963</ele>
        <time>2016-03-30T12:23:43Z</time>
      </trkpt>
      <trkpt lat="45.19155" lon="6.37692">
        <ele>2487.973381963</ele>
        <time>2016-03-30T12:23:56Z</time>
      </trkpt>
      <trkpt lat="45.19155" lon="6.37692">
        <ele>2487.973381963</ele>
        <time>2016-03-30T12:23:59Z</time>
      </trkpt>
      <trkpt lat="45.19155" lon="6.37692">
        <ele>2487.973381963</ele>
        <time>2016-03-30T12:24:10Z</time>
      </trkpt>
      <trkpt lat="45.19155" lon="6.37692">
        <ele>2487.973381963</ele>
        <time>2016-03-30T12:24:13Z</time>
      </trkpt>
      <trkpt lat="45.19155" lon="6.37692">
        <ele>2487.973381963</ele>
        <time>2016-03-30T12:24:23Z</time>
      </trkpt>
      <trkpt lat="45.19155" lon="6.37692">
        <ele>2487.973381963</ele>
        <time>2016-03-30T12:24:30Z</time>
      </trkpt>
      <trkpt lat="45.19155" lon="6.37692">
        <ele>2487.973381963</ele>
        <time>2016-03-30T12:24:40Z</time>
      </trkpt>
      <trkpt lat="45.19155" lon="6.37692">
        <ele>2487.973381963</ele>
        <time>2016-03-30T12:24:44Z</time>
      </trkpt>
      <trkpt lat="45.19155" lon="6.37692">
        <ele>2487.973381963</ele>
        <time>2016-03-30T12:24:54Z</time>
      </trkpt>
      <trkpt lat="45.19155" lon="6.37692">
        <ele>2487.973381963</ele>
        <time>2016-03-30T12:24:59Z</time>
      </trkpt>
      <trkpt lat="45.19155" lon="6.37692">
        <ele>2487.973381963</ele>
        <time>2016-03-30T12:25:09Z</time>
      </trkpt>
      <trkpt lat="45.19155" lon="6.37692">
        <ele>2487.973381963</ele>
        <time>2016-03-30T12:25:14Z</time>
      </trkpt>
      <trkpt lat="45.19176" lon="6.37712">
        <ele>2481.012763236</ele>
        <time>2016-03-30T12:25:29Z</time>
      </trkpt>
      <trkpt lat="45.19184" lon="6.37723">
        <ele>2474.951794662</ele>
        <time>2016-03-30T12:25:34Z</time>
      </trkpt>
      <trkpt lat="45.19199" lon="6.37743">
        <ele>2469.436003298</ele>
        <time>2016-03-30T12:25:44Z</time>
      </trkpt>
      <trkpt lat="45.19211" lon="6.37757">
        <ele>2464.422914661</ele>
        <time>2016-03-30T12:25:49Z</time>
      </trkpt>
      <trkpt lat="45.19228" lon="6.37781">
        <ele>2460.015204345</ele>
        <time>2016-03-30T12:25:59Z</time>
      </trkpt>
      <trkpt lat="45.19236" lon="6.37788">
        <ele>2456.738035891</ele>
        <time>2016-03-30T12:26:03Z</time>
      </trkpt>
      <trkpt lat="45.19244" lon="6.37797">
        <ele>2454.353731552</ele>
        <time>2016-03-30T12:26:18Z</time>
      </trkpt>
      <trkpt lat="45.19246" lon="6.37798">
        <ele>2454.353731552</ele>
        <time>2016-03-30T12:26:29Z</time>
      </trkpt>
      <trkpt lat="45.19249" lon="6.37802">
        <ele>2454.353731552</ele>
        <time>2016-03-30T12:26:33Z</time>
      </trkpt>
      <trkpt lat="45.19278" lon="6.37815">
        <ele>2452.350881903</ele>
        <time>2016-03-30T12:26:48Z</time>
      </trkpt>
      <trkpt lat="45.19292" lon="6.37822">
        <ele>2450.97474078</ele>
        <time>2016-03-30T12:26:53Z</time>
      </trkpt>
      <trkpt lat="45.19299" lon="6.37829">
        <ele>2450.306361898</ele>
        <time>2016-03-30T12:27:03Z</time>
      </trkpt>
      <trkpt lat="45.19286" lon="6.37832">
        <ele>2449.98628685</ele>
        <time>2016-03-30T12:27:08Z</time>
      </trkpt>
      <trkpt lat="45.19261" lon="6.37833">
        <ele>2449.968543923</ele>
        <time>2016-03-30T12:27:18Z</time>
      </trkpt>
      <trkpt lat="45.19249" lon="6.37828">
        <ele>2450.49782247</ele>
        <time>2016-03-30T12:27:23Z</time>
      </trkpt>
      <trkpt lat="45.19227" lon="6.37821">
        <ele>2450.790505396</ele>
        <time>2016-03-30T12:27:33Z</time>
      </trkpt>
      <trkpt lat="45.19211" lon="6.37812">
        <ele>2451.130030334</ele>
        <time>2016-03-30T12:27:38Z</time>
      </trkpt>
      <trkpt lat="45.19185" lon="6.378">
        <ele>2451.490772399</ele>
        <time>2016-03-30T12:27:48Z</time>
      </trkpt>
      <trkpt lat="45.1917" lon="6.37799">
        <ele>2452.425546411</ele>
        <time>2016-03-30T12:27:54Z</time>
      </trkpt>
      <trkpt lat="45.19168" lon="6.37797">
        <ele>2452.425546411</ele>
        <time>2016-03-30T12:28:04Z</time>
      </trkpt>
      <trkpt lat="45.19167" lon="6.37797">
        <ele>2452.425546411</ele>
        <time>2016-03-30T12:28:09Z</time>
      </trkpt>
      <trkpt lat="45.19167" lon="6.37797">
        <ele>2452.425546411</ele>
        <time>2016-03-30T12:28:20Z</time>
      </trkpt>
      <trkpt lat="45.19166" lon="6.37796">
        <ele>2452.425546411</ele>
        <time>2016-03-30T12:28:24Z</time>
      </trkpt>
      <trkpt lat="45.19165" lon="6.37795">
        <ele>2452.425546411</ele>
        <time>2016-03-30T12:28:40Z</time>
      </trkpt>
      <trkpt lat="45.19163" lon="6.37795">
        <ele>2452.425546411</ele>
        <time>2016-03-30T12:28:56Z</time>
      </trkpt>
      <trkpt lat="45.19163" lon="6.37795">
        <ele>2452.425546411</ele>
        <time>2016-03-30T12:28:58Z</time>
      </trkpt>
      <trkpt lat="45.19163" lon="6.37795">
        <ele>2452.425546411</ele>
        <time>2016-03-30T12:29:10Z</time>
      </trkpt>
      <trkpt lat="45.19163" lon="6.37795">
        <ele>2452.425546411</ele>
        <time>2016-03-30T12:29:14Z</time>
      </trkpt>
      <trkpt lat="45.19162" lon="6.37794">
        <ele>2452.425546411</ele>
        <time>2016-03-30T12:29:24Z</time>
      </trkpt>
      <trkpt lat="45.19162" lon="6.37794">
        <ele>2452.425546411</ele>
        <time>2016-03-30T12:29:29Z</time>
      </trkpt>
      <trkpt lat="45.19152" lon="6.37841">
        <ele>2451.418837003</ele>
        <time>2016-03-30T12:29:40Z</time>
      </trkpt>
      <trkpt lat="45.19157" lon="6.37844">
        <ele>2451.418837003</ele>
        <time>2016-03-30T12:29:44Z</time>
      </trkpt>
      <trkpt lat="45.19157" lon="6.37844">
        <ele>2451.418837003</ele>
        <time>2016-03-30T12:29:55Z</time>
      </trkpt>
      <trkpt lat="45.19157" lon="6.37843">
        <ele>2451.418837003</ele>
        <time>2016-03-30T12:29:59Z</time>
      </trkpt>
      <trkpt lat="45.19156" lon="6.37843">
        <ele>2451.418837003</ele>
        <time>2016-03-30T12:30:09Z</time>
      </trkpt>
      <trkpt lat="45.19156" lon="6.37843">
        <ele>2451.418837003</ele>
        <time>2016-03-30T12:30:15Z</time>
      </trkpt>
      <trkpt lat="45.19157" lon="6.37844">
        <ele>2450.613080092</ele>
        <time>2016-03-30T12:30:25Z</time>
      </trkpt>
      <trkpt lat="45.19155" lon="6.37863">
        <ele>2449.254962476</ele>
        <time>2016-03-30T12:30:29Z</time>
      </trkpt>
      <trkpt lat="45.19159" lon="6.37927">
        <ele>2446.071950622</ele>
        <time>2016-03-30T12:30:39Z</time>
      </trkpt>
      <trkpt lat="45.19165" lon="6.37932">
        <ele>2446.071950622</ele>
        <time>2016-03-30T12:30:44Z</time>
      </trkpt>
      <trkpt lat="45.19167" lon="6.37932">
        <ele>2446.071950622</ele>
        <time>2016-03-30T12:30:54Z</time>
      </trkpt>
      <trkpt lat="45.19166" lon="6.37933">
        <ele>2446.071950622</ele>
        <time>2016-03-30T12:30:59Z</time>
      </trkpt>
      <trkpt lat="45.19166" lon="6.37933">
        <ele>2446.071950622</ele>
        <time>2016-03-30T12:31:10Z</time>
      </trkpt>
      <trkpt lat="45.19166" lon="6.37931">
        <ele>2443.493246019</ele>
        <time>2016-03-30T12:31:14Z</time>
      </trkpt>
      <trkpt lat="45.19166" lon="6.37932">
        <ele>2443.493246019</ele>
        <time>2016-03-30T12:31:19Z</time>
      </trkpt>
      <trkpt lat="45.19166" lon="6.37932">
        <ele>2443.493246019</ele>
        <time>2016-03-30T12:31:29Z</time>
      </trkpt>
      <trkpt lat="45.19164" lon="6.37948">
        <ele>2441.17427725</ele>
        <time>2016-03-30T12:31:34Z</time>
      </trkpt>
      <trkpt lat="45.19157" lon="6.38001">
        <ele>2434.90442812</ele>
        <time>2016-03-30T12:31:45Z</time>
      </trkpt>
      <trkpt lat="45.19168" lon="6.38019">
        <ele>2429.296403453</ele>
        <time>2016-03-30T12:31:48Z</time>
      </trkpt>
      <trkpt lat="45.19186" lon="6.38057">
        <ele>2423.86689547</ele>
        <time>2016-03-30T12:31:58Z</time>
      </trkpt>
      <trkpt lat="45.19182" lon="6.38069">
        <ele>2418.744386844</ele>
        <time>2016-03-30T12:32:04Z</time>
      </trkpt>
      <trkpt lat="45.19181" lon="6.3807">
        <ele>2418.744386844</ele>
        <time>2016-03-30T12:32:15Z</time>
      </trkpt>
      <trkpt lat="45.19181" lon="6.3807">
        <ele>2418.744386844</ele>
        <time>2016-03-30T12:32:19Z</time>
      </trkpt>
      <trkpt lat="45.19181" lon="6.3807">
        <ele>2418.744386844</ele>
        <time>2016-03-30T12:32:30Z</time>
      </trkpt>
      <trkpt lat="45.19181" lon="6.3807">
        <ele>2418.744386844</ele>
        <time>2016-03-30T12:32:34Z</time>
      </trkpt>
      <trkpt lat="45.19181" lon="6.3807">
        <ele>2418.744386844</ele>
        <time>2016-03-30T12:32:44Z</time>
      </trkpt>
      <trkpt lat="45.19181" lon="6.3807">
        <ele>2418.744386844</ele>
        <time>2016-03-30T12:32:49Z</time>
      </trkpt>
      <trkpt lat="45.19181" lon="6.3807">
        <ele>2418.744386844</ele>
        <time>2016-03-30T12:33:00Z</time>
      </trkpt>
      <trkpt lat="45.19181" lon="6.3807">
        <ele>2418.744386844</ele>
        <time>2016-03-30T12:33:03Z</time>
      </trkpt>
      <trkpt lat="45.19181" lon="6.3807">
        <ele>2418.744386844</ele>
        <time>2016-03-30T12:33:20Z</time>
      </trkpt>
      <trkpt lat="45.19182" lon="6.38082">
        <ele>2412.750382719</ele>
        <time>2016-03-30T12:33:24Z</time>
      </trkpt>
      <trkpt lat="45.1917" lon="6.38155">
        <ele>2405.516261408</ele>
        <time>2016-03-30T12:33:35Z</time>
      </trkpt>
      <trkpt lat="45.19175" lon="6.38183">
        <ele>2398.433570773</ele>
        <time>2016-03-30T12:33:39Z</time>
      </trkpt>
      <trkpt lat="45.19202" lon="6.38238">
        <ele>2390.629794925</ele>
        <time>2016-03-30T12:33:49Z</time>
      </trkpt>
      <trkpt lat="45.19212" lon="6.38256">
        <ele>2383.604536117</ele>
        <time>2016-03-30T12:33:54Z</time>
      </trkpt>
      <trkpt lat="45.19207" lon="6.38258">
        <ele>2383.604536117</ele>
        <time>2016-03-30T12:34:04Z</time>
      </trkpt>
      <trkpt lat="45.19207" lon="6.38258">
        <ele>2383.604536117</ele>
        <time>2016-03-30T12:34:09Z</time>
      </trkpt>
      <trkpt lat="45.19207" lon="6.38258">
        <ele>2383.604536117</ele>
        <time>2016-03-30T12:34:18Z</time>
      </trkpt>
      <trkpt lat="45.19208" lon="6.38274">
        <ele>2376.871801159</ele>
        <time>2016-03-30T12:34:24Z</time>
      </trkpt>
      <trkpt lat="45.19186" lon="6.38339">
        <ele>2368.971864243</ele>
        <time>2016-03-30T12:34:34Z</time>
      </trkpt>
      <trkpt lat="45.19185" lon="6.38337">
        <ele>2368.971864243</ele>
        <time>2016-03-30T12:34:39Z</time>
      </trkpt>
      <trkpt lat="45.19187" lon="6.38337">
        <ele>2368.971864243</ele>
        <time>2016-03-30T12:34:49Z</time>
      </trkpt>
      <trkpt lat="45.19206" lon="6.38369">
        <ele>2360.284975582</ele>
        <time>2016-03-30T12:35:04Z</time>
      </trkpt>
      <trkpt lat="45.19207" lon="6.38397">
        <ele>2352.030436508</ele>
        <time>2016-03-30T12:35:09Z</time>
      </trkpt>
      <trkpt lat="45.19228" lon="6.38442">
        <ele>2341.734064233</ele>
        <time>2016-03-30T12:35:20Z</time>
      </trkpt>
      <trkpt lat="45.19223" lon="6.38476">
        <ele>2332.00897851</ele>
        <time>2016-03-30T12:35:24Z</time>
      </trkpt>
      <trkpt lat="45.19259" lon="6.3856">
        <ele>2321.383742761</ele>
        <time>2016-03-30T12:35:35Z</time>
      </trkpt>
      <trkpt lat="45.19268" lon="6.38565">
        <ele>2310.947395058</ele>
        <time>2016-03-30T12:35:39Z</time>
      </trkpt>
      <trkpt lat="45.19264" lon="6.38574">
        <ele>2310.947395058</ele>
        <time>2016-03-30T12:35:49Z</time>
      </trkpt>
      <trkpt lat="45.19263" lon="6.38575">
        <ele>2301.564265343</ele>
        <time>2016-03-30T12:35:54Z</time>
      </trkpt>
      <trkpt lat="45.19262" lon="6.38576">
        <ele>2301.564265343</ele>
        <time>2016-03-30T12:36:04Z</time>
      </trkpt>
      <trkpt lat="45.19262" lon="6.38576">
        <ele>2301.564265343</ele>
        <time>2016-03-30T12:36:09Z</time>
      </trkpt>
      <trkpt lat="45.19262" lon="6.38576">
        <ele>2301.564265343</ele>
        <time>2016-03-30T12:36:20Z</time>
      </trkpt>
      <trkpt lat="45.19262" lon="6.38576">
        <ele>2301.564265343</ele>
        <time>2016-03-30T12:36:24Z</time>
      </trkpt>
      <trkpt lat="45.19262" lon="6.38576">
        <ele>2301.564265343</ele>
        <time>2016-03-30T12:36:35Z</time>
      </trkpt>
      <trkpt lat="45.19262" lon="6.38576">
        <ele>2301.564265343</ele>
        <time>2016-03-30T12:36:40Z</time>
      </trkpt>
      <trkpt lat="45.19261" lon="6.38577">
        <ele>2301.564265343</ele>
        <time>2016-03-30T12:36:55Z</time>
      </trkpt>
      <trkpt lat="45.19261" lon="6.38578">
        <ele>2301.564265343</ele>
        <time>2016-03-30T12:36:59Z</time>
      </trkpt>
      <trkpt lat="45.19261" lon="6.38578">
        <ele>2301.564265343</ele>
        <time>2016-03-30T12:37:09Z</time>
      </trkpt>
      <trkpt lat="45.19257" lon="6.38586">
        <ele>2291.582245922</ele>
        <time>2016-03-30T12:37:25Z</time>
      </trkpt>
      <trkpt lat="45.19256" lon="6.38587">
        <ele>2291.582245922</ele>
        <time>2016-03-30T12:37:29Z</time>
      </trkpt>
      <trkpt lat="45.1925" lon="6.386">
        <ele>2282.210255471</ele>
        <time>2016-03-30T12:37:39Z</time>
      </trkpt>
      <trkpt lat="45.19235" lon="6.38616">
        <ele>2273.413653703</ele>
        <time>2016-03-30T12:37:44Z</time>
      </trkpt>
      <trkpt lat="45.1923" lon="6.38656">
        <ele>2264.293892762</ele>
        <time>2016-03-30T12:37:54Z</time>
      </trkpt>
      <trkpt lat="45.19239" lon="6.38684">
        <ele>2255.60437455</ele>
        <time>2016-03-30T12:37:59Z</time>
      </trkpt>
      <trkpt lat="45.19216" lon="6.3874">
        <ele>2246.600639195</ele>
        <time>2016-03-30T12:38:09Z</time>
      </trkpt>
      <trkpt lat="45.19224" lon="6.3876">
        <ele>2237.314142406</ele>
        <time>2016-03-30T12:38:14Z</time>
      </trkpt>
      <trkpt lat="45.19226" lon="6.3882">
        <ele>2225.757043035</ele>
        <time>2016-03-30T12:38:24Z</time>
      </trkpt>
      <trkpt lat="45.19223" lon="6.38822">
        <ele>2225.757043035</ele>
        <time>2016-03-30T12:38:29Z</time>
      </trkpt>
      <trkpt lat="45.19226" lon="6.38826">
        <ele>2225.757043035</ele>
        <time>2016-03-30T12:38:39Z</time>
      </trkpt>
      <trkpt lat="45.19225" lon="6.38828">
        <ele>2214.993437611</ele>
        <time>2016-03-30T12:38:44Z</time>
      </trkpt>
      <trkpt lat="45.19225" lon="6.38827">
        <ele>2214.993437611</ele>
        <time>2016-03-30T12:38:54Z</time>
      </trkpt>
      <trkpt lat="45.19225" lon="6.38827">
        <ele>2214.993437611</ele>
        <time>2016-03-30T12:38:59Z</time>
      </trkpt>
      <trkpt lat="45.19225" lon="6.38827">
        <ele>2214.993437611</ele>
        <time>2016-03-30T12:39:10Z</time>
      </trkpt>
      <trkpt lat="45.19225" lon="6.38829">
        <ele>2214.993437611</ele>
        <time>2016-03-30T12:39:14Z</time>
      </trkpt>
      <trkpt lat="45.19225" lon="6.38828">
        <ele>2214.993437611</ele>
        <time>2016-03-30T12:39:18Z</time>
      </trkpt>
      <trkpt lat="45.19222" lon="6.38829">
        <ele>2214.993437611</ele>
        <time>2016-03-30T12:39:29Z</time>
      </trkpt>
      <trkpt lat="45.19221" lon="6.38829">
        <ele>2214.993437611</ele>
        <time>2016-03-30T12:39:34Z</time>
      </trkpt>
      <trkpt lat="45.19221" lon="6.38829">
        <ele>2214.993437611</ele>
        <time>2016-03-30T12:39:44Z</time>
      </trkpt>
      <trkpt lat="45.19221" lon="6.38829">
        <ele>2214.993437611</ele>
        <time>2016-03-30T12:39:49Z</time>
      </trkpt>
      <trkpt lat="45.19221" lon="6.38829">
        <ele>2214.993437611</ele>
        <time>2016-03-30T12:39:58Z</time>
      </trkpt>
      <trkpt lat="45.19221" lon="6.38829">
        <ele>2214.993437611</ele>
        <time>2016-03-30T12:40:03Z</time>
      </trkpt>
      <trkpt lat="45.19221" lon="6.38829">
        <ele>2214.993437611</ele>
        <time>2016-03-30T12:40:13Z</time>
      </trkpt>
      <trkpt lat="45.19221" lon="6.38829">
        <ele>2214.993437611</ele>
        <time>2016-03-30T12:40:18Z</time>
      </trkpt>
      <trkpt lat="45.19221" lon="6.38829">
        <ele>2214.993437611</ele>
        <time>2016-03-30T12:40:33Z</time>
      </trkpt>
      <trkpt lat="45.19221" lon="6.38829">
        <ele>2214.993437611</ele>
        <time>2016-03-30T12:40:38Z</time>
      </trkpt>
      <trkpt lat="45.19221" lon="6.38829">
        <ele>2214.993437611</ele>
        <time>2016-03-30T12:40:44Z</time>
      </trkpt>
      <trkpt lat="45.19221" lon="6.38829">
        <ele>2214.993437611</ele>
        <time>2016-03-30T12:40:49Z</time>
      </trkpt>
      <trkpt lat="45.19221" lon="6.38829">
        <ele>2214.993437611</ele>
        <time>2016-03-30T12:41:00Z</time>
      </trkpt>
      <trkpt lat="45.19221" lon="6.38829">
        <ele>2214.993437611</ele>
        <time>2016-03-30T12:41:04Z</time>
      </trkpt>
      <trkpt lat="45.19221" lon="6.38829">
        <ele>2214.993437611</ele>
        <time>2016-03-30T12:41:09Z</time>
      </trkpt>
      <trkpt lat="45.19221" lon="6.38829">
        <ele>2214.993437611</ele>
        <time>2016-03-30T12:41:19Z</time>
      </trkpt>
      <trkpt lat="45.19221" lon="6.38829">
        <ele>2214.993437611</ele>
        <time>2016-03-30T12:41:24Z</time>
      </trkpt>
      <trkpt lat="45.19221" lon="6.38829">
        <ele>2214.993437611</ele>
        <time>2016-03-30T12:41:37Z</time>
      </trkpt>
      <trkpt lat="45.19221" lon="6.38829">
        <ele>2214.993437611</ele>
        <time>2016-03-30T12:41:38Z</time>
      </trkpt>
      <trkpt lat="45.19221" lon="6.38829">
        <ele>2214.993437611</ele>
        <time>2016-03-30T12:41:49Z</time>
      </trkpt>
      <trkpt lat="45.19221" lon="6.38829">
        <ele>2214.993437611</ele>
        <time>2016-03-30T12:41:54Z</time>
      </trkpt>
      <trkpt lat="45.19221" lon="6.38829">
        <ele>2214.993437611</ele>
        <time>2016-03-30T12:42:05Z</time>
      </trkpt>
      <trkpt lat="45.19221" lon="6.38829">
        <ele>2214.993437611</ele>
        <time>2016-03-30T12:42:09Z</time>
      </trkpt>
      <trkpt lat="45.19221" lon="6.38829">
        <ele>2214.993437611</ele>
        <time>2016-03-30T12:42:20Z</time>
      </trkpt>
      <trkpt lat="45.19221" lon="6.38829">
        <ele>2214.993437611</ele>
        <time>2016-03-30T12:42:24Z</time>
      </trkpt>
      <trkpt lat="45.19221" lon="6.38829">
        <ele>2214.993437611</ele>
        <time>2016-03-30T12:42:34Z</time>
      </trkpt>
      <trkpt lat="45.19221" lon="6.38829">
        <ele>2214.993437611</ele>
        <time>2016-03-30T12:42:39Z</time>
      </trkpt>
      <trkpt lat="45.19221" lon="6.38829">
        <ele>2214.993437611</ele>
        <time>2016-03-30T12:42:54Z</time>
      </trkpt>
      <trkpt lat="45.19221" lon="6.38829">
        <ele>2214.993437611</ele>
        <time>2016-03-30T12:42:59Z</time>
      </trkpt>
      <trkpt lat="45.19221" lon="6.38829">
        <ele>2214.993437611</ele>
        <time>2016-03-30T12:43:10Z</time>
      </trkpt>
      <trkpt lat="45.19221" lon="6.38829">
        <ele>2214.993437611</ele>
        <time>2016-03-30T12:43:14Z</time>
      </trkpt>
      <trkpt lat="45.19221" lon="6.38829">
        <ele>2214.993437611</ele>
        <time>2016-03-30T12:43:24Z</time>
      </trkpt>
      <trkpt lat="45.19221" lon="6.38829">
        <ele>2214.993437611</ele>
        <time>2016-03-30T12:43:29Z</time>
      </trkpt>
      <trkpt lat="45.19221" lon="6.38829">
        <ele>2214.993437611</ele>
        <time>2016-03-30T12:43:40Z</time>
      </trkpt>
      <trkpt lat="45.19221" lon="6.38829">
        <ele>2214.993437611</ele>
        <time>2016-03-30T12:43:44Z</time>
      </trkpt>
      <trkpt lat="45.19221" lon="6.38829">
        <ele>2214.993437611</ele>
        <time>2016-03-30T12:43:54Z</time>
      </trkpt>
      <trkpt lat="45.19222" lon="6.38829">
        <ele>2214.993437611</ele>
        <time>2016-03-30T12:43:59Z</time>
      </trkpt>
      <trkpt lat="45.1922" lon="6.38829">
        <ele>2204.401187832</ele>
        <time>2016-03-30T12:44:10Z</time>
      </trkpt>
      <trkpt lat="45.1922" lon="6.38828">
        <ele>2204.401187832</ele>
        <time>2016-03-30T12:44:14Z</time>
      </trkpt>
      <trkpt lat="45.1922" lon="6.38828">
        <ele>2204.401187832</ele>
        <time>2016-03-30T12:44:29Z</time>
      </trkpt>
      <trkpt lat="45.1922" lon="6.38828">
        <ele>2204.401187832</ele>
        <time>2016-03-30T12:44:33Z</time>
      </trkpt>
      <trkpt lat="45.1922" lon="6.38828">
        <ele>2204.401187832</ele>
        <time>2016-03-30T12:44:43Z</time>
      </trkpt>
      <trkpt lat="45.1922" lon="6.38828">
        <ele>2204.401187832</ele>
        <time>2016-03-30T12:44:49Z</time>
      </trkpt>
      <trkpt lat="45.1922" lon="6.38828">
        <ele>2204.401187832</ele>
        <time>2016-03-30T12:45:01Z</time>
      </trkpt>
      <trkpt lat="45.1922" lon="6.38828">
        <ele>2204.401187832</ele>
        <time>2016-03-30T12:45:04Z</time>
      </trkpt>
      <trkpt lat="45.1922" lon="6.38828">
        <ele>2204.401187832</ele>
        <time>2016-03-30T12:45:09Z</time>
      </trkpt>
      <trkpt lat="45.1922" lon="6.38828">
        <ele>2204.401187832</ele>
        <time>2016-03-30T12:45:19Z</time>
      </trkpt>
      <trkpt lat="45.1922" lon="6.38828">
        <ele>2204.401187832</ele>
        <time>2016-03-30T12:45:24Z</time>
      </trkpt>
      <trkpt lat="45.1922" lon="6.38828">
        <ele>2204.401187832</ele>
        <time>2016-03-30T12:45:34Z</time>
      </trkpt>
      <trkpt lat="45.1922" lon="6.38828">
        <ele>2204.401187832</ele>
        <time>2016-03-30T12:45:40Z</time>
      </trkpt>
      <trkpt lat="45.1922" lon="6.38828">
        <ele>2204.401187832</ele>
        <time>2016-03-30T12:45:48Z</time>
      </trkpt>
      <trkpt lat="45.1922" lon="6.38829">
        <ele>2204.401187832</ele>
        <time>2016-03-30T12:45:55Z</time>
      </trkpt>
      <trkpt lat="45.1922" lon="6.38829">
        <ele>2204.401187832</ele>
        <time>2016-03-30T12:46:05Z</time>
      </trkpt>
      <trkpt lat="45.1922" lon="6.38829">
        <ele>2204.401187832</ele>
        <time>2016-03-30T12:46:09Z</time>
      </trkpt>
      <trkpt lat="45.1922" lon="6.38829">
        <ele>2204.401187832</ele>
        <time>2016-03-30T12:46:20Z</time>
      </trkpt>
      <trkpt lat="45.1922" lon="6.38829">
        <ele>2204.401187832</ele>
        <time>2016-03-30T12:46:25Z</time>
      </trkpt>
      <trkpt lat="45.1922" lon="6.38829">
        <ele>2204.401187832</ele>
        <time>2016-03-30T12:46:34Z</time>
      </trkpt>
      <trkpt lat="45.1922" lon="6.38829">
        <ele>2204.401187832</ele>
        <time>2016-03-30T12:46:39Z</time>
      </trkpt>
      <trkpt lat="45.1922" lon="6.38829">
        <ele>2204.401187832</ele>
        <time>2016-03-30T12:46:49Z</time>
      </trkpt>
      <trkpt lat="45.1922" lon="6.38829">
        <ele>2204.401187832</ele>
        <time>2016-03-30T12:46:54Z</time>
      </trkpt>
      <trkpt lat="45.1922" lon="6.38829">
        <ele>2204.401187832</ele>
        <time>2016-03-30T12:46:58Z</time>
      </trkpt>
      <trkpt lat="45.1922" lon="6.38829">
        <ele>2204.401187832</ele>
        <time>2016-03-30T12:47:05Z</time>
      </trkpt>
      <trkpt lat="45.1922" lon="6.38829">
        <ele>2204.401187832</ele>
        <time>2016-03-30T12:47:09Z</time>
      </trkpt>
      <trkpt lat="45.1922" lon="6.38829">
        <ele>2204.401187832</ele>
        <time>2016-03-30T12:47:14Z</time>
      </trkpt>
      <trkpt lat="45.1922" lon="6.38829">
        <ele>2204.401187832</ele>
        <time>2016-03-30T12:47:26Z</time>
      </trkpt>
      <trkpt lat="45.1922" lon="6.38829">
        <ele>2204.401187832</ele>
        <time>2016-03-30T12:47:29Z</time>
      </trkpt>
      <trkpt lat="45.1922" lon="6.38829">
        <ele>2204.401187832</ele>
        <time>2016-03-30T12:47:38Z</time>
      </trkpt>
      <trkpt lat="45.1922" lon="6.38829">
        <ele>2204.401187832</ele>
        <time>2016-03-30T12:47:43Z</time>
      </trkpt>
      <trkpt lat="45.1922" lon="6.38829">
        <ele>2204.401187832</ele>
        <time>2016-03-30T12:47:54Z</time>
      </trkpt>
      <trkpt lat="45.1922" lon="6.38829">
        <ele>2204.401187832</ele>
        <time>2016-03-30T12:47:59Z</time>
      </trkpt>
      <trkpt lat="45.1922" lon="6.38829">
        <ele>2204.401187832</ele>
        <time>2016-03-30T12:48:08Z</time>
      </trkpt>
      <trkpt lat="45.1922" lon="6.38829">
        <ele>2204.401187832</ele>
        <time>2016-03-30T12:48:14Z</time>
      </trkpt>
      <trkpt lat="45.1922" lon="6.38829">
        <ele>2204.401187832</ele>
        <time>2016-03-30T12:48:24Z</time>
      </trkpt>
      <trkpt lat="45.1922" lon="6.38829">
        <ele>2204.401187832</ele>
        <time>2016-03-30T12:48:30Z</time>
      </trkpt>
      <trkpt lat="45.1922" lon="6.38829">
        <ele>2204.401187832</ele>
        <time>2016-03-30T12:48:44Z</time>
      </trkpt>
      <trkpt lat="45.1922" lon="6.38829">
        <ele>2204.401187832</ele>
        <time>2016-03-30T12:48:49Z</time>
      </trkpt>
      <trkpt lat="45.1922" lon="6.38829">
        <ele>2204.401187832</ele>
        <time>2016-03-30T12:48:58Z</time>
      </trkpt>
      <trkpt lat="45.1922" lon="6.38829">
        <ele>2204.401187832</ele>
        <time>2016-03-30T12:49:49Z</time>
      </trkpt>
      <trkpt lat="45.1922" lon="6.38829">
        <ele>2204.401187832</ele>
        <time>2016-03-30T12:50:16Z</time>
      </trkpt>
      <trkpt lat="45.1922" lon="6.38829">
        <ele>2204.401187832</ele>
        <time>2016-03-30T12:50:19Z</time>
      </trkpt>
      <trkpt lat="45.1922" lon="6.38829">
        <ele>2204.401187832</ele>
        <time>2016-03-30T12:50:38Z</time>
      </trkpt>
      <trkpt lat="45.1922" lon="6.38829">
        <ele>2204.401187832</ele>
        <time>2016-03-30T12:50:39Z</time>
      </trkpt>
      <trkpt lat="45.1922" lon="6.38829">
        <ele>2204.401187832</ele>
        <time>2016-03-30T12:50:50Z</time>
      </trkpt>
      <trkpt lat="45.1922" lon="6.38829">
        <ele>2204.401187832</ele>
        <time>2016-03-30T12:51:06Z</time>
      </trkpt>
      <trkpt lat="45.1922" lon="6.38829">
        <ele>2204.401187832</ele>
        <time>2016-03-30T12:51:37Z</time>
      </trkpt>
      <trkpt lat="45.1922" lon="6.38829">
        <ele>2204.401187832</ele>
        <time>2016-03-30T12:51:38Z</time>
      </trkpt>
      <trkpt lat="45.1922" lon="6.38829">
        <ele>2204.401187832</ele>
        <time>2016-03-30T12:52:25Z</time>
      </trkpt>
      <trkpt lat="45.1922" lon="6.38829">
        <ele>2204.401187832</ele>
        <time>2016-03-30T12:52:26Z</time>
      </trkpt>
      <trkpt lat="45.1922" lon="6.38829">
        <ele>2204.401187832</ele>
        <time>2016-03-30T12:52:38Z</time>
      </trkpt>
      <trkpt lat="45.1922" lon="6.38829">
        <ele>2204.401187832</ele>
        <time>2016-03-30T12:52:39Z</time>
      </trkpt>
      <trkpt lat="45.1922" lon="6.38829">
        <ele>2204.401187832</ele>
        <time>2016-03-30T12:53:14Z</time>
      </trkpt>
      <trkpt lat="45.1922" lon="6.38829">
        <ele>2204.401187832</ele>
        <time>2016-03-30T12:53:15Z</time>
      </trkpt>
      <trkpt lat="45.1922" lon="6.38829">
        <ele>2204.401187832</ele>
        <time>2016-03-30T12:53:16Z</time>
      </trkpt>
      <trkpt lat="45.1922" lon="6.38829">
        <ele>2204.401187832</ele>
        <time>2016-03-30T12:53:30Z</time>
      </trkpt>
      <trkpt lat="45.1922" lon="6.38829">
        <ele>2204.401187832</ele>
        <time>2016-03-30T12:53:48Z</time>
      </trkpt>
      <trkpt lat="45.1922" lon="6.38829">
        <ele>2204.401187832</ele>
        <time>2016-03-30T12:53:50Z</time>
      </trkpt>
      <trkpt lat="45.1922" lon="6.38829">
        <ele>2204.401187832</ele>
        <time>2016-03-30T12:54:09Z</time>
      </trkpt>
      <trkpt lat="45.1922" lon="6.38829">
        <ele>2204.401187832</ele>
        <time>2016-03-30T12:54:34Z</time>
      </trkpt>
      <trkpt lat="45.1922" lon="6.38829">
        <ele>2204.401187832</ele>
        <time>2016-03-30T12:54:39Z</time>
      </trkpt>
      <trkpt lat="45.1922" lon="6.38829">
        <ele>2204.401187832</ele>
        <time>2016-03-30T12:54:53Z</time>
      </trkpt>
      <trkpt lat="45.1922" lon="6.38829">
        <ele>2204.401187832</ele>
        <time>2016-03-30T12:54:58Z</time>
      </trkpt>
      <trkpt lat="45.1922" lon="6.38828">
        <ele>2204.401187832</ele>
        <time>2016-03-30T12:55:08Z</time>
      </trkpt>
      <trkpt lat="45.1922" lon="6.38828">
        <ele>2204.401187832</ele>
        <time>2016-03-30T12:55:13Z</time>
      </trkpt>
      <trkpt lat="45.1922" lon="6.38828">
        <ele>2204.401187832</ele>
        <time>2016-03-30T12:55:25Z</time>
      </trkpt>
      <trkpt lat="45.1922" lon="6.38828">
        <ele>2204.401187832</ele>
        <time>2016-03-30T12:55:28Z</time>
      </trkpt>
      <trkpt lat="45.1922" lon="6.38828">
        <ele>2204.401187832</ele>
        <time>2016-03-30T12:55:44Z</time>
      </trkpt>
      <trkpt lat="45.1922" lon="6.38828">
        <ele>2204.401187832</ele>
        <time>2016-03-30T12:55:46Z</time>
      </trkpt>
      <trkpt lat="45.1922" lon="6.38828">
        <ele>2204.401187832</ele>
        <time>2016-03-30T12:55:57Z</time>
      </trkpt>
      <trkpt lat="45.1922" lon="6.38828">
        <ele>2204.401187832</ele>
        <time>2016-03-30T12:55:58Z</time>
      </trkpt>
      <trkpt lat="45.1922" lon="6.38828">
        <ele>2204.401187832</ele>
        <time>2016-03-30T12:56:17Z</time>
      </trkpt>
      <trkpt lat="45.1922" lon="6.38828">
        <ele>2204.401187832</ele>
        <time>2016-03-30T12:56:18Z</time>
      </trkpt>
      <trkpt lat="45.1922" lon="6.38828">
        <ele>2204.401187832</ele>
        <time>2016-03-30T12:56:39Z</time>
      </trkpt>
      <trkpt lat="45.1922" lon="6.38828">
        <ele>2204.401187832</ele>
        <time>2016-03-30T12:56:40Z</time>
      </trkpt>
      <trkpt lat="45.1922" lon="6.38828">
        <ele>2204.401187832</ele>
        <time>2016-03-30T12:56:50Z</time>
      </trkpt>
      <trkpt lat="45.1922" lon="6.38828">
        <ele>2204.401187832</ele>
        <time>2016-03-30T12:57:07Z</time>
      </trkpt>
      <trkpt lat="45.1922" lon="6.38828">
        <ele>2204.401187832</ele>
        <time>2016-03-30T12:57:08Z</time>
      </trkpt>
      <trkpt lat="45.1922" lon="6.38828">
        <ele>2204.401187832</ele>
        <time>2016-03-30T12:58:24Z</time>
      </trkpt>
      <trkpt lat="45.1922" lon="6.38828">
        <ele>2204.401187832</ele>
        <time>2016-03-30T12:59:31Z</time>
      </trkpt>
      <trkpt lat="45.1922" lon="6.38828">
        <ele>2204.401187832</ele>
        <time>2016-03-30T12:59:33Z</time>
      </trkpt>
      <trkpt lat="45.1922" lon="6.38828">
        <ele>2204.401187832</ele>
        <time>2016-03-30T12:59:43Z</time>
      </trkpt>
      <trkpt lat="45.1922" lon="6.38828">
        <ele>2204.401187832</ele>
        <time>2016-03-30T12:59:48Z</time>
      </trkpt>
      <trkpt lat="45.1922" lon="6.38828">
        <ele>2204.401187832</ele>
        <time>2016-03-30T13:00:17Z</time>
      </trkpt>
      <trkpt lat="45.1922" lon="6.38828">
        <ele>2204.401187832</ele>
        <time>2016-03-30T13:00:18Z</time>
      </trkpt>
      <trkpt lat="45.1922" lon="6.38828">
        <ele>2204.401187832</ele>
        <time>2016-03-30T13:00:25Z</time>
      </trkpt>
      <trkpt lat="45.1922" lon="6.38828">
        <ele>2204.401187832</ele>
        <time>2016-03-30T13:00:40Z</time>
      </trkpt>
      <trkpt lat="45.1922" lon="6.38828">
        <ele>2204.401187832</ele>
        <time>2016-03-30T13:00:55Z</time>
      </trkpt>
      <trkpt lat="45.1922" lon="6.38828">
        <ele>2204.401187832</ele>
        <time>2016-03-30T13:00:56Z</time>
      </trkpt>
      <trkpt lat="45.1922" lon="6.38828">
        <ele>2204.401187832</ele>
        <time>2016-03-30T13:01:14Z</time>
      </trkpt>
      <trkpt lat="45.1922" lon="6.38828">
        <ele>2204.401187832</ele>
        <time>2016-03-30T13:01:16Z</time>
      </trkpt>
      <trkpt lat="45.1922" lon="6.38828">
        <ele>2204.401187832</ele>
        <time>2016-03-30T13:01:26Z</time>
      </trkpt>
      <trkpt lat="45.1922" lon="6.38828">
        <ele>2204.401187832</ele>
        <time>2016-03-30T13:01:46Z</time>
      </trkpt>
      <trkpt lat="45.1922" lon="6.38828">
        <ele>2204.401187832</ele>
        <time>2016-03-30T13:01:48Z</time>
      </trkpt>
      <trkpt lat="45.1922" lon="6.38828">
        <ele>2204.401187832</ele>
        <time>2016-03-30T13:02:27Z</time>
      </trkpt>
      <trkpt lat="45.1922" lon="6.38828">
        <ele>2204.401187832</ele>
        <time>2016-03-30T13:02:28Z</time>
      </trkpt>
      <trkpt lat="45.1922" lon="6.38828">
        <ele>2204.401187832</ele>
        <time>2016-03-30T13:03:43Z</time>
      </trkpt>
      <trkpt lat="45.1922" lon="6.38828">
        <ele>2204.401187832</ele>
        <time>2016-03-30T13:04:02Z</time>
      </trkpt>
      <trkpt lat="45.1922" lon="6.38828">
        <ele>2204.401187832</ele>
        <time>2016-03-30T13:04:07Z</time>
      </trkpt>
      <trkpt lat="45.1922" lon="6.38828">
        <ele>2204.401187832</ele>
        <time>2016-03-30T13:04:09Z</time>
      </trkpt>
      <trkpt lat="45.1922" lon="6.38828">
        <ele>2204.401187832</ele>
        <time>2016-03-30T13:04:19Z</time>
      </trkpt>
      <trkpt lat="45.1922" lon="6.38828">
        <ele>2204.401187832</ele>
        <time>2016-03-30T13:04:25Z</time>
      </trkpt>
      <trkpt lat="45.1922" lon="6.38828">
        <ele>2204.401187832</ele>
        <time>2016-03-30T13:04:44Z</time>
      </trkpt>
      <trkpt lat="45.1922" lon="6.38828">
        <ele>2204.401187832</ele>
        <time>2016-03-30T13:04:53Z</time>
      </trkpt>
      <trkpt lat="45.1922" lon="6.38828">
        <ele>2204.401187832</ele>
        <time>2016-03-30T13:05:21Z</time>
      </trkpt>
      <trkpt lat="45.1922" lon="6.38828">
        <ele>2204.401187832</ele>
        <time>2016-03-30T13:05:23Z</time>
      </trkpt>
      <trkpt lat="45.1922" lon="6.38828">
        <ele>2204.401187832</ele>
        <time>2016-03-30T13:05:47Z</time>
      </trkpt>
      <trkpt lat="45.1922" lon="6.38828">
        <ele>2204.401187832</ele>
        <time>2016-03-30T13:06:05Z</time>
      </trkpt>
      <trkpt lat="45.1922" lon="6.38828">
        <ele>2204.401187832</ele>
        <time>2016-03-30T13:06:05Z</time>
      </trkpt>
      <trkpt lat="45.1922" lon="6.38828">
        <ele>2204.401187832</ele>
        <time>2016-03-30T13:06:17Z</time>
      </trkpt>
      <trkpt lat="45.1922" lon="6.38828">
        <ele>2204.401187832</ele>
        <time>2016-03-30T13:06:18Z</time>
      </trkpt>
      <trkpt lat="45.1922" lon="6.38828">
        <ele>2204.401187832</ele>
        <time>2016-03-30T13:06:31Z</time>
      </trkpt>
      <trkpt lat="45.1922" lon="6.38828">
        <ele>2204.401187832</ele>
        <time>2016-03-30T13:07:00Z</time>
      </trkpt>
      <trkpt lat="45.1922" lon="6.38828">
        <ele>2204.401187832</ele>
        <time>2016-03-30T13:07:00Z</time>
      </trkpt>
      <trkpt lat="45.1922" lon="6.38828">
        <ele>2204.401187832</ele>
        <time>2016-03-30T13:07:13Z</time>
      </trkpt>
      <trkpt lat="45.1922" lon="6.38828">
        <ele>2204.401187832</ele>
        <time>2016-03-30T13:07:51Z</time>
      </trkpt>
      <trkpt lat="45.1922" lon="6.38828">
        <ele>2204.401187832</ele>
        <time>2016-03-30T13:07:52Z</time>
      </trkpt>
      <trkpt lat="45.1922" lon="6.38828">
        <ele>2204.401187832</ele>
        <time>2016-03-30T13:08:26Z</time>
      </trkpt>
      <trkpt lat="45.1922" lon="6.38828">
        <ele>2204.401187832</ele>
        <time>2016-03-30T13:08:41Z</time>
      </trkpt>
      <trkpt lat="45.1922" lon="6.38828">
        <ele>2204.401187832</ele>
        <time>2016-03-30T13:08:42Z</time>
      </trkpt>
      <trkpt lat="45.1922" lon="6.38828">
        <ele>2204.401187832</ele>
        <time>2016-03-30T13:09:00Z</time>
      </trkpt>
      <trkpt lat="45.1922" lon="6.38828">
        <ele>2204.401187832</ele>
        <time>2016-03-30T13:09:01Z</time>
      </trkpt>
      <trkpt lat="45.1922" lon="6.38828">
        <ele>2204.401187832</ele>
        <time>2016-03-30T13:09:45Z</time>
      </trkpt>
      <trkpt lat="45.1922" lon="6.38828">
        <ele>2204.401187832</ele>
        <time>2016-03-30T13:09:46Z</time>
      </trkpt>
      <trkpt lat="45.1922" lon="6.38828">
        <ele>2204.401187832</ele>
        <time>2016-03-30T13:10:25Z</time>
      </trkpt>
      <trkpt lat="45.1922" lon="6.38828">
        <ele>2204.401187832</ele>
        <time>2016-03-30T13:10:39Z</time>
      </trkpt>
      <trkpt lat="45.1922" lon="6.38828">
        <ele>2204.401187832</ele>
        <time>2016-03-30T13:10:40Z</time>
      </trkpt>
      <trkpt lat="45.1922" lon="6.38828">
        <ele>2204.401187832</ele>
        <time>2016-03-30T13:10:43Z</time>
      </trkpt>
      <trkpt lat="45.1922" lon="6.38828">
        <ele>2204.401187832</ele>
        <time>2016-03-30T13:11:11Z</time>
      </trkpt>
      <trkpt lat="45.1922" lon="6.38828">
        <ele>2204.401187832</ele>
        <time>2016-03-30T13:11:14Z</time>
      </trkpt>
      <trkpt lat="45.1922" lon="6.38828">
        <ele>2204.401187832</ele>
        <time>2016-03-30T13:11:18Z</time>
      </trkpt>
      <trkpt lat="45.1922" lon="6.38828">
        <ele>2204.401187832</ele>
        <time>2016-03-30T13:11:28Z</time>
      </trkpt>
      <trkpt lat="45.1922" lon="6.38828">
        <ele>2204.401187832</ele>
        <time>2016-03-30T13:11:43Z</time>
      </trkpt>
      <trkpt lat="45.1922" lon="6.38828">
        <ele>2204.401187832</ele>
        <time>2016-03-30T13:11:48Z</time>
      </trkpt>
      <trkpt lat="45.1922" lon="6.38828">
        <ele>2204.401187832</ele>
        <time>2016-03-30T13:11:58Z</time>
      </trkpt>
      <trkpt lat="45.1922" lon="6.38828">
        <ele>2204.401187832</ele>
        <time>2016-03-30T13:12:03Z</time>
      </trkpt>
      <trkpt lat="45.1922" lon="6.38828">
        <ele>2204.401187832</ele>
        <time>2016-03-30T13:13:19Z</time>
      </trkpt>
      <trkpt lat="45.1922" lon="6.38828">
        <ele>2204.401187832</ele>
        <time>2016-03-30T13:13:20Z</time>
      </trkpt>
      <trkpt lat="45.1922" lon="6.38828">
        <ele>2204.401187832</ele>
        <time>2016-03-30T13:13:35Z</time>
      </trkpt>
      <trkpt lat="45.1922" lon="6.38828">
        <ele>2204.401187832</ele>
        <time>2016-03-30T13:13:38Z</time>
      </trkpt>
      <trkpt lat="45.1922" lon="6.38828">
        <ele>2204.401187832</ele>
        <time>2016-03-30T13:13:55Z</time>
      </trkpt>
      <trkpt lat="45.1922" lon="6.38828">
        <ele>2204.401187832</ele>
        <time>2016-03-30T13:13:58Z</time>
      </trkpt>
      <trkpt lat="45.1922" lon="6.38828">
        <ele>2204.401187832</ele>
        <time>2016-03-30T13:14:42Z</time>
      </trkpt>
      <trkpt lat="45.1922" lon="6.38828">
        <ele>2204.401187832</ele>
        <time>2016-03-30T13:14:43Z</time>
      </trkpt>
      <trkpt lat="45.1922" lon="6.38828">
        <ele>2204.401187832</ele>
        <time>2016-03-30T13:15:16Z</time>
      </trkpt>
      <trkpt lat="45.1922" lon="6.38828">
        <ele>2204.401187832</ele>
        <time>2016-03-30T13:15:18Z</time>
      </trkpt>
      <trkpt lat="45.1922" lon="6.38828">
        <ele>2204.401187832</ele>
        <time>2016-03-30T13:15:25Z</time>
      </trkpt>
      <trkpt lat="45.1922" lon="6.38828">
        <ele>2204.401187832</ele>
        <time>2016-03-30T13:15:39Z</time>
      </trkpt>
      <trkpt lat="45.1922" lon="6.38828">
        <ele>2204.401187832</ele>
        <time>2016-03-30T13:16:03Z</time>
      </trkpt>
      <trkpt lat="45.1922" lon="6.38827">
        <ele>2204.401187832</ele>
        <time>2016-03-30T13:16:38Z</time>
      </trkpt>
      <trkpt lat="45.1922" lon="6.38828">
        <ele>2204.401187832</ele>
        <time>2016-03-30T13:16:43Z</time>
      </trkpt>
      <trkpt lat="45.1922" lon="6.38827">
        <ele>2204.401187832</ele>
        <time>2016-03-30T13:17:13Z</time>
      </trkpt>
      <trkpt lat="45.19217" lon="6.38828">
        <ele>2204.401187832</ele>
        <time>2016-03-30T13:17:26Z</time>
      </trkpt>
      <trkpt lat="45.19217" lon="6.38828">
        <ele>2204.401187832</ele>
        <time>2016-03-30T13:17:28Z</time>
      </trkpt>
      <trkpt lat="45.19219" lon="6.38826">
        <ele>2204.401187832</ele>
        <time>2016-03-30T13:17:39Z</time>
      </trkpt>
      <trkpt lat="45.1922" lon="6.38825">
        <ele>2204.401187832</ele>
        <time>2016-03-30T13:17:44Z</time>
      </trkpt>
      <trkpt lat="45.19221" lon="6.38824">
        <ele>2195.13244099</ele>
        <time>2016-03-30T13:17:54Z</time>
      </trkpt>
      <trkpt lat="45.19221" lon="6.38824">
        <ele>2195.13244099</ele>
        <time>2016-03-30T13:18:00Z</time>
      </trkpt>
      <trkpt lat="45.19221" lon="6.38824">
        <ele>2195.13244099</ele>
        <time>2016-03-30T13:18:14Z</time>
      </trkpt>
      <trkpt lat="45.19221" lon="6.38824">
        <ele>2195.13244099</ele>
        <time>2016-03-30T13:18:29Z</time>
      </trkpt>
      <trkpt lat="45.19221" lon="6.38824">
        <ele>2195.13244099</ele>
        <time>2016-03-30T13:18:40Z</time>
      </trkpt>
      <trkpt lat="45.19221" lon="6.38824">
        <ele>2195.13244099</ele>
        <time>2016-03-30T13:18:44Z</time>
      </trkpt>
      <trkpt lat="45.19221" lon="6.38824">
        <ele>2195.13244099</ele>
        <time>2016-03-30T13:18:49Z</time>
      </trkpt>
      <trkpt lat="45.19221" lon="6.38824">
        <ele>2195.13244099</ele>
        <time>2016-03-30T13:19:00Z</time>
      </trkpt>
      <trkpt lat="45.19221" lon="6.38824">
        <ele>2195.13244099</ele>
        <time>2016-03-30T13:19:04Z</time>
      </trkpt>
      <trkpt lat="45.19221" lon="6.38824">
        <ele>2195.13244099</ele>
        <time>2016-03-30T13:19:15Z</time>
      </trkpt>
      <trkpt lat="45.1922" lon="6.38825">
        <ele>2195.13244099</ele>
        <time>2016-03-30T13:19:19Z</time>
      </trkpt>
      <trkpt lat="45.19221" lon="6.38824">
        <ele>2195.13244099</ele>
        <time>2016-03-30T13:19:29Z</time>
      </trkpt>
      <trkpt lat="45.19221" lon="6.38824">
        <ele>2195.13244099</ele>
        <time>2016-03-30T13:19:34Z</time>
      </trkpt>
      <trkpt lat="45.19222" lon="6.38824">
        <ele>2195.13244099</ele>
        <time>2016-03-30T13:19:49Z</time>
      </trkpt>
      <trkpt lat="45.19222" lon="6.38824">
        <ele>2195.13244099</ele>
        <time>2016-03-30T13:19:54Z</time>
      </trkpt>
      <trkpt lat="45.19222" lon="6.38824">
        <ele>2195.13244099</ele>
        <time>2016-03-30T13:20:04Z</time>
      </trkpt>
      <trkpt lat="45.19222" lon="6.38824">
        <ele>2195.13244099</ele>
        <time>2016-03-30T13:20:19Z</time>
      </trkpt>
      <trkpt lat="45.19222" lon="6.38824">
        <ele>2195.13244099</ele>
        <time>2016-03-30T13:20:23Z</time>
      </trkpt>
      <trkpt lat="45.19222" lon="6.38824">
        <ele>2195.13244099</ele>
        <time>2016-03-30T13:20:34Z</time>
      </trkpt>
      <trkpt lat="45.19222" lon="6.38824">
        <ele>2195.13244099</ele>
        <time>2016-03-30T13:20:39Z</time>
      </trkpt>
      <trkpt lat="45.19222" lon="6.38824">
        <ele>2195.13244099</ele>
        <time>2016-03-30T13:20:49Z</time>
      </trkpt>
      <trkpt lat="45.19222" lon="6.38824">
        <ele>2195.13244099</ele>
        <time>2016-03-30T13:20:55Z</time>
      </trkpt>
      <trkpt lat="45.19222" lon="6.38824">
        <ele>2195.13244099</ele>
        <time>2016-03-30T13:21:04Z</time>
      </trkpt>
      <trkpt lat="45.19222" lon="6.38824">
        <ele>2195.13244099</ele>
        <time>2016-03-30T13:21:11Z</time>
      </trkpt>
      <trkpt lat="45.19235" lon="6.38834">
        <ele>2186.521380176</ele>
        <time>2016-03-30T13:21:23Z</time>
      </trkpt>
      <trkpt lat="45.19234" lon="6.38849">
        <ele>2178.093079195</ele>
        <time>2016-03-30T13:21:28Z</time>
      </trkpt>
      <trkpt lat="45.1926" lon="6.38903">
        <ele>2169.262590184</ele>
        <time>2016-03-30T13:21:38Z</time>
      </trkpt>
      <trkpt lat="45.19272" lon="6.38941">
        <ele>2160.785783108</ele>
        <time>2016-03-30T13:21:43Z</time>
      </trkpt>
      <trkpt lat="45.19289" lon="6.39004">
        <ele>2152.064734352</ele>
        <time>2016-03-30T13:21:50Z</time>
      </trkpt>
      <trkpt lat="45.19297" lon="6.39024">
        <ele>2144.419306457</ele>
        <time>2016-03-30T13:21:53Z</time>
      </trkpt>
      <trkpt lat="45.19301" lon="6.39034">
        <ele>2144.419306457</ele>
        <time>2016-03-30T13:22:00Z</time>
      </trkpt>
      <trkpt lat="45.19302" lon="6.39032">
        <ele>2137.916242698</ele>
        <time>2016-03-30T13:22:10Z</time>
      </trkpt>
      <trkpt lat="45.19302" lon="6.39032">
        <ele>2137.916242698</ele>
        <time>2016-03-30T13:22:14Z</time>
      </trkpt>
      <trkpt lat="45.19299" lon="6.39058">
        <ele>2131.461048144</ele>
        <time>2016-03-30T13:22:25Z</time>
      </trkpt>
      <trkpt lat="45.19297" lon="6.39081">
        <ele>2125.048050179</ele>
        <time>2016-03-30T13:22:29Z</time>
      </trkpt>
      <trkpt lat="45.19294" lon="6.39115">
        <ele>2118.095228312</ele>
        <time>2016-03-30T13:22:39Z</time>
      </trkpt>
      <trkpt lat="45.19288" lon="6.39118">
        <ele>2118.095228312</ele>
        <time>2016-03-30T13:22:44Z</time>
      </trkpt>
      <trkpt lat="45.19279" lon="6.39169">
        <ele>2109.632314627</ele>
        <time>2016-03-30T13:22:55Z</time>
      </trkpt>
      <trkpt lat="45.19269" lon="6.39182">
        <ele>2101.502496871</ele>
        <time>2016-03-30T13:22:59Z</time>
      </trkpt>
      <trkpt lat="45.19278" lon="6.39215">
        <ele>2092.818469634</ele>
        <time>2016-03-30T13:23:10Z</time>
      </trkpt>
      <trkpt lat="45.19281" lon="6.39211">
        <ele>2092.818469634</ele>
        <time>2016-03-30T13:23:14Z</time>
      </trkpt>
      <trkpt lat="45.19281" lon="6.39219">
        <ele>2092.818469634</ele>
        <time>2016-03-30T13:23:24Z</time>
      </trkpt>
      <trkpt lat="45.19281" lon="6.39219">
        <ele>2084.777068129</ele>
        <time>2016-03-30T13:23:29Z</time>
      </trkpt>
      <trkpt lat="45.1928" lon="6.3922">
        <ele>2084.777068129</ele>
        <time>2016-03-30T13:23:34Z</time>
      </trkpt>
      <trkpt lat="45.19279" lon="6.39222">
        <ele>2084.777068129</ele>
        <time>2016-03-30T13:23:44Z</time>
      </trkpt>
      <trkpt lat="45.19278" lon="6.39221">
        <ele>2084.777068129</ele>
        <time>2016-03-30T13:23:49Z</time>
      </trkpt>
      <trkpt lat="45.19277" lon="6.3922">
        <ele>2084.777068129</ele>
        <time>2016-03-30T13:23:59Z</time>
      </trkpt>
      <trkpt lat="45.19277" lon="6.3922">
        <ele>2084.777068129</ele>
        <time>2016-03-30T13:24:05Z</time>
      </trkpt>
      <trkpt lat="45.19277" lon="6.3922">
        <ele>2084.777068129</ele>
        <time>2016-03-30T13:24:15Z</time>
      </trkpt>
      <trkpt lat="45.19277" lon="6.3922">
        <ele>2084.777068129</ele>
        <time>2016-03-30T13:24:19Z</time>
      </trkpt>
      <trkpt lat="45.19277" lon="6.3922">
        <ele>2084.777068129</ele>
        <time>2016-03-30T13:24:29Z</time>
      </trkpt>
      <trkpt lat="45.19277" lon="6.3922">
        <ele>2084.777068129</ele>
        <time>2016-03-30T13:24:35Z</time>
      </trkpt>
      <trkpt lat="45.19277" lon="6.3922">
        <ele>2084.777068129</ele>
        <time>2016-03-30T13:24:44Z</time>
      </trkpt>
      <trkpt lat="45.19277" lon="6.3922">
        <ele>2084.777068129</ele>
        <time>2016-03-30T13:24:48Z</time>
      </trkpt>
      <trkpt lat="45.19275" lon="6.39224">
        <ele>2076.035368727</ele>
        <time>2016-03-30T13:25:04Z</time>
      </trkpt>
      <trkpt lat="45.19274" lon="6.3924">
        <ele>2068.233144042</ele>
        <time>2016-03-30T13:25:08Z</time>
      </trkpt>
      <trkpt lat="45.1928" lon="6.3927">
        <ele>2060.581159837</ele>
        <time>2016-03-30T13:25:18Z</time>
      </trkpt>
      <trkpt lat="45.19275" lon="6.39284">
        <ele>2053.068164829</ele>
        <time>2016-03-30T13:25:23Z</time>
      </trkpt>
      <trkpt lat="45.19267" lon="6.39341">
        <ele>2044.386222786</ele>
        <time>2016-03-30T13:25:33Z</time>
      </trkpt>
      <trkpt lat="45.19258" lon="6.39382">
        <ele>2036.208867246</ele>
        <time>2016-03-30T13:25:38Z</time>
      </trkpt>
      <trkpt lat="45.19254" lon="6.39399">
        <ele>2028.932285174</ele>
        <time>2016-03-30T13:25:48Z</time>
      </trkpt>
      <trkpt lat="45.19253" lon="6.39399">
        <ele>2028.932285174</ele>
        <time>2016-03-30T13:25:53Z</time>
      </trkpt>
      <trkpt lat="45.19256" lon="6.39398">
        <ele>2028.932285174</ele>
        <time>2016-03-30T13:26:03Z</time>
      </trkpt>
      <trkpt lat="45.19256" lon="6.394">
        <ele>2028.932285174</ele>
        <time>2016-03-30T13:26:08Z</time>
      </trkpt>
      <trkpt lat="45.19258" lon="6.39409">
        <ele>2023.065049498</ele>
        <time>2016-03-30T13:26:18Z</time>
      </trkpt>
      <trkpt lat="45.19264" lon="6.39439">
        <ele>2017.92145037</ele>
        <time>2016-03-30T13:26:23Z</time>
      </trkpt>
      <trkpt lat="45.19261" lon="6.39526">
        <ele>2012.719947923</ele>
        <time>2016-03-30T13:26:33Z</time>
      </trkpt>
      <trkpt lat="45.19262" lon="6.39562">
        <ele>2007.889429272</ele>
        <time>2016-03-30T13:26:38Z</time>
      </trkpt>
      <trkpt lat="45.19274" lon="6.39674">
        <ele>2002.529223775</ele>
        <time>2016-03-30T13:26:53Z</time>
      </trkpt>
      <trkpt lat="45.19301" lon="6.39684">
        <ele>1997.391546432</ele>
        <time>2016-03-30T13:26:58Z</time>
      </trkpt>
      <trkpt lat="45.19319" lon="6.39732">
        <ele>1991.011098024</ele>
        <time>2016-03-30T13:27:08Z</time>
      </trkpt>
      <trkpt lat="45.19333" lon="6.39752">
        <ele>1985.348315796</ele>
        <time>2016-03-30T13:27:13Z</time>
      </trkpt>
      <trkpt lat="45.19368" lon="6.39795">
        <ele>1978.614898441</ele>
        <time>2016-03-30T13:27:23Z</time>
      </trkpt>
      <trkpt lat="45.19365" lon="6.39797">
        <ele>1978.614898441</ele>
        <time>2016-03-30T13:27:28Z</time>
      </trkpt>
      <trkpt lat="45.19362" lon="6.39799">
        <ele>1978.614898441</ele>
        <time>2016-03-30T13:27:38Z</time>
      </trkpt>
      <trkpt lat="45.19365" lon="6.39797">
        <ele>1972.183326947</ele>
        <time>2016-03-30T13:27:43Z</time>
      </trkpt>
      <trkpt lat="45.19378" lon="6.39803">
        <ele>1965.88338652</ele>
        <time>2016-03-30T13:27:53Z</time>
      </trkpt>
      <trkpt lat="45.19412" lon="6.3981">
        <ele>1959.557087546</ele>
        <time>2016-03-30T13:27:58Z</time>
      </trkpt>
      <trkpt lat="45.19467" lon="6.39874">
        <ele>1952.33765825</ele>
        <time>2016-03-30T13:28:08Z</time>
      </trkpt>
      <trkpt lat="45.19494" lon="6.39915">
        <ele>1945.153935096</ele>
        <time>2016-03-30T13:28:13Z</time>
      </trkpt>
      <trkpt lat="45.19529" lon="6.39995">
        <ele>1937.857740594</ele>
        <time>2016-03-30T13:28:23Z</time>
      </trkpt>
      <trkpt lat="45.19532" lon="6.40004">
        <ele>1937.857740594</ele>
        <time>2016-03-30T13:28:28Z</time>
      </trkpt>
      <trkpt lat="45.19532" lon="6.40005">
        <ele>1937.857740594</ele>
        <time>2016-03-30T13:28:43Z</time>
      </trkpt>
      <trkpt lat="45.19532" lon="6.40005">
        <ele>1937.857740594</ele>
        <time>2016-03-30T13:28:48Z</time>
      </trkpt>
      <trkpt lat="45.19532" lon="6.40006">
        <ele>1937.857740594</ele>
        <time>2016-03-30T13:28:58Z</time>
      </trkpt>
      <trkpt lat="45.19531" lon="6.40006">
        <ele>1937.857740594</ele>
        <time>2016-03-30T13:29:03Z</time>
      </trkpt>
      <trkpt lat="45.19531" lon="6.40006">
        <ele>1937.857740594</ele>
        <time>2016-03-30T13:29:13Z</time>
      </trkpt>
      <trkpt lat="45.19528" lon="6.40005">
        <ele>1931.176859815</ele>
        <time>2016-03-30T13:29:18Z</time>
      </trkpt>
      <trkpt lat="45.19528" lon="6.40005">
        <ele>1931.176859815</ele>
        <time>2016-03-30T13:29:28Z</time>
      </trkpt>
      <trkpt lat="45.19528" lon="6.40006">
        <ele>1931.176859815</ele>
        <time>2016-03-30T13:29:33Z</time>
      </trkpt>
      <trkpt lat="45.19528" lon="6.40006">
        <ele>1931.176859815</ele>
        <time>2016-03-30T13:29:43Z</time>
      </trkpt>
      <trkpt lat="45.19528" lon="6.40006">
        <ele>1931.176859815</ele>
        <time>2016-03-30T13:29:48Z</time>
      </trkpt>
      <trkpt lat="45.19527" lon="6.40031">
        <ele>1924.631093049</ele>
        <time>2016-03-30T13:29:58Z</time>
      </trkpt>
      <trkpt lat="45.19538" lon="6.40058">
        <ele>1918.207563262</ele>
        <time>2016-03-30T13:30:03Z</time>
      </trkpt>
      <trkpt lat="45.19561" lon="6.40144">
        <ele>1911.029422083</ele>
        <time>2016-03-30T13:30:13Z</time>
      </trkpt>
      <trkpt lat="45.19567" lon="6.40191">
        <ele>1904.01577744</ele>
        <time>2016-03-30T13:30:19Z</time>
      </trkpt>
      <trkpt lat="45.19579" lon="6.40258">
        <ele>1896.57673771</ele>
        <time>2016-03-30T13:30:29Z</time>
      </trkpt>
      <trkpt lat="45.19583" lon="6.40296">
        <ele>1889.60813727</ele>
        <time>2016-03-30T13:30:34Z</time>
      </trkpt>
      <trkpt lat="45.19609" lon="6.40343">
        <ele>1882.353544073</ele>
        <time>2016-03-30T13:30:45Z</time>
      </trkpt>
      <trkpt lat="45.19617" lon="6.40358">
        <ele>1875.842310029</ele>
        <time>2016-03-30T13:30:49Z</time>
      </trkpt>
      <trkpt lat="45.1962" lon="6.40432">
        <ele>1869.008607628</ele>
        <time>2016-03-30T13:31:00Z</time>
      </trkpt>
      <trkpt lat="45.19621" lon="6.40467">
        <ele>1862.451108546</ele>
        <time>2016-03-30T13:31:04Z</time>
      </trkpt>
      <trkpt lat="45.19642" lon="6.40582">
        <ele>1852.97691233</ele>
        <time>2016-03-30T13:31:44Z</time>
      </trkpt>
      <trkpt lat="45.19641" lon="6.40582">
        <ele>1852.97691233</ele>
        <time>2016-03-30T13:31:48Z</time>
      </trkpt>
      <trkpt lat="45.19641" lon="6.40583">
        <ele>1852.97691233</ele>
        <time>2016-03-30T13:31:58Z</time>
      </trkpt>
      <trkpt lat="45.1964" lon="6.40583">
        <ele>1852.97691233</ele>
        <time>2016-03-30T13:32:03Z</time>
      </trkpt>
      <trkpt lat="45.19637" lon="6.40605">
        <ele>1844.265027058</ele>
        <time>2016-03-30T13:32:16Z</time>
      </trkpt>
      <trkpt lat="45.19644" lon="6.40652">
        <ele>1835.542893229</ele>
        <time>2016-03-30T13:32:19Z</time>
      </trkpt>
      <trkpt lat="45.19673" lon="6.40698">
        <ele>1827.247659737</ele>
        <time>2016-03-30T13:32:29Z</time>
      </trkpt>
      <trkpt lat="45.19687" lon="6.40717">
        <ele>1819.927301687</ele>
        <time>2016-03-30T13:32:34Z</time>
      </trkpt>
      <trkpt lat="45.19705" lon="6.40758">
        <ele>1813.654489995</ele>
        <time>2016-03-30T13:32:44Z</time>
      </trkpt>
      <trkpt lat="45.19714" lon="6.40769">
        <ele>1808.061301749</ele>
        <time>2016-03-30T13:32:48Z</time>
      </trkpt>
      <trkpt lat="45.19731" lon="6.40806">
        <ele>1802.949067912</ele>
        <time>2016-03-30T13:32:58Z</time>
      </trkpt>
      <trkpt lat="45.1974" lon="6.40839">
        <ele>1798.564731087</ele>
        <time>2016-03-30T13:33:03Z</time>
      </trkpt>
      <trkpt lat="45.19753" lon="6.40872">
        <ele>1794.70276749</ele>
        <time>2016-03-30T13:33:13Z</time>
      </trkpt>
      <trkpt lat="45.19761" lon="6.40894">
        <ele>1791.459577108</ele>
        <time>2016-03-30T13:33:20Z</time>
      </trkpt>
      <trkpt lat="45.19791" lon="6.40946">
        <ele>1788.778723757</ele>
        <time>2016-03-30T13:33:30Z</time>
      </trkpt>
      <trkpt lat="45.19803" lon="6.40963">
        <ele>1786.894680684</ele>
        <time>2016-03-30T13:33:34Z</time>
      </trkpt>
      <trkpt lat="45.19835" lon="6.40991">
        <ele>1784.005050661</ele>
        <time>2016-03-30T13:33:44Z</time>
      </trkpt>
      <trkpt lat="45.19853" lon="6.41013">
        <ele>1781.901501596</ele>
        <time>2016-03-30T13:33:49Z</time>
      </trkpt>
      <trkpt lat="45.199" lon="6.41084">
        <ele>1780.368636709</ele>
        <time>2016-03-30T13:34:04Z</time>
      </trkpt>
      <trkpt lat="45.19912" lon="6.41097">
        <ele>1779.349619979</ele>
        <time>2016-03-30T13:34:09Z</time>
      </trkpt>
      <trkpt lat="45.19948" lon="6.41117">
        <ele>1779.078826647</ele>
        <time>2016-03-30T13:34:20Z</time>
      </trkpt>
      <trkpt lat="45.19955" lon="6.41122">
        <ele>1779.078826647</ele>
        <time>2016-03-30T13:34:23Z</time>
      </trkpt>
      <trkpt lat="45.19985" lon="6.41162">
        <ele>1778.906933421</ele>
        <time>2016-03-30T13:34:34Z</time>
      </trkpt>
      <trkpt lat="45.19998" lon="6.41158">
        <ele>1778.952908819</ele>
        <time>2016-03-30T13:34:40Z</time>
      </trkpt>
      <trkpt lat="45.20023" lon="6.41126">
        <ele>1779.470826761</ele>
        <time>2016-03-30T13:34:50Z</time>
      </trkpt>
      <trkpt lat="45.20027" lon="6.41121">
        <ele>1779.470826761</ele>
        <time>2016-03-30T13:34:53Z</time>
      </trkpt>
      <trkpt lat="45.20066" lon="6.41098">
        <ele>1779.686368397</ele>
        <time>2016-03-30T13:35:04Z</time>
      </trkpt>
      <trkpt lat="45.2008" lon="6.41096">
        <ele>1779.892122241</ele>
        <time>2016-03-30T13:35:10Z</time>
      </trkpt>
      <trkpt lat="45.20115" lon="6.41106">
        <ele>1780.359635128</ele>
        <time>2016-03-30T13:35:19Z</time>
      </trkpt>
      <trkpt lat="45.20138" lon="6.41116">
        <ele>1781.196107164</ele>
        <time>2016-03-30T13:35:24Z</time>
      </trkpt>
      <trkpt lat="45.20177" lon="6.41118">
        <ele>1781.635627038</ele>
        <time>2016-03-30T13:35:34Z</time>
      </trkpt>
      <trkpt lat="45.2019" lon="6.41124">
        <ele>1782.123032212</ele>
        <time>2016-03-30T13:35:39Z</time>
      </trkpt>
      <trkpt lat="45.20235" lon="6.41142">
        <ele>1781.917954855</ele>
        <time>2016-03-30T13:35:49Z</time>
      </trkpt>
      <trkpt lat="45.20252" lon="6.4116">
        <ele>1781.633862709</ele>
        <time>2016-03-30T13:35:55Z</time>
      </trkpt>
      <trkpt lat="45.20294" lon="6.41189">
        <ele>1781.551669061</ele>
        <time>2016-03-30T13:36:05Z</time>
      </trkpt>
      <trkpt lat="45.20309" lon="6.41192">
        <ele>1781.499265364</ele>
        <time>2016-03-30T13:36:09Z</time>
      </trkpt>
      <trkpt lat="45.2036" lon="6.41238">
        <ele>1780.452947731</ele>
        <time>2016-03-30T13:36:23Z</time>
      </trkpt>
      <trkpt lat="45.20384" lon="6.41274">
        <ele>1779.485065939</ele>
        <time>2016-03-30T13:36:28Z</time>
      </trkpt>
      <trkpt lat="45.20443" lon="6.41331">
        <ele>1778.004253574</ele>
        <time>2016-03-30T13:36:38Z</time>
      </trkpt>
      <trkpt lat="45.20476" lon="6.4135">
        <ele>1776.040958303</ele>
        <time>2016-03-30T13:36:43Z</time>
      </trkpt>
      <trkpt lat="45.20555" lon="6.41383">
        <ele>1773.769329036</ele>
        <time>2016-03-30T13:36:55Z</time>
      </trkpt>
      <trkpt lat="45.20582" lon="6.41394">
        <ele>1770.775595732</ele>
        <time>2016-03-30T13:36:59Z</time>
      </trkpt>
      <trkpt lat="45.20653" lon="6.41416">
        <ele>1767.111172566</ele>
        <time>2016-03-30T13:37:10Z</time>
      </trkpt>
      <trkpt lat="45.20676" lon="6.41423">
        <ele>1763.114202732</ele>
        <time>2016-03-30T13:37:13Z</time>
      </trkpt>
      <trkpt lat="45.20694" lon="6.41449">
        <ele>1759.243405536</ele>
        <time>2016-03-30T13:37:25Z</time>
      </trkpt>
      <trkpt lat="45.20694" lon="6.41449">
        <ele>1759.243405536</ele>
        <time>2016-03-30T13:37:29Z</time>
      </trkpt>
      <trkpt lat="45.20694" lon="6.41449">
        <ele>1759.243405536</ele>
        <time>2016-03-30T13:37:39Z</time>
      </trkpt>
      <trkpt lat="45.20694" lon="6.41448">
        <ele>1759.243405536</ele>
        <time>2016-03-30T13:37:45Z</time>
      </trkpt>
      <trkpt lat="45.20694" lon="6.41449">
        <ele>1759.243405536</ele>
        <time>2016-03-30T13:37:54Z</time>
      </trkpt>
      <trkpt lat="45.20693" lon="6.41451">
        <ele>1759.243405536</ele>
        <time>2016-03-30T13:37:59Z</time>
      </trkpt>
      <trkpt lat="45.20694" lon="6.41449">
        <ele>1759.243405536</ele>
        <time>2016-03-30T13:38:09Z</time>
      </trkpt>
      <trkpt lat="45.20694" lon="6.41449">
        <ele>1759.243405536</ele>
        <time>2016-03-30T13:38:15Z</time>
      </trkpt>
      <trkpt lat="45.20698" lon="6.41448">
        <ele>1759.243405536</ele>
        <time>2016-03-30T13:38:24Z</time>
      </trkpt>
      <trkpt lat="45.20698" lon="6.41452">
        <ele>1754.482675861</ele>
        <time>2016-03-30T13:38:29Z</time>
      </trkpt>
      <trkpt lat="45.20702" lon="6.41482">
        <ele>1749.9109083</ele>
        <time>2016-03-30T13:38:39Z</time>
      </trkpt>
      <trkpt lat="45.20696" lon="6.41521">
        <ele>1744.798147659</ele>
        <time>2016-03-30T13:38:44Z</time>
      </trkpt>
      <trkpt lat="45.20723" lon="6.41634">
        <ele>1738.902144687</ele>
        <time>2016-03-30T13:38:54Z</time>
      </trkpt>
      <trkpt lat="45.20744" lon="6.41665">
        <ele>1733.009616276</ele>
        <time>2016-03-30T13:38:59Z</time>
      </trkpt>
      <trkpt lat="45.20769" lon="6.41708">
        <ele>1727.129079643</ele>
        <time>2016-03-30T13:39:09Z</time>
      </trkpt>
      <trkpt lat="45.20778" lon="6.41721">
        <ele>1721.700847167</ele>
        <time>2016-03-30T13:39:14Z</time>
      </trkpt>
      <trkpt lat="45.20797" lon="6.41754">
        <ele>1716.555259404</ele>
        <time>2016-03-30T13:39:24Z</time>
      </trkpt>
      <trkpt lat="45.20808" lon="6.41764">
        <ele>1711.822606402</ele>
        <time>2016-03-30T13:39:29Z</time>
      </trkpt>
      <trkpt lat="45.20843" lon="6.41777">
        <ele>1707.334258208</ele>
        <time>2016-03-30T13:39:40Z</time>
      </trkpt>
      <trkpt lat="45.20869" lon="6.41781">
        <ele>1703.221520694</ele>
        <time>2016-03-30T13:39:44Z</time>
      </trkpt>
      <trkpt lat="45.20929" lon="6.41797">
        <ele>1699.316773142</ele>
        <time>2016-03-30T13:39:59Z</time>
      </trkpt>
      <trkpt lat="45.20996" lon="6.41825">
        <ele>1695.031772684</ele>
        <time>2016-03-30T13:40:15Z</time>
      </trkpt>
      <trkpt lat="45.21017" lon="6.4183">
        <ele>1690.975414878</ele>
        <time>2016-03-30T13:40:19Z</time>
      </trkpt>
      <trkpt lat="45.21033" lon="6.41838">
        <ele>1686.702406902</ele>
        <time>2016-03-30T13:40:24Z</time>
      </trkpt>
      <trkpt lat="45.21046" lon="6.41847">
        <ele>1683.241838534</ele>
        <time>2016-03-30T13:40:29Z</time>
      </trkpt>
      <trkpt lat="45.21061" lon="6.41918">
        <ele>1679.671424202</ele>
        <time>2016-03-30T13:40:44Z</time>
      </trkpt>
      <trkpt lat="45.21051" lon="6.41939">
        <ele>1676.577989984</ele>
        <time>2016-03-30T13:40:49Z</time>
      </trkpt>
      <trkpt lat="45.21041" lon="6.41958">
        <ele>1673.639188745</ele>
        <time>2016-03-30T13:40:59Z</time>
      </trkpt>
      <trkpt lat="45.21041" lon="6.41959">
        <ele>1673.639188745</ele>
        <time>2016-03-30T13:41:04Z</time>
      </trkpt>
      <trkpt lat="45.21041" lon="6.41959">
        <ele>1673.639188745</ele>
        <time>2016-03-30T13:41:18Z</time>
      </trkpt>
      <trkpt lat="45.21041" lon="6.41962">
        <ele>1673.639188745</ele>
        <time>2016-03-30T13:41:24Z</time>
      </trkpt>
      <trkpt lat="45.21042" lon="6.4196">
        <ele>1673.639188745</ele>
        <time>2016-03-30T13:41:33Z</time>
      </trkpt>
      <trkpt lat="45.21041" lon="6.4196">
        <ele>1673.639188745</ele>
        <time>2016-03-30T13:41:38Z</time>
      </trkpt>
      <trkpt lat="45.2104" lon="6.41976">
        <ele>1671.132305023</ele>
        <time>2016-03-30T13:41:48Z</time>
      </trkpt>
      <trkpt lat="45.2104" lon="6.41983">
        <ele>1671.132305023</ele>
        <time>2016-03-30T13:41:53Z</time>
      </trkpt>
      <trkpt lat="45.21039" lon="6.41984">
        <ele>1671.132305023</ele>
        <time>2016-03-30T13:42:05Z</time>
      </trkpt>
      <trkpt lat="45.2104" lon="6.41983">
        <ele>1671.132305023</ele>
        <time>2016-03-30T13:42:20Z</time>
      </trkpt>
      <trkpt lat="45.2104" lon="6.41983">
        <ele>1671.132305023</ele>
        <time>2016-03-30T13:42:24Z</time>
      </trkpt>
      <trkpt lat="45.2104" lon="6.41983">
        <ele>1671.132305023</ele>
        <time>2016-03-30T13:42:36Z</time>
      </trkpt>
      <trkpt lat="45.2104" lon="6.41983">
        <ele>1671.132305023</ele>
        <time>2016-03-30T13:42:39Z</time>
      </trkpt>
      <trkpt lat="45.2104" lon="6.41983">
        <ele>1671.132305023</ele>
        <time>2016-03-30T13:42:50Z</time>
      </trkpt>
      <trkpt lat="45.2104" lon="6.41983">
        <ele>1671.132305023</ele>
        <time>2016-03-30T13:42:54Z</time>
      </trkpt>
      <trkpt lat="45.2104" lon="6.41983">
        <ele>1671.132305023</ele>
        <time>2016-03-30T13:43:05Z</time>
      </trkpt>
      <trkpt lat="45.2104" lon="6.41983">
        <ele>1671.132305023</ele>
        <time>2016-03-30T13:43:09Z</time>
      </trkpt>
      <trkpt lat="45.2104" lon="6.41983">
        <ele>1671.132305023</ele>
        <time>2016-03-30T13:43:19Z</time>
      </trkpt>
      <trkpt lat="45.2104" lon="6.41983">
        <ele>1671.132305023</ele>
        <time>2016-03-30T13:43:25Z</time>
      </trkpt>
      <trkpt lat="45.2104" lon="6.41983">
        <ele>1671.132305023</ele>
        <time>2016-03-30T13:43:34Z</time>
      </trkpt>
      <trkpt lat="45.2104" lon="6.41983">
        <ele>1671.132305023</ele>
        <time>2016-03-30T13:43:39Z</time>
      </trkpt>
      <trkpt lat="45.2104" lon="6.41983">
        <ele>1671.132305023</ele>
        <time>2016-03-30T13:43:53Z</time>
      </trkpt>
      <trkpt lat="45.2104" lon="6.41983">
        <ele>1671.132305023</ele>
        <time>2016-03-30T13:43:59Z</time>
      </trkpt>
      <trkpt lat="45.2104" lon="6.41983">
        <ele>1671.132305023</ele>
        <time>2016-03-30T13:44:10Z</time>
      </trkpt>
      <trkpt lat="45.2104" lon="6.41983">
        <ele>1671.132305023</ele>
        <time>2016-03-30T13:44:14Z</time>
      </trkpt>
      <trkpt lat="45.2104" lon="6.41983">
        <ele>1671.132305023</ele>
        <time>2016-03-30T13:44:25Z</time>
      </trkpt>
      <trkpt lat="45.2104" lon="6.41983">
        <ele>1671.132305023</ele>
        <time>2016-03-30T13:44:29Z</time>
      </trkpt>
      <trkpt lat="45.2104" lon="6.41983">
        <ele>1671.132305023</ele>
        <time>2016-03-30T13:44:39Z</time>
      </trkpt>
      <trkpt lat="45.2104" lon="6.41983">
        <ele>1671.132305023</ele>
        <time>2016-03-30T13:44:44Z</time>
      </trkpt>
      <trkpt lat="45.2104" lon="6.41983">
        <ele>1671.132305023</ele>
        <time>2016-03-30T13:44:54Z</time>
      </trkpt>
      <trkpt lat="45.2104" lon="6.41983">
        <ele>1671.132305023</ele>
        <time>2016-03-30T13:44:59Z</time>
      </trkpt>
      <trkpt lat="45.21039" lon="6.41984">
        <ele>1671.132305023</ele>
        <time>2016-03-30T13:45:09Z</time>
      </trkpt>
      <trkpt lat="45.21039" lon="6.41984">
        <ele>1671.132305023</ele>
        <time>2016-03-30T13:45:15Z</time>
      </trkpt>
      <trkpt lat="45.2104" lon="6.41984">
        <ele>1669.168877041</ele>
        <time>2016-03-30T13:45:24Z</time>
      </trkpt>
      <trkpt lat="45.21041" lon="6.41984">
        <ele>1669.168877041</ele>
        <time>2016-03-30T13:45:29Z</time>
      </trkpt>
      <trkpt lat="45.2104" lon="6.41985">
        <ele>1669.168877041</ele>
        <time>2016-03-30T13:45:40Z</time>
      </trkpt>
      <trkpt lat="45.2104" lon="6.41985">
        <ele>1669.168877041</ele>
        <time>2016-03-30T13:45:44Z</time>
      </trkpt>
      <trkpt lat="45.2104" lon="6.41985">
        <ele>1669.168877041</ele>
        <time>2016-03-30T13:46:00Z</time>
      </trkpt>
      <trkpt lat="45.2104" lon="6.41985">
        <ele>1669.168877041</ele>
        <time>2016-03-30T13:46:03Z</time>
      </trkpt>
      <trkpt lat="45.2104" lon="6.41985">
        <ele>1669.168877041</ele>
        <time>2016-03-30T13:46:13Z</time>
      </trkpt>
      <trkpt lat="45.21037" lon="6.41983">
        <ele>1669.168877041</ele>
        <time>2016-03-30T13:46:18Z</time>
      </trkpt>
      <trkpt lat="45.2104" lon="6.41982">
        <ele>1669.168877041</ele>
        <time>2016-03-30T13:46:28Z</time>
      </trkpt>
      <trkpt lat="45.2104" lon="6.41982">
        <ele>1669.168877041</ele>
        <time>2016-03-30T13:46:33Z</time>
      </trkpt>
      <trkpt lat="45.2104" lon="6.41982">
        <ele>1667.130121356</ele>
        <time>2016-03-30T13:46:48Z</time>
      </trkpt>
      <trkpt lat="45.2104" lon="6.41982">
        <ele>1667.130121356</ele>
        <time>2016-03-30T13:46:53Z</time>
      </trkpt>
      <trkpt lat="45.2104" lon="6.41982">
        <ele>1667.130121356</ele>
        <time>2016-03-30T13:47:03Z</time>
      </trkpt>
      <trkpt lat="45.2104" lon="6.41982">
        <ele>1667.130121356</ele>
        <time>2016-03-30T13:47:08Z</time>
      </trkpt>
      <trkpt lat="45.2104" lon="6.41982">
        <ele>1667.130121356</ele>
        <time>2016-03-30T13:47:14Z</time>
      </trkpt>
      <trkpt lat="45.21041" lon="6.41982">
        <ele>1667.130121356</ele>
        <time>2016-03-30T13:47:19Z</time>
      </trkpt>
      <trkpt lat="45.21041" lon="6.41982">
        <ele>1667.130121356</ele>
        <time>2016-03-30T13:47:30Z</time>
      </trkpt>
      <trkpt lat="45.21041" lon="6.41982">
        <ele>1667.130121356</ele>
        <time>2016-03-30T13:47:34Z</time>
      </trkpt>
      <trkpt lat="45.21041" lon="6.41982">
        <ele>1667.130121356</ele>
        <time>2016-03-30T13:47:39Z</time>
      </trkpt>
      <trkpt lat="45.21041" lon="6.41982">
        <ele>1667.130121356</ele>
        <time>2016-03-30T13:47:49Z</time>
      </trkpt>
      <trkpt lat="45.2104" lon="6.41982">
        <ele>1667.130121356</ele>
        <time>2016-03-30T13:47:53Z</time>
      </trkpt>
      <trkpt lat="45.21041" lon="6.4198">
        <ele>1667.130121356</ele>
        <time>2016-03-30T13:47:58Z</time>
      </trkpt>
      <trkpt lat="45.21041" lon="6.4198">
        <ele>1667.130121356</ele>
        <time>2016-03-30T13:48:03Z</time>
      </trkpt>
    </trkseg>
  </trk>
</gpx>